ftp/pub/palmer/observations_modified/2019/July/AR190721_BASE.txt

Download

Sample DateTime	Unit Id	WS Avg 2min	WD Avg 2min	WGS 10min	WGD 10min	Air Temp	Rel Humidity	Dew Point	Pyranometer	Quantum	Air Pressure	Snow Level	Rainfall	PW Current	Visibility	CBase 1	CBase 2	CBase 3	Vert Vis
2019/07/21  00:00:00  BASE  2.85768  168  3.83964  193  -4.7  100   -4.7  0     0     981.5    NA       0.0000   BR       7000  390   0    
2019/07/21  00:01:00  BASE  2.9694   167  3.69264  186  -4.7  100   -4.7  0     0     981.5    NA       0.0000   BR       8000  390   0    
2019/07/21  00:02:00  BASE  3.1458   166  3.81024  155  -4.7  100   -4.7  0     0     981.5    NA       0.0000   BR       9000  390   0    
2019/07/21  00:03:00  BASE  3.52212  172  3.96312  174  -4.7  100   -4.7  0     0     981.5    NA       0.0000   BR       9000  390   0    
2019/07/21  00:04:00  BASE  3.73968  177  4.32768  175  -4.7  100   -4.7  0     0     981.5    NA       0.0000   BR       9999  430   0    
2019/07/21  00:05:00  BASE  3.88668  178  4.32768  175  -4.7  100   -4.7  0     0     981.4    NA       0.0000   BR       9999  430   0    
2019/07/21  00:06:00  BASE  3.79848  190  4.32768  175  -4.7  100   -4.7  0     0     981.5    NA       0.0000   BR       9000  430   0    
2019/07/21  00:07:00  BASE  3.68676  206  4.32768  175  -4.7  100   -4.7  0     0     981.4    NA       0.0000   BR       8000  430   0    
2019/07/21  00:08:00  BASE  3.66324  216  4.32768  175  -4.6  100   -4.6  0     0     981.4    NA       0.0000   BR       8000  430   0    
2019/07/21  00:09:00  BASE  3.92196  218  4.83924  218  -4.6  100   -4.6  0     0     981.4    NA       0.0000   BR       9999  590   0    
2019/07/21  00:10:00  BASE  3.72792  211  4.83924  218  -4.6  100   -4.6  0     0     981.4    NA       0.0000   BR       9999  460   0    
2019/07/21  00:11:00  BASE  3.18108  213  4.83924  218  -4.7  100   -4.7  0     0     981.4    NA       0.0000   BR       9999  390   0    
2019/07/21  00:12:00  BASE  3.33396  216  4.83924  218  -4.7  100   -4.7  0     0     981.4    NA       0.0000   9999     430   0     0    
2019/07/21  00:13:00  BASE  3.528    219  4.83924  218  -4.8  100   -4.8  0     0     981.4    NA       0.0000   9999     390   0     0    
2019/07/21  00:14:00  BASE  3.59856  213  4.83924  218  -4.8  100   -4.8  0     0     981.4    NA       0.0000   9999     460   0     0    
2019/07/21  00:15:00  BASE  3.71028  206  4.83924  218  -4.8  100   -4.8  0     0     981.4    NA       0.0000   9999     490   0     0    
2019/07/21  00:16:00  BASE  3.7632   211  4.83924  218  -4.8  100   -4.8  0     0     981.4    NA       0.0000   9999     560   0     0    
2019/07/21  00:17:00  BASE  3.8808   217  4.83924  218  -4.8  100   -4.8  0     0     981.4    NA       0.0000   9999     620   0     0    
2019/07/21  00:18:00  BASE  3.86904  217  4.83924  218  -4.8  100   -4.8  0     0     981.4    NA       0.0000   9999     560   0     0    
2019/07/21  00:19:00  BASE  4.19832  207  4.86864  209  -4.8  100   -4.8  0     0     981.4    NA       0.0000   9999     660   0     0    
2019/07/21  00:20:00  BASE  4.28064  206  4.86864  209  -4.8  100   -4.8  0     0     981.4    NA       0.0000   9999     560   0     0    
2019/07/21  00:21:00  BASE  3.73968  208  4.86864  209  -4.8  100   -4.8  0     0     981.4    NA       0.0000   9999     490   0     0    
2019/07/21  00:22:00  BASE  3.69264  205  4.86864  209  -4.8  100   -4.8  0     0     981.4    NA       0.0000   9999     690   0     0    
2019/07/21  00:23:00  BASE  3.92196  206  4.86864  209  -4.8  100   -4.8  0     0     981.4    NA       0.0000   9999     560   0     0    
2019/07/21  00:24:00  BASE  4.31004  211  5.145    217  -4.9  100   -4.9  0     0     981.4    NA       0.0000   9999     750   0     0    
2019/07/21  00:25:00  BASE  4.48056  211  5.145    217  -4.9  100   -4.9  0     0     981.4    NA       0.0000   9999     950   0     0    
2019/07/21  00:26:00  BASE  3.82788  202  5.145    217  -4.9  100   -4.9  0     0     981.4    NA       0.0000   9999     980   0     0    
2019/07/21  00:27:00  BASE  2.95176  189  5.145    217  -4.9  100   -4.9  0     0     981.4    NA       0.0000   9999     1020  0     0    
2019/07/21  00:28:00  BASE  2.10504  180  5.145    217  -4.9  100   -4.9  0     0     981.4    NA       0.0000   9999     590   0     0    
2019/07/21  00:29:00  BASE  1.68168  178  5.145    217  -4.9  100   -4.9  0     0     981.4    NA       0.0000   9999     750   0     0    
2019/07/21  00:30:00  BASE  1.74636  174  5.145    217  -4.9  100   -4.9  0     0     981.4    NA       0.0000   9999     750   0     0    
2019/07/21  00:31:00  BASE  1.95216  172  5.145    217  -4.9  100   -4.9  0     0     981.3    NA       0.0000   9999     690   0     0    
2019/07/21  00:32:00  BASE  2.19912  167  5.145    217  -4.9  100   -4.9  0     0     981.2    NA       0.0000   9999     720   0     0    
2019/07/21  00:33:00  BASE  3.1164   166  5.145    217  -4.9  100   -4.9  0     0     981.2    NA       0.0000   9999     850   0     0    
2019/07/21  00:34:00  BASE  3.31632  169  4.68636  179  -4.9  100   -4.9  0     0     981.2    NA       0.0000   9999     790   0     0    
2019/07/21  00:35:00  BASE  2.352    165  4.68636  179  -4.9  100   -4.9  0     0     981.2    NA       0.0000   9999     430   0     0    
2019/07/21  00:36:00  BASE  1.78752  163  4.68636  179  -4.9  100   -4.9  0     0     981.2    NA       0.0000   9999     820   0     0    
2019/07/21  00:37:00  BASE  1.78752  169  4.68636  179  -4.9  100   -4.9  0     0     981.2    NA       0.0000   9999     850   0     0    
2019/07/21  00:38:00  BASE  2.09916  170  4.68636  179  -4.9  100   -4.9  0     0     981.2    NA       0.0000   9999     820   0     0    
2019/07/21  00:39:00  BASE  2.43432  162  4.68636  179  -4.9  100   -4.9  0     0     981.2    NA       0.0000   9999     850   0     0    
2019/07/21  00:40:00  BASE  2.9106   156  4.68636  179  -4.9  100   -4.9  0     0     981.2    NA       0.0000   9999     750   0     0    
2019/07/21  00:41:00  BASE  3.1458   154  4.68636  179  -4.9  100   -4.9  0     0     981.2    NA       0.0000   9999     620   0     0    
2019/07/21  00:42:00  BASE  3.087    149  4.68636  179  -4.9  100   -4.9  0     0     981.2    NA       0.0000   9999     560   0     0    
2019/07/21  00:43:00  BASE  3.31632  147  4.263    149  -4.9  100   -4.9  0     0     981.2    NA       0.0000   9999     590   0     0    
2019/07/21  00:44:00  BASE  3.1164   146  4.263    149  -4.9  100   -4.9  0     0     981.2    NA       0.0000   9999     620   0     0    
2019/07/21  00:45:00  BASE  2.78124  137  4.263    149  -4.9  100   -4.9  0     0     981.2    NA       0.0000   9999     490   0     0    
2019/07/21  00:46:00  BASE  3.19872  137  4.263    149  -4.9  100   -4.9  0     0     981.2    NA       0.0000   9999     490   0     0    
2019/07/21  00:47:00  BASE  3.10464  148  4.263    149  -4.9  100   -4.9  0     0     981.2    NA       0.0000   9999     460   0     0    
2019/07/21  00:48:00  BASE  2.42256  154  4.263    149  -4.9  100   -4.9  0     0     981.2    NA       0.0000   9000     430   0     0    
2019/07/21  00:49:00  BASE  2.04036  159  4.263    149  -4.8  100   -4.8  0     0     981.2    NA       0.0000   9999     460   0     0    
2019/07/21  00:50:00  BASE  2.08152  155  4.263    149  -4.8  100   -4.8  0     0     981.2    NA       0.0000   8000     430   0     0    
2019/07/21  00:51:00  BASE  2.21676  150  4.263    149  -4.8  100   -4.8  0     0     981.2    NA       0.0000   6000     390   0     0    
2019/07/21  00:52:00  BASE  2.11092  153  4.263    149  -4.8  100   -4.8  0     0     981.2    NA       0.0000   BR       4900  360   0    
2019/07/21  00:53:00  BASE  1.97568  156  4.05132  153  -4.8  100   -4.8  0     0     981.2    NA       0.0000   BR       4900  430   0    
2019/07/21  00:54:00  BASE  2.12268  159  4.05132  153  -4.8  100   -4.8  0     0     981.2    NA       0.0000   BR       4800  390   0    
2019/07/21  00:55:00  BASE  2.19324  159  4.05132  153  -4.8  100   -4.8  0     0     981.2    NA       0.0000   BR       4800  390   0    
2019/07/21  00:56:00  BASE  2.15208  163  2.93412  154  -4.8  100   -4.8  0     0     981.2    NA       0.0000   BR       6000  460   0    
2019/07/21  00:57:00  BASE  2.28144  171  2.69304  145  -4.8  100   -4.8  0     0     981.2    NA       0.0000   BR       7000  460   0    
2019/07/21  00:58:00  BASE  2.55192  175  2.93412  176  -4.8  100   -4.8  0     0     981.2    NA       0.0000   BR       8000  460   0    
2019/07/21  00:59:00  BASE  2.52252  169  2.93412  176  -4.8  100   -4.8  0     0     981.2    NA       0.0000   BR       8000  520   0    
2019/07/21  01:00:00  BASE  1.98156  154  2.93412  176  -4.8  100   -4.8  0     0     981.2    NA       0.0000   BR       9000  620   0    
2019/07/21  01:01:00  BASE  1.74636  150  2.93412  176  -4.8  100   -4.8  0     0     981.2    NA       0.0000   BR       9999  590   0    
2019/07/21  01:02:00  BASE  2.40492  167  3.38688  191  -4.8  100   -4.8  0     0     981.2    NA       0.0000   BR       9999  620   0    
2019/07/21  01:03:00  BASE  3.02232  179  3.38688  192  -4.8  100   -4.8  0     0     981.2    NA       0.0000   BR       9999  460   0    
2019/07/21  01:04:00  BASE  3.16344  188  3.81024  195  -4.8  100   -4.8  0     0     981.3    NA       0.0000   BR       9999  590   0    
2019/07/21  01:05:00  BASE  2.98704  200  3.81024  195  -4.7  100   -4.7  0     0     981.4    NA       0.0000   BR       9999  460   0    
2019/07/21  01:06:00  BASE  2.81652  191  3.81024  195  -4.7  100   -4.7  0     0     981.4    NA       0.0000   9999     460   0     0    
2019/07/21  01:07:00  BASE  3.02232  177  3.81024  195  -4.7  100   -4.7  0     0     981.4    NA       0.0000   9999     430   0     0    
2019/07/21  01:08:00  BASE  3.25164  173  3.81024  195  -4.7  100   -4.7  0     0     981.3    NA       0.0000   9999     430   0     0    
2019/07/21  01:09:00  BASE  3.2046   172  3.81024  195  -4.7  100   -4.7  0     0     981.3    NA       0.0000   9000     490   0     0    
2019/07/21  01:10:00  BASE  2.96352  169  3.81024  195  -4.7  100   -4.7  0     0     981.4    NA       0.0000   9000     560   0     0    
2019/07/21  01:11:00  BASE  2.72244  158  3.81024  195  -4.8  100   -4.8  0     0     981.4    NA       0.0000   9999     490   0     0    
2019/07/21  01:12:00  BASE  2.37552  152  3.81024  195  -4.8  100   -4.8  0     0     981.4    NA       0.0000   9999     460   0     0    
2019/07/21  01:13:00  BASE  2.01096  148  3.81024  195  -4.8  100   -4.8  0     0     981.4    NA       0.0000   9999     430   0     0    
2019/07/21  01:14:00  BASE  1.86984  151  3.69264  163  -4.8  100   -4.8  0     0     981.4    NA       0.0000   9999     620   0     0    
2019/07/21  01:15:00  BASE  2.36376  164  3.69264  163  -4.8  100   -4.8  0     0     981.4    NA       0.0000   9999     520   0     0    
2019/07/21  01:16:00  BASE  3.19872  171  4.59816  180  -4.8  100   -4.8  0     0     981.4    NA       0.0000   9999     430   0     0    
2019/07/21  01:17:01  BASE  3.60444  174  4.59816  180  -4.7  100   -4.7  0     0     981.4    NA       0.0000   9000     430   0     0    
2019/07/21  01:18:00  BASE  3.1458   177  4.59816  180  -4.7  100   -4.7  0     0     981.4    NA       0.0000   7000     430   0     0    
2019/07/21  01:19:00  BASE  2.57544  176  4.59816  180  -4.7  100   -4.7  0     0     981.4    NA       0.0000   BR       6000  460   0    
2019/07/21  01:20:00  BASE  2.5872   172  4.59816  180  -4.6  100   -4.6  0     0     981.4    NA       0.0000   BR       8000  460   0    
2019/07/21  01:21:00  BASE  2.74596  169  4.59816  180  -4.6  100   -4.6  0     0     981.4    NA       0.0000   BR       8000  430   0    
2019/07/21  01:22:00  BASE  2.6754   172  4.59816  180  -4.6  100   -4.6  0     0     981.4    NA       0.0000   BR       8000  390   0    
2019/07/21  01:23:00  BASE  2.646    165  4.59816  180  -4.6  100   -4.6  0     0     981.4    NA       0.0000   BR       7000  390   0    
2019/07/21  01:24:00  BASE  2.86356  153  4.59816  180  -4.6  100   -4.6  0     0     981.4    NA       0.0000   BR       6000  390   0    
2019/07/21  01:25:00  BASE  2.92824  150  4.59816  180  -4.6  100   -4.6  0     0     981.4    NA       0.0000   BR       6000  390   0    
2019/07/21  01:26:00  BASE  3.03996  150  4.35708  167  -4.6  100   -4.6  0     0     981.4    NA       0.0000   BR       5000  390   0    
2019/07/21  01:27:00  BASE  3.22812  154  3.51036  151  -4.7  100   -4.7  0     0     981.4    NA       0.0000   BR       3700  360   0    
2019/07/21  01:28:00  BASE  2.94588  158  3.51036  151  -4.7  100   -4.7  0     0     981.4    NA       0.0000   BR       2800  360   0    
2019/07/21  01:29:00  BASE  2.51076  158  3.51036  151  -4.7  100   -4.7  0     0     981.4    NA       0.0000   -SN      BR    2700  390  
2019/07/21  01:30:00  BASE  2.42844  159  3.51036  151  -4.7  100   -4.7  0     0     981.4    NA       0.0000   -SN      BR    2800  330  
2019/07/21  01:31:00  BASE  2.25204  160  3.51036  151  -4.7  100   -4.7  0     0     981.4    NA       0.0000   -SN      BR    2500  360  
2019/07/21  01:32:00  BASE  2.16384  157  3.51036  151  -4.7  100   -4.7  0     0     981.4    NA       0.0000   -SN      BR    2500  360  
2019/07/21  01:33:00  BASE  2.352    158  3.51036  151  -4.7  100   -4.7  0     0     981.4    NA       0.0000   -SN      BR    2700  390  
2019/07/21  01:34:00  BASE  2.48724  160  3.51036  151  -4.7  100   -4.7  0     0     981.4    NA       0.0000   -SN      BR    3100  390  
2019/07/21  01:35:00  BASE  2.54604  166  3.51036  151  -4.7  100   -4.7  0     0     981.4    NA       0.0000   -SN      BR    3300  390  
2019/07/21  01:36:00  BASE  2.39316  174  3.51036  151  -4.7  100   -4.7  0     0     981.4    NA       0.0000   -SN      BR    3300  390  
2019/07/21  01:37:00  BASE  2.2932   182  3.1458   167  -4.7  100   -4.7  0     0     981.4    NA       0.0000   -SN      BR    3500  390  
2019/07/21  01:38:00  BASE  2.34024  188  3.0576   164  -4.7  100   -4.7  0     0     981.4    NA       0.0000   -SN      BR    3000  330  
2019/07/21  01:39:00  BASE  2.205    189  3.0576   164  -4.7  100   -4.7  0     0     981.4    NA       0.0000   -SN      BR    2600  360  
2019/07/21  01:40:00  BASE  2.48136  188  3.0576   188  -4.6  100   -4.6  0     0     981.4    NA       0.0000   -SN      BR    2500  360  
2019/07/21  01:41:00  BASE  2.75184  180  3.087    174  -4.6  100   -4.6  0     0     981.4    NA       0.0000   -SN      BR    2400  330  
2019/07/21  01:42:00  BASE  2.45784  174  3.087    174  -4.6  100   -4.6  0     0     981.4    NA       0.0000   -SN      BR    2400  390  
2019/07/21  01:43:00  BASE  2.08152  183  3.087    174  -4.6  100   -4.6  0     0     981.4    NA       0.0000   -SN      BR    2500  460  
2019/07/21  01:44:00  BASE  2.09328  201  3.087    174  -4.6  100   -4.6  0     0     981.4    NA       0.0000   -SN      BR    2500  750  
2019/07/21  01:45:00  BASE  2.59896  219  3.087    174  -4.6  100   -4.6  0     0     981.4    NA       0.0000   -SN      BR    2900  490  
2019/07/21  01:46:00  BASE  3.1164   220  3.83964  203  -4.7  100   -4.7  0     0     981.4    NA       0.0000   -SN      BR    4200  620  
2019/07/21  01:47:00  BASE  3.381    209  4.41588  195  -4.7  100   -4.7  0     0     981.3    NA       0.0000   -SN      BR    4900  820  
2019/07/21  01:48:00  BASE  3.59856  198  4.41588  195  -4.7  100   -4.7  0     0     981.3    NA       0.0000   -SN      BR    5000  590  
2019/07/21  01:49:00  BASE  3.60444  192  4.41588  195  -4.8  100   -4.8  0     0     981.3    NA       0.0000   -SN      BR    6000  490  
2019/07/21  01:50:00  BASE  3.31044  195  4.41588  195  -4.8  100   -4.8  0     0     981.3    NA       0.0000   -SN      BR    7000  720  
2019/07/21  01:51:00  BASE  3.44568  212  4.41588  195  -4.8  100   -4.8  0     0     981.3    NA       0.0000   BR       8000  890   0    
2019/07/21  01:52:00  BASE  3.69852  225  4.41588  195  -4.8  100   -4.8  0     0     981.3    NA       0.0000   BR       9000  790   0    
2019/07/21  01:53:00  BASE  3.80436  225  4.41588  195  -4.7  100   -4.7  0     0     981.3    NA       0.0000   BR       9999  850   0    
2019/07/21  01:54:00  BASE  3.63972  223  4.41588  195  -4.7  100   -4.7  0     0     981.4    NA       0.0000   BR       9999  720   0    
2019/07/21  01:55:00  BASE  3.2634   222  4.41588  195  -4.7  100   -4.7  0     0     981.3    NA       0.0000   BR       9999  520   0    
2019/07/21  01:56:00  BASE  2.99292  220  4.41588  195  -4.7  100   -4.7  0     0     981.3    NA       0.0000   BR       9999  820   0    
2019/07/21  01:57:00  BASE  2.66364  218  4.263    229  -4.7  100   -4.7  0     0     981.3    NA       0.0000   BR       9999  790   0    
2019/07/21  01:58:00  BASE  2.71068  210  4.263    229  -4.7  100   -4.7  0     0     981.3    NA       0.0000   BR       9999  720   0    
2019/07/21  01:59:00  BASE  2.66952  195  4.263    229  -4.7  100   -4.7  0     0     981.4    NA       0.0000   9999     660   0     0    
2019/07/21  02:00:00  BASE  2.40492  183  4.263    229  -4.7  100   -4.7  0     0     981.3    NA       0.0000   9999     460   0     0    
2019/07/21  02:01:00  BASE  2.59308  180  4.263    229  -4.8  100   -4.8  0     0     981.3    NA       0.0000   9999     620   0     0    
2019/07/21  02:02:00  BASE  2.75184  185  4.1748   226  -4.8  100   -4.8  0     0     981.4    NA       0.0000   9999     620   0     0    
2019/07/21  02:03:00  BASE  2.78712  194  4.116    205  -4.8  100   -4.8  0     0     981.4    NA       0.0000   9999     720   0     0    
2019/07/21  02:04:00  BASE  2.96352  202  4.62756  201  -4.8  100   -4.8  0     0     981.4    NA       0.0000   9999     690   0     0    
2019/07/21  02:05:00  BASE  3.7632   211  4.80984  225  -4.7  100   -4.7  0     0     981.4    NA       0.0000   9999     660   0     0    
2019/07/21  02:06:00  BASE  4.116    216  4.80984  225  -4.7  100   -4.7  0     0     981.4    NA       0.0000   9999     660   0     0    
2019/07/21  02:07:00  BASE  3.53976  215  4.80984  225  -4.7  100   -4.7  0     0     981.4    NA       0.0000   9999     790   0     0    
2019/07/21  02:08:00  BASE  3.68676  213  4.80984  225  -4.7  100   -4.7  0     0     981.4    NA       0.0000   9999     790   0     0    
2019/07/21  02:09:00  BASE  3.75732  206  4.80984  225  -4.7  100   -4.7  0     0     981.4    NA       0.0000   9999     390   0     0    
2019/07/21  02:10:00  BASE  3.56916  206  4.80984  225  -4.7  100   -4.7  0     0     981.4    NA       0.0000   9999     390   0     0    
2019/07/21  02:11:00  BASE  3.5868   212  4.80984  225  -4.7  100   -4.7  0     0     981.4    NA       0.0000   9999     360   0     0    
2019/07/21  02:12:00  BASE  3.56916  215  4.80984  225  -4.7  100   -4.7  0     0     981.4    NA       0.0000   9999     460   0     0    
2019/07/21  02:13:00  BASE  3.4104   219  4.80984  225  -4.7  100   -4.7  0     0     981.4    NA       0.0000   9999     520   0     0    
2019/07/21  02:14:00  BASE  3.25752  222  4.80984  225  -4.7  100   -4.7  0     0     981.5    NA       0.0000   9999     590   0     0    
2019/07/21  02:15:00  BASE  3.43392  219  4.47468  206  -4.7  100   -4.7  0     0     981.4    NA       0.0000   9999     490   0     0    
2019/07/21  02:16:00  BASE  3.60444  214  4.47468  206  -4.7  100   -4.7  0     0     981.4    NA       0.0000   9999     390   0     0    
2019/07/21  02:17:00  BASE  4.19244  217  5.2038   226  -4.7  100   -4.7  0     0     981.4    NA       0.0000   9999     520   0     0    
2019/07/21  02:18:00  BASE  4.53936  220  5.2038   226  -4.7  100   -4.7  0     0     981.4    NA       0.0000   9999     620   0     0    
2019/07/21  02:19:00  BASE  4.42764  217  5.2038   226  -4.7  100   -4.7  0     0     981.5    NA       0.0000   9999     490   0     0    
2019/07/21  02:20:00  BASE  4.51584  216  5.2038   226  -4.7  100   -4.7  0     0     981.5    NA       0.0000   9999     460   0     0    
2019/07/21  02:21:00  BASE  4.39824  220  5.2038   226  -4.7  100   -4.7  0     0     981.5    NA       0.0000   9999     560   0     0    
2019/07/21  02:22:00  BASE  4.29828  219  5.2038   226  -4.7  100   -4.7  0     0     981.5    NA       0.0000   9999     520   0     0    
2019/07/21  02:23:00  BASE  4.57464  214  5.2038   226  -4.7  100   -4.7  0     0     981.5    NA       0.0000   9999     590   0     0    
2019/07/21  02:24:00  BASE  4.68048  217  5.2038   226  -4.7  100   -4.7  0     0     981.5    NA       0.0000   9999     620   0     0    
2019/07/21  02:25:00  BASE  4.97448  220  5.65656  217  -4.7  100   -4.7  0     0     981.5    NA       0.0000   9999     430   0     0    
2019/07/21  02:26:00  BASE  5.1744   223  5.65656  217  -4.8  100   -4.8  0     0     981.5    NA       0.0000   9999     360   0     0    
2019/07/21  02:27:00  BASE  4.75104  223  5.65656  217  -4.8  100   -4.8  0     0     981.5    NA       0.0000   9999     390   0     0    
2019/07/21  02:28:00  BASE  4.56876  221  5.65656  217  -4.8  100   -4.8  0     0     981.5    NA       0.0000   9999     430   0     0    
2019/07/21  02:29:00  BASE  4.86276  220  5.65656  223  -4.8  100   -4.8  0     0     981.5    NA       0.0000   9999     390   0     0    
2019/07/21  02:30:00  BASE  4.90392  217  5.65656  223  -4.8  100   -4.8  0     0     981.5    NA       0.0000   9999     430   0     0    
2019/07/21  02:31:00  BASE  4.73928  216  5.65656  223  -4.8  100   -4.8  0     0     981.5    NA       0.0000   9999     430   0     0    
2019/07/21  02:32:00  BASE  4.75104  219  5.65656  223  -4.8  100   -4.8  0     0     981.5    NA       0.0000   9999     590   0     0    
2019/07/21  02:33:00  BASE  4.7334   220  5.65656  223  -4.8  100   -4.8  0     0     981.5    NA       0.0000   9999     520   0     0    
2019/07/21  02:34:00  BASE  4.7922   218  5.65656  223  -4.8  100   -4.8  0     0     981.5    NA       0.0000   9999     490   0     0    
2019/07/21  02:35:00  BASE  5.05092  216  5.78004  218  -4.8  100   -4.8  0     0     981.5    NA       0.0000   9999     560   0     0    
2019/07/21  02:36:00  BASE  4.80396  219  5.78004  218  -4.8  100   -4.8  0     0     981.5    NA       0.0000   9999     560   0     0    
2019/07/21  02:37:00  BASE  3.86904  216  5.78004  218  -4.8  100   -4.8  0     0     981.5    NA       0.0000   9999     560   0     0    
2019/07/21  02:38:00  BASE  3.54564  212  5.78004  218  -4.8  100   -4.8  0     0     981.5    NA       0.0000   9999     690   0     0    
2019/07/21  02:39:00  BASE  3.54564  223  5.78004  218  -4.9  100   -4.9  0     0     981.5    NA       0.0000   9999     750   0     0    
2019/07/21  02:40:00  BASE  3.18108  235  5.78004  218  -4.9  100   -4.9  0     0     981.5    NA       0.0000   9999     690   0     0    
2019/07/21  02:41:00  BASE  2.84592  232  5.78004  218  -4.9  100   -4.9  0     0     981.5    NA       0.0000   9999     430   0     0    
2019/07/21  02:42:00  BASE  2.65188  221  5.78004  218  -4.9  100   -4.9  0     0     981.5    NA       0.0000   9999     430   0     0    
2019/07/21  02:43:00  BASE  2.499    213  5.78004  218  -4.9  100   -4.9  0     0     981.5    NA       0.0000   9999     520   0     0    
2019/07/21  02:44:00  BASE  2.2344   210  5.78004  218  -4.9  100   -4.9  0     0     981.6    NA       0.0000   9999     430   0     0    
2019/07/21  02:45:00  BASE  2.05212  218  4.68636  226  -4.9  100   -4.9  0     0     981.6    NA       0.0000   9999     750   0     0    
2019/07/21  02:46:00  BASE  2.01684  219  4.263    221  -4.9  100   -4.9  0     0     981.6    NA       0.0000   9999     590   0     0    
2019/07/21  02:47:00  BASE  1.57584  210  4.263    221  -4.9  100   -4.9  0     0     981.6    NA       0.0000   9999     560   0     0    
2019/07/21  02:48:00  BASE  1.37592  199  4.1748   227  -4.9  100   -4.9  0     0     981.6    NA       0.0000   9999     460   0     0    
2019/07/21  02:49:00  BASE  1.43472  189  3.2046   233  -4.9  100   -4.9  0     0     981.6    NA       0.0000   9999     560   0     0    
2019/07/21  02:50:00  BASE  1.13484  190  2.96352  226  -4.9  100   -4.9  0     0     981.6    NA       0.0000   9999     560   0     0    
2019/07/21  02:51:00  BASE  1.19952  189  2.90472  216  -4.9  100   -4.9  0     0     981.6    NA       0.0000   9999     490   0     0    
2019/07/21  02:52:00  BASE  1.60524  196  2.59896  212  -4.9  100   -4.9  0     0     981.6    NA       0.0000   9999     590   0     0    
2019/07/21  02:53:00  BASE  1.81104  207  2.51076  205  -4.9  100   -4.9  0     0     981.6    NA       0.0000   9999     460   0     0    
2019/07/21  02:54:00  BASE  2.48724  212  4.1454   203  -4.9  100   -4.9  0     0     981.5    NA       0.0000   9999     490   0     0    
2019/07/21  02:55:00  BASE  3.68676  223  4.99212  232  -4.9  100   -4.9  0     0     981.5    NA       0.0000   9999     560   0     0    
2019/07/21  02:56:00  BASE  4.08072  232  4.99212  232  -4.8  100   -4.8  0     0     981.5    NA       0.0000   9999     430   0     0    
2019/07/21  02:57:00  BASE  3.73968  232  4.99212  232  -4.8  100   -4.8  0     0     981.5    NA       0.0000   9999     330   0     0    
2019/07/21  02:58:00  BASE  3.21048  236  4.99212  232  -4.8  100   -4.8  0     0     981.5    NA       0.0000   8000     330   0     0    
2019/07/21  02:59:00  BASE  2.94588  243  4.99212  232  -4.8  100   -4.8  0     0     981.5    NA       0.0000   9000     430   0     0    
2019/07/21  03:00:00  BASE  2.99292  243  4.99212  232  -4.8  100   -4.8  0     0     981.5    NA       0.0000   9999     430   0     0    
2019/07/21  03:01:00  BASE  2.7342   240  4.99212  232  -4.8  100   -4.8  0     0     981.5    NA       0.0000   9999     430   0     0    
2019/07/21  03:02:04  BASE  2.2932   245  4.99212  232  -4.8  100   -4.8  0     0     981.5    NA       0.0000   9999     560   0     0    
2019/07/21  03:03:00  BASE  2.16384  255  4.99212  232  -4.8  100   -4.8  0     0     981.5    NA       0.0000   9999     620   0     0    
2019/07/21  03:04:00  BASE  2.1168   242  4.99212  232  -4.8  100   -4.8  0     0     981.5    NA       0.0000   9999     620   0     0    
2019/07/21  03:05:00  BASE  2.04036  210  4.41588  228  -4.8  100   -4.8  0     0     981.5    NA       0.0000   9999     590   0     0    
2019/07/21  03:06:00  BASE  2.41668  198  3.90432  229  -4.8  100   -4.8  0     0     981.5    NA       0.0000   9999     460   0     0    
2019/07/21  03:07:00  BASE  2.8518   201  3.56916  202  -4.8  100   -4.8  0     0     981.5    NA       0.0000   9999     660   0     0    
2019/07/21  03:08:00  BASE  2.83416  196  3.56916  202  -4.8  100   -4.8  0     0     981.5    NA       0.0000   9999     460   0     0    
2019/07/21  03:09:00  BASE  2.82828  196  3.56916  202  -4.8  100   -4.8  0     0     981.4    NA       0.0000   9999     490   0     0    
2019/07/21  03:10:00  BASE  2.68716  225  3.56916  202  -4.7  100   -4.7  0     0     981.5    NA       0.0000   9999     560   0     0    
2019/07/21  03:11:00  BASE  2.26968  244  3.56916  202  -4.7  100   -4.7  0     0     981.5    NA       0.0000   9999     560   0     0    
2019/07/21  03:12:00  BASE  1.95216  248  3.56916  202  -4.7  100   -4.7  0     0     981.5    NA       0.0000   9999     560   0     0    
2019/07/21  03:13:00  BASE  1.86396  250  3.56916  202  -4.8  100   -4.8  0     0     981.5    NA       0.0000   9999     490   0     0    
2019/07/21  03:14:00  BASE  1.69932  246  3.56916  202  -4.8  100   -4.8  0     0     981.5    NA       0.0000   9999     390   0     0    
2019/07/21  03:15:00  BASE  1.34064  249  3.56916  202  -4.8  100   -4.8  0     0     981.5    NA       0.0000   9999     360   0     0    
2019/07/21  03:16:00  BASE  1.06428  244  3.56916  202  -4.8  100   -4.8  0     0     981.5    NA       0.0000   9000     360   0     0    
2019/07/21  03:17:00  BASE  0.86436  234  3.44568  193  -4.8  100   -4.8  0     0     981.5    NA       0.0000   7000     330   0     0    
2019/07/21  03:18:00  BASE  1.09368  234  3.26928  256  -4.8  100   -4.8  0     0     981.5    NA       0.0000   BR       6000  330   0    
2019/07/21  03:19:00  BASE  1.29948  239  3.26928  256  -4.8  100   -4.8  0     0     981.4    NA       0.0000   BR       6000  300   0    
2019/07/21  03:20:00  BASE  1.34652  241  2.45196  244  -4.8  100   -4.8  0     0     981.4    NA       0.0000   BR       6000  300   0    
2019/07/21  03:21:00  BASE  1.5876   237  2.21088  249  -4.8  100   -4.8  0     0     981.4    NA       0.0000   BR       6000  330   0    
2019/07/21  03:22:00  BASE  1.53468  235  2.21088  249  -4.8  100   -4.8  0     0     981.4    NA       0.0000   BR       8000  390   0    
2019/07/21  03:23:00  BASE  1.45236  236  2.1462   246  -4.8  100   -4.8  0     0     981.4    NA       0.0000   BR       8000  390   0    
2019/07/21  03:24:00  BASE  1.89336  232  2.63424  229  -4.8  100   -4.8  0     0     981.4    NA       0.0000   BR       9000  390   0    
2019/07/21  03:25:00  BASE  2.25792  227  2.63424  229  -4.8  100   -4.8  0     0     981.4    NA       0.0000   BR       8000  360   0    
2019/07/21  03:26:00  BASE  2.8224   230  4.75104  240  -4.7  100   -4.7  0     0     981.3    NA       0.0000   BR       9999  390   0    
2019/07/21  03:27:00  BASE  3.61032  236  4.75104  240  -4.7  100   -4.7  0     0     981.3    NA       0.0000   BR       9999  430   0    
2019/07/21  03:28:00  BASE  3.99252  240  4.75104  240  -4.7  100   -4.7  0     0     981.2    NA       0.0000   BR       9999  430   0    
2019/07/21  03:29:00  BASE  4.2336   240  4.99212  242  -4.7  100   -4.7  0     0     981.2    NA       0.0000   BR       9999  360   0    
2019/07/21  03:30:00  BASE  4.11012  243  4.99212  242  -4.7  100   -4.7  0     0     981.2    NA       0.0000   BR       9000  330   0    
2019/07/21  03:31:00  BASE  3.85728  248  4.99212  242  -4.7  100   -4.7  0     0     981.2    NA       0.0000   BR       8000  300   0    
2019/07/21  03:32:00  BASE  3.72204  250  4.99212  242  -4.7  100   -4.7  0     0     981.3    NA       0.0000   9999     330   0     0    
2019/07/21  03:33:00  BASE  3.71616  254  4.99212  242  -4.7  100   -4.7  0     0     981.3    NA       0.0000   9999     390   0     0    
2019/07/21  03:34:00  BASE  4.11012  255  4.99212  242  -4.8  100   -4.8  0     0     981.3    NA       0.0000   9999     300   0     0    
2019/07/21  03:35:00  BASE  3.97488  251  4.99212  242  -4.8  100   -4.8  0     0     981.3    NA       0.0000   9999     360   0     0    
2019/07/21  03:36:00  BASE  3.234    252  4.99212  242  -4.7  100   -4.7  0     0     981.2    NA       0.0000   9999     390   0     0    
2019/07/21  03:37:00  BASE  3.51036  232  4.99212  242  -4.7  100   -4.7  0     0     981.2    NA       0.0000   9999     390   0     0    
2019/07/21  03:38:00  BASE  4.41     209  5.2332   205  -4.7  100   -4.7  0     0     981.2    NA       0.0000   9999     430   0     0    
2019/07/21  03:39:00  BASE  4.7628   205  5.41548  205  -4.7  100   -4.7  0     0     981.2    NA       0.0000   9999     390   0     0    
2019/07/21  03:40:00  BASE  4.9686   206  5.99172  207  -4.7  100   -4.7  0     0     981.2    NA       0.0000   9999     430   1180  0    
2019/07/21  03:41:00  BASE  4.9098   212  5.99172  207  -4.7  100   -4.7  0     0     981.2    NA       0.0000   9999     360   0     0    
2019/07/21  03:42:00  BASE  4.8804   214  5.99172  207  -4.7  100   -4.7  0     0     981.3    NA       0.0000   9999     460   0     0    
2019/07/21  03:43:00  BASE  5.06268  215  5.99172  207  -4.7  100   -4.7  0     0     981.3    NA       0.0000   9999     460   0     0    
2019/07/21  03:44:00  BASE  5.10384  218  5.99172  207  -4.8  100   -4.8  0     0     981.3    NA       0.0000   9999     460   0     0    
2019/07/21  03:45:00  BASE  5.43312  220  5.99172  207  -4.8  100   -4.8  0     0     981.3    NA       0.0000   9999     430   0     0    
2019/07/21  03:46:00  BASE  5.3802   221  5.99172  207  -4.8  100   -4.8  0     0     981.3    NA       0.0000   9999     430   0     0    
2019/07/21  03:47:00  BASE  4.73928  226  5.99172  207  -4.9  100   -4.9  0     0     981.3    NA       0.0000   9999     590   0     0    
2019/07/21  03:48:00  BASE  4.28064  227  5.99172  207  -4.9  100   -4.9  0     0     981.3    NA       0.0000   9999     390   0     0    
2019/07/21  03:49:00  BASE  4.15128  224  5.99172  207  -4.8  100   -4.8  0     0     981.4    NA       0.0000   9999     390   0     0    
2019/07/21  03:50:00  BASE  4.16304  227  5.92704  220  -4.8  100   -4.8  0     0     981.4    NA       0.0000   9999     390   0     0    
2019/07/21  03:51:00  BASE  4.29828  225  5.92704  220  -4.8  100   -4.8  0     0     981.4    NA       0.0000   9999     390   0     0    
2019/07/21  03:52:00  BASE  4.23948  220  5.92704  220  -4.8  100   -4.8  0     0     981.4    NA       0.0000   9000     360   0     0    
2019/07/21  03:53:00  BASE  3.68676  212  5.92704  220  -4.8  100   -4.8  0     0     981.4    NA       0.0000   9999     390   0     0    
2019/07/21  03:54:00  BASE  3.51036  207  5.92704  220  -4.8  100   -4.8  0     0     981.4    NA       0.0000   9999     430   0     0    
2019/07/21  03:55:00  BASE  3.78084  210  5.41548  215  -4.8  100   -4.8  0     0     981.4    NA       0.0000   9999     430   0     0    
2019/07/21  03:56:00  BASE  3.78672  206  4.93332  235  -4.8  100   -4.8  0     0     981.4    NA       0.0000   9999     520   0     0    
2019/07/21  03:57:00  BASE  3.96312  202  4.86864  208  -4.8  100   -4.8  0     0     981.4    NA       0.0000   9999     460   0     0    
2019/07/21  03:58:00  BASE  4.36296  205  4.89804  207  -4.8  100   -4.8  0     0     981.4    NA       0.0000   9999     390   0     0    
2019/07/21  03:59:00  BASE  4.25712  202  4.89804  207  -4.8  100   -4.8  0     0     981.4    NA       0.0000   9999     390   0     0    
2019/07/21  04:00:00  BASE  3.72204  203  4.89804  207  -4.8  100   -4.8  0     0     981.4    NA       0.0000   8000     390   0     0    
2019/07/21  04:01:00  BASE  3.34572  209  4.89804  207  -4.8  100   -4.8  0     0     981.4    NA       0.0000   9999     590   0     0    
2019/07/21  04:02:00  BASE  3.69264  206  4.89804  207  -4.8  100   -4.8  0     0     981.4    NA       0.0000   9999     690   0     0    
2019/07/21  04:03:00  BASE  4.23948  202  4.89804  207  -4.8  100   -4.8  0     0     981.4    NA       0.0000   9999     490   0     0    
2019/07/21  04:04:00  BASE  4.46292  204  4.93332  211  -4.8  100   -4.8  0     0     981.4    NA       0.0000   9999     490   0     0    
2019/07/21  04:05:00  BASE  4.41588  211  4.93332  211  -4.8  100   -4.8  0     0     981.4    NA       0.0000   9999     460   0     0    
2019/07/21  04:06:00  BASE  4.1748   217  4.93332  211  -4.9  100   -4.9  0     0     981.4    NA       0.0000   9999     620   0     0    
2019/07/21  04:07:00  BASE  3.99252  223  4.93332  211  -4.9  100   -4.9  0     0     981.4    NA       0.0000   9999     590   0     0    
2019/07/21  04:08:00  BASE  3.92784  227  4.93332  211  -4.9  100   -4.9  0     0     981.4    NA       0.0000   9999     590   0     0    
2019/07/21  04:09:00  BASE  4.08072  221  4.93332  211  -4.9  100   -5.0  0     0     981.4    NA       0.0000   9999     720   0     0    
2019/07/21  04:10:00  BASE  3.78672  213  4.93332  211  -5.0  100   -5.0  0     0     981.4    NA       0.0000   9999     620   0     0    
2019/07/21  04:11:00  BASE  2.99292  215  4.93332  211  -5.0  100   -5.0  0     0     981.4    NA       0.0000   9999     590   0     0    
2019/07/21  04:12:00  BASE  2.57544  224  4.93332  211  -5.0  100   -5.0  0     0     981.4    NA       0.0000   9999     750   0     0    
2019/07/21  04:13:00  BASE  3.08112  230  4.93332  211  -5.0  100   -5.0  0     0     981.4    NA       0.0000   9999     490   0     0    
2019/07/21  04:14:00  BASE  3.77496  229  4.59816  214  -5.0  100   -5.0  0     0     981.4    NA       0.0000   9999     430   0     0    
2019/07/21  04:15:00  BASE  3.65148  231  4.53936  214  -4.9  100   -4.9  0     0     981.4    NA       0.0000   9999     430   0     0    
2019/07/21  04:16:00  BASE  3.07524  233  4.35708  202  -4.9  100   -4.9  0     0     981.4    NA       0.0000   9999     390   0     0    
2019/07/21  04:17:00  BASE  2.63424  231  4.35708  202  -4.9  100   -4.9  0     0     981.4    NA       0.0000   9000     360   0     0    
2019/07/21  04:18:00  BASE  2.37552  230  4.35708  202  -4.9  100   -4.9  0     0     981.4    NA       0.0000   9999     430   0     0    
2019/07/21  04:19:00  BASE  2.30496  235  4.35708  202  -4.9  100   -4.9  0     0     981.4    NA       0.0000   9999     620   0     0    
2019/07/21  04:20:00  BASE  2.2932   237  4.2042   226  -4.9  100   -4.9  0     0     981.4    NA       0.0000   9999     560   0     0    
2019/07/21  04:21:00  BASE  2.16384  235  4.2042   226  -4.9  100   -4.9  0     0     981.4    NA       0.0000   9999     390   0     0    
2019/07/21  04:22:00  BASE  2.05212  238  4.2042   226  -4.9  100   -4.9  0     0     981.4    NA       0.0000   9999     430   0     0    
2019/07/21  04:23:00  BASE  2.1168   241  4.116    229  -4.9  100   -4.9  0     0     981.4    NA       0.0000   9999     330   0     0    
2019/07/21  04:24:00  BASE  2.10504  244  3.75144  230  -4.9  100   -4.9  0     0     981.4    NA       0.0000   7000     360   0     0    
2019/07/21  04:25:00  BASE  2.19324  250  2.96352  232  -4.9  100   -4.9  0     0     981.4    NA       0.0000   9999     360   0     0    
2019/07/21  04:26:00  BASE  2.29908  250  2.75184  242  -5.0  100   -5.0  0     0     981.4    NA       0.0000   9999     360   0     0    
2019/07/21  04:27:01  BASE  1.94628  249  2.69304  241  -5.0  100   -5.0  0     0     981.4    NA       0.0000   9999     360   0     0    
2019/07/21  04:28:00  BASE  1.77576  249  2.69304  241  -5.0  100   -5.0  0     0     981.4    NA       0.0000   9999     430   0     0    
2019/07/21  04:29:00  BASE  2.01096  247  2.72244  235  -5.0  100   -5.0  0     0     981.4    NA       0.0000   9999     430   0     0    
2019/07/21  04:30:00  BASE  2.2344   241  2.81064  236  -5.0  100   -5.0  0     0     981.4    NA       0.0000   9999     430   0     0    
2019/07/21  04:31:00  BASE  2.40492  238  3.02232  230  -5.0  100   -5.0  0     0     981.4    NA       0.0000   9999     360   0     0    
2019/07/21  04:32:00  BASE  2.60484  241  3.02232  230  -4.9  100   -4.9  0     0     981.4    NA       0.0000   9999     360   0     0    
2019/07/21  04:33:00  BASE  2.57544  244  3.02232  230  -4.9  100   -4.9  0     0     981.4    NA       0.0000   9999     390   0     0    
2019/07/21  04:34:00  BASE  2.41668  243  3.02232  230  -4.9  100   -4.9  0     0     981.4    NA       0.0000   9999     660   0     0    
2019/07/21  04:35:00  BASE  2.84592  232  3.78084  207  -4.9  100   -4.9  0     0     981.4    NA       0.0000   9999     790   0     0    
2019/07/21  04:36:00  BASE  3.7632   223  4.50996  219  -4.9  100   -4.9  0     0     981.4    NA       0.0000   9999     750   0     0    
2019/07/21  04:37:00  BASE  4.16892  221  4.50996  219  -4.9  100   -4.9  0     0     981.4    NA       0.0000   9999     720   1410  0    
2019/07/21  04:38:00  BASE  4.12776  217  4.59816  217  -4.9  100   -4.9  0     0     981.4    NA       0.0000   9999     460   0     0    
2019/07/21  04:39:00  BASE  4.23948  219  4.78044  221  -4.9  100   -4.9  0     0     981.3    NA       0.0000   9999     360   1050  0    
2019/07/21  04:40:00  BASE  4.06308  216  4.78044  221  -4.9  100   -4.9  0     0     981.4    NA       0.0000   9999     360   0     0    
2019/07/21  04:41:00  BASE  3.78672  208  4.78044  221  -4.9  100   -4.9  0     0     981.3    NA       0.0000   9999     390   0     0    
2019/07/21  04:42:01  BASE  3.78084  212  4.78044  221  -4.9  100   -4.9  0     0     981.4    NA       0.0000   9999     430   0     0    
2019/07/21  04:43:00  BASE  3.71028  221  4.78044  221  -4.9  100   -4.9  0     0     981.3    NA       0.0000   9999     560   0     0    
2019/07/21  04:44:00  BASE  3.63384  217  4.78044  221  -4.9  100   -4.9  0     0     981.3    NA       0.0000   9999     750   0     0    
2019/07/21  04:45:00  BASE  3.65148  214  4.78044  221  -4.9  100   -4.9  0     0     981.3    NA       0.0000   9999     660   0     0    
2019/07/21  04:46:00  BASE  3.86904  213  4.78044  221  -4.9  100   -4.9  0     0     981.3    NA       0.0000   9999     360   0     0    
2019/07/21  04:47:00  BASE  4.01604  211  4.78044  221  -4.9  100   -4.9  0     0     981.3    NA       0.0000   9999     460   1210  0    
2019/07/21  04:48:00  BASE  3.71028  206  4.78044  221  -4.9  100   -4.9  0     0     981.2    NA       0.0000   9999     560   0     0    
2019/07/21  04:49:00  BASE  3.39864  206  4.56876  214  -4.9  100   -4.9  0     0     981.2    NA       0.0000   9999     790   0     0    
2019/07/21  04:50:00  BASE  3.15756  211  4.56876  214  -4.9  100   -4.9  0     0     981.2    NA       0.0000   9999     890   0     0    
2019/07/21  04:51:00  BASE  3.06348  213  4.56876  214  -4.9  100   -4.9  0     0     981.2    NA       0.0000   9999     1080  0     0    
2019/07/21  04:52:00  BASE  3.40452  218  4.56876  214  -4.9  100   -4.9  0     0     981.2    NA       0.0000   9999     1210  0     0    
2019/07/21  04:53:00  BASE  3.13404  221  4.56876  214  -4.9  100   -4.9  0     0     981.2    NA       0.0000   9999     1180  0     0    
2019/07/21  04:54:00  BASE  2.57544  222  4.56876  214  -5.0  100   -5.0  0     0     981.2    NA       0.0000   9999     1020  0     0    
2019/07/21  04:55:00  BASE  2.3226   223  4.41588  209  -5.0  100   -5.0  0     0     981.2    NA       0.0000   9999     1050  0     0    
2019/07/21  04:56:00  BASE  1.95804  223  4.29828  209  -5.0  100   -5.0  0     0     981.2    NA       0.0000   9999     1080  0     0    
2019/07/21  04:57:00  BASE  1.94628  221  4.116    223  -5.0  100   -5.0  0     0     981.2    NA       0.0000   9999     820   0     0    
2019/07/21  04:58:00  BASE  2.02272  221  4.116    223  -5.0  100   -5.0  0     0     981.2    NA       0.0000   9999     750   0     0    
2019/07/21  04:59:00  BASE  2.03448  217  4.116    223  -5.0  100   -5.0  0     0     981.2    NA       0.0000   9999     660   0     0    
2019/07/21  05:00:00  BASE  2.19324  211  4.116    223  -5.0  100   -5.0  0     0     981.2    NA       0.0000   9999     520   0     0    
2019/07/21  05:01:00  BASE  2.29908  214  4.116    223  -5.0  100   -5.0  0     0     981.2    NA       0.0000   9999     360   0     0    
2019/07/21  05:02:00  BASE  2.27556  213  3.087    223  -4.9  100   -4.9  0     0     981.2    NA       0.0000   9000     360   0     0    
2019/07/21  05:03:00  BASE  2.1168   207  2.78124  225  -4.9  100   -4.9  0     0     981.2    NA       0.0000   8000     360   0     0    
2019/07/21  05:04:00  BASE  1.86396  201  2.59896  213  -4.9  100   -4.9  0     0     981.2    NA       0.0000   8000     390   0     0    
2019/07/21  05:05:00  BASE  1.68168  199  2.59896  213  -4.9  100   -4.9  0     0     981.2    NA       0.0000   7000     390   0     0    
2019/07/21  05:06:00  BASE  1.65228  197  2.59896  213  -4.9  100   -4.9  0     0     981.2    NA       0.0000   6000     360   0     0    
2019/07/21  05:07:00  BASE  1.55232  196  2.59896  213  -4.9  100   -4.9  0     0     981.2    NA       0.0000   BR       5000  360   0    
2019/07/21  05:08:00  BASE  1.46412  196  2.59896  213  -4.9  100   -4.9  0     0     981.2    NA       0.0000   BR       5000  390   0    
2019/07/21  05:09:00  BASE  1.45236  199  2.59896  213  -4.9  100   -4.9  0     0     981.2    NA       0.0000   BR       5000  390   0    
2019/07/21  05:10:00  BASE  1.32888  200  2.59896  213  -4.9  100   -4.9  0     0     981.2    NA       0.0000   BR       4700  300   0    
2019/07/21  05:11:00  BASE  1.39356  196  2.32848  212  -4.9  100   -4.9  0     0     981.2    NA       0.0000   BR       3500  230   0    
2019/07/21  05:12:00  BASE  1.77576  192  2.56956  177  -4.9  100   -4.9  0     0     981.2    NA       0.0000   -SN      BR    2800  360  
2019/07/21  05:13:00  BASE  2.09916  192  2.56956  177  -4.9  100   -4.9  0     0     981.2    NA       0.0000   -SN      BR    2900  360  
2019/07/21  05:14:00  BASE  2.5872   187  3.38688  177  -4.8  100   -4.8  0     0     981.2    NA       0.0000   -SN      BR    3200  460  
2019/07/21  05:15:00  BASE  3.21048  176  3.81024  173  -4.8  100   -4.8  0     0     981.2    NA       0.0000   -SN      BR    4100  460  
2019/07/21  05:16:00  BASE  3.65148  171  4.2336   172  -4.8  100   -4.8  0     0     981.1    NA       0.0000   -SN      BR    5000  430  
2019/07/21  05:17:00  BASE  3.7338   171  4.2336   172  -4.8  100   -4.8  0     0     981.1    NA       0.0000   -SN      BR    7000  430  
2019/07/21  05:18:00  BASE  3.22224  171  4.2336   172  -4.9  100   -4.9  0     0     981.1    NA       0.0000   -SN      BR    8000  390  
2019/07/21  05:19:00  BASE  2.65776  175  4.2336   172  -4.9  100   -4.9  0     0     981.1    NA       0.0000   -SN      BR    6000  430  
2019/07/21  05:20:00  BASE  2.60484  186  4.2336   172  -4.9  100   -4.9  0     0     981.0    NA       0.0000   -SN      BR    5000  390  
2019/07/21  05:21:00  BASE  2.5284   191  4.2336   172  -4.9  100   -4.9  0     0     981.1    NA       0.0000   -SN      BR    3100  330  
2019/07/21  05:22:00  BASE  2.22264  185  4.2336   172  -4.9  100   -4.9  0     0     981.0    NA       0.0000   -SN      BR    2400  330  
2019/07/21  05:23:00  BASE  2.42844  187  4.2336   172  -4.9  100   -4.9  0     0     981.1    NA       0.0000   -SN      BR    2400  360  
2019/07/21  05:24:00  BASE  2.45784  198  4.2336   172  -4.9  100   -4.9  0     0     981.1    NA       0.0000   -SN      BR    2500  390  
2019/07/21  05:25:00  BASE  2.08152  205  4.2336   172  -5.0  100   -5.0  0     0     981.1    NA       0.0000   -SN      BR    3200  1080 
2019/07/21  05:26:00  BASE  2.0286   207  4.1454   173  -5.0  100   -5.0  0     0     981.1    NA       0.0000   -SN      BR    4200  690  
2019/07/21  05:27:00  BASE  2.14032  201  3.32808  168  -5.0  100   -5.0  0     0     981.1    NA       0.0000   -SN      BR    5000  850  
2019/07/21  05:28:00  BASE  2.22264  187  3.087    201  -5.1  100   -5.1  0     0     981.1    NA       0.0000   -SN      BR    7000  890  
2019/07/21  05:29:00  BASE  2.12268  178  3.087    201  -5.1  100   -5.1  0     0     981.0    NA       0.0000   -SN      BR    9000  980  
2019/07/21  05:30:00  BASE  1.9992   181  2.93412  207  -5.1  100   -5.1  0     0     981.0    NA       0.0000   -SN      BR    9999  1050 
2019/07/21  05:31:00  BASE  2.04036  189  2.93412  207  -5.2  100   -5.2  0     0     981.1    NA       0.0000   BR       9999  1180  0    
2019/07/21  05:32:00  BASE  2.058    187  2.93412  207  -5.2  100   -5.2  0     0     981.1    NA       0.0000   BR       9999  1120  0    
2019/07/21  05:33:00  BASE  1.98156  189  2.75184  195  -5.3  100   -5.3  0     0     981.1    NA       0.0000   BR       9999  0     0    
2019/07/21  05:34:00  BASE  1.95804  193  2.75184  195  -5.3  100   -5.3  0     0     981.1    NA       0.0000   BR       9999  1150  0    
2019/07/21  05:35:00  BASE  2.04624  192  2.75184  195  -5.3  100   -5.3  0     0     981.1    NA       0.0000   BR       9999  1080  0    
2019/07/21  05:36:00  BASE  2.42256  198  3.02232  218  -5.3  100   -5.3  0     0     981.1    NA       0.0000   9999     850   0     0    
2019/07/21  05:37:00  BASE  2.65776  204  3.02232  218  -5.2  100   -5.2  0     0     981.0    NA       0.0000   9999     1020  1800  0    
2019/07/21  05:38:00  BASE  2.46372  205  3.02232  218  -5.2  100   -5.2  0     0     981.0    NA       0.0000   9999     750   0     0    
2019/07/21  05:39:00  BASE  2.18148  202  3.02232  218  -5.2  100   -5.2  0     0     981.1    NA       0.0000   9999     690   1480  0    
2019/07/21  05:40:00  BASE  2.01684  201  3.02232  218  -5.2  100   -5.2  0     0     981.2    NA       0.0000   9999     660   0     0    
2019/07/21  05:41:00  BASE  1.95804  198  3.02232  218  -5.1  100   -5.1  0     0     981.2    NA       0.0000   9999     1180  0     0    
2019/07/21  05:42:00  BASE  1.84044  195  3.02232  218  -5.1  100   -5.1  0     0     981.2    NA       0.0000   9999     1020  0     0    
2019/07/21  05:43:00  BASE  1.61112  199  3.02232  218  -5.1  100   -5.1  0     0     981.2    NA       0.0000   9999     1020  0     0    
2019/07/21  05:44:00  BASE  1.41708  200  3.02232  218  -5.1  100   -5.1  0     0     981.2    NA       0.0000   9999     690   1480  0    
2019/07/21  05:45:00  BASE  1.28184  192  3.02232  218  -5.1  100   -5.1  0     0     981.2    NA       0.0000   9999     620   0     0    
2019/07/21  05:46:00  BASE  1.18776  186  2.72244  210  -5.1  100   -5.1  0     0     981.2    NA       0.0000   9999     660   0     0    
2019/07/21  05:47:00  BASE  1.27008  178  2.56956  201  -5.2  100   -5.2  0     0     981.2    NA       0.0000   9999     660   0     0    
2019/07/21  05:48:00  BASE  1.31712  172  2.29908  209  -5.2  100   -5.2  0     0     981.2    NA       0.0000   9999     430   1150  0    
2019/07/21  05:49:00  BASE  1.29948  167  2.24028  197  -5.2  100   -5.2  0     0     981.2    NA       0.0000   9999     430   0     0    
2019/07/21  05:50:00  BASE  1.31124  164  2.1168   198  -5.2  100   -5.2  0     0     981.2    NA       0.0000   9999     390   0     0    
2019/07/21  05:51:00  BASE  1.22892  165  1.87572  197  -5.2  100   -5.2  0     0     981.2    NA       0.0000   6000     300   0     0    
2019/07/21  05:52:00  BASE  1.05252  170  1.75224  203  -5.2  100   -5.2  0     0     981.2    NA       0.0000   5000     300   0     0    
2019/07/21  05:53:00  BASE  0.9996   174  1.51116  164  -5.2  100   -5.2  0     0     981.2    NA       0.0000   6000     330   0     0    
2019/07/21  05:54:00  BASE  0.93492  173  1.51116  164  -5.2  100   -5.2  0     0     981.2    NA       0.0000   BR       7000  360   0    
2019/07/21  05:55:00  BASE  0.84672  172  1.51116  164  -5.2  100   -5.2  0     0     981.2    NA       0.0000   BR       9000  390   1310 
2019/07/21  05:56:00  BASE  0.7938   169  1.51116  164  -5.2  100   -5.2  0     0     981.2    NA       0.0000   BR       9999  720   1380 
2019/07/21  05:57:00  BASE  0.69384  164  1.51116  164  -5.2  100   -5.2  0     0     981.2    NA       0.0000   BR       9999  790   0    
2019/07/21  05:58:00  BASE  0.69972  161  1.51116  164  -5.2  100   -5.2  0     0     981.2    NA       0.0000   BR       9999  520   0    
2019/07/21  05:59:00  BASE  0.7644   164  1.51116  164  -5.2  100   -5.2  0     0     981.2    NA       0.0000   BR       9999  430   0    
2019/07/21  06:00:00  BASE  0.62916  170  1.29948  164  -5.2  100   -5.2  0     0     981.2    NA       0.0000   BR       9999  360   0    
2019/07/21  06:01:00  BASE  0.22932  167  1.27008  179  -5.2  100   -5.2  0     0     981.2    NA       0.0000   BR       8000  300   0    
2019/07/21  06:02:00  BASE  0.07644  158  1.27008  179  -5.2  100   -5.2  0     0     981.2    NA       0.0000   BR       5000  330   0    
2019/07/21  06:03:00  BASE  0.2352   150  0.9702   173  -5.2  100   -5.2  0     0     981.2    NA       0.0000   BR       6000  330   0    
2019/07/21  06:04:00  BASE  0.31752  142  0.9702   173  -5.2  100   -5.2  0     0     981.2    NA       0.0000   BR       6000  430   0    
2019/07/21  06:05:00  BASE  0.588    142  0.9702   143  -5.2  100   -5.2  0     0     981.2    NA       0.0000   BR       6000  460   0    
2019/07/21  06:06:00  BASE  0.80556  144  0.9702   143  -5.2  100   -5.2  0     0     981.2    NA       0.0000   BR       8000  390   0    
2019/07/21  06:07:00  BASE  0.6762   143  0.9702   143  -5.2  100   -5.2  0     0     981.2    NA       0.0000   BR       9999  360   0    
2019/07/21  06:08:00  BASE  0.735    148  1.0584   158  -5.2  100   -5.2  0     0     981.2    NA       0.0000   BR       9000  330   0    
2019/07/21  06:09:00  BASE  0.84084  149  1.0584   158  -5.2  100   -5.2  0     0     981.2    NA       0.0000   BR       7000  330   0    
2019/07/21  06:10:00  BASE  0.79968  140  1.0584   158  -5.2  100   -5.2  0     0     981.2    NA       0.0000   BR       6000  330   0    
2019/07/21  06:11:00  BASE  0.87024  143  1.1466   160  -5.2  100   -5.2  0     0     981.2    NA       0.0000   BR       5000  360   0    
2019/07/21  06:12:00  BASE  0.75852  151  1.1466   160  -5.2  100   -5.2  0     0     981.1    NA       0.0000   BR       6000  390   0    
2019/07/21  06:13:00  BASE  0.65856  146  1.1466   160  -5.2  100   -5.2  0     0     981.0    NA       0.0000   BR       7000  360   0    
2019/07/21  06:14:00  BASE  0.57036  147  1.1466   160  -5.2  100   -5.2  0     0     981.0    NA       0.0000   BR       6000  330   0    
2019/07/21  06:15:00  BASE  0.19404  161  1.1466   160  -5.2  100   -5.2  0     0     981.0    NA       0.0000   BR       5000  300   0    
2019/07/21  06:16:00  BASE  0.09996  157  1.1466   160  -5.2  100   -5.2  0     0     981.0    NA       0.0000   BR       5000  330   0    
2019/07/21  06:17:00  BASE  0.09996  147  1.1466   160  -5.2  100   -5.2  0     0     981.0    NA       0.0000   BR       6000  300   0    
2019/07/21  06:18:00  BASE  0        157  1.1466   160  -5.2  100   -5.2  0     0     981.0    NA       0.0000   BR       5000  260   0    
2019/07/21  06:19:00  BASE  0        159  1.1466   160  -5.2  100   -5.2  0     0     981.0    NA       0.0000   BR       4100  230   0    
2019/07/21  06:20:00  BASE  0        158  1.1466   160  -5.2  100   -5.2  0     0     981.0    NA       0.0000   BR       3900  230   0    
2019/07/21  06:21:00  BASE  0.0294   162  0.84672  144  -5.2  100   -5.2  0     0     981.0    NA       0.0000   BR       4000  230   0    
2019/07/21  06:22:00  BASE  0.24696  164  0.84672  144  -5.2  100   -5.2  0     0     981.0    NA       0.0000   BR       3600  0     0    
2019/07/21  06:23:00  BASE  0.6762   178  1.35828  189  -5.2  100   -5.2  0     0     981.0    NA       0.0000   BR       3000  0     0    
2019/07/21  06:24:00  BASE  1.06428  198  1.48176  193  -5.1  100   -5.1  0     0     981.0    NA       0.0000   -SN      BR    3200  260  
2019/07/21  06:25:00  BASE  1.03488  210  1.48176  193  -5.1  100   -5.1  0     0     981.0    NA       0.0000   -SN      BR    3300  260  
2019/07/21  06:26:00  BASE  0.71736  215  1.48176  193  -5.2  100   -5.2  0     0     981.0    NA       0.0000   -SN      BR    4000  300  
2019/07/21  06:27:00  BASE  0.294    219  1.48176  193  -5.2  100   -5.2  0     0     981.0    NA       0.0000   -SN      BR    4800  330  
2019/07/21  06:28:00  BASE  0.21756  191  1.48176  193  -5.2  100   -5.2  0     0     981.0    NA       0.0000   -SN      BR    6000  390  
2019/07/21  06:29:00  BASE  0.59976  176  1.48176  193  -5.2  100   -5.2  0     0     981.0    NA       0.0000   -SN      BR    7000  490  
2019/07/21  06:30:00  BASE  0.53508  166  1.48176  193  -5.2  100   -5.2  0     0     981.0    NA       0.0000   -SN      BR    9999  620  
2019/07/21  06:31:00  BASE  0.61152  149  1.48176  193  -5.2  100   -5.2  0     0     981.0    NA       0.0000   -SN      BR    9999  460  
2019/07/21  06:32:00  BASE  0.78792  158  1.48176  193  -5.2  100   -5.2  0     0     981.0    NA       0.0000   -SN      BR    9999  490  
2019/07/21  06:33:00  BASE  0.441    147  1.48176  193  -5.2  100   -5.2  0     0     981.0    NA       0.0000   BR       9999  460   0    
2019/07/21  06:34:00  BASE  0.51744  111  1.27008  137  -5.2  100   -5.2  0     0     981.0    NA       0.0000   BR       9999  390   0    
2019/07/21  06:35:00  BASE  0.59976  105  1.27008  137  -5.2  100   -5.2  0     0     981.0    NA       0.0000   BR       9999  620   0    
2019/07/21  06:36:00  BASE  0.19404  113  1.27008  137  -5.2  100   -5.2  0     0     981.0    NA       0.0000   9999     690   0     0    
2019/07/21  06:37:00  BASE  0.2352   105  1.27008  137  -5.3  100   -5.3  0     0     981.0    NA       0.0000   9999     590   0     0    
2019/07/21  06:38:00  BASE  0.2352   102  1.27008  137  -5.3  100   -5.3  0     0     980.9    NA       0.0000   9999     620   0     0    
2019/07/21  06:39:00  BASE  0        113  1.27008  137  -5.3  100   -5.3  0     0     980.9    NA       0.0000   9999     690   0     0    
2019/07/21  06:40:00  BASE  0        107  1.27008  137  -5.3  100   -5.3  0     0     980.9    NA       0.0000   9999     820   0     0    
2019/07/21  06:41:00  BASE  0        48   0.9702   103  -5.3  100   -5.3  0     0     980.9    NA       0.0000   9999     720   0     0    
2019/07/21  06:42:00  BASE  0        293  0.9702   103  -5.3  100   -5.3  0     0     980.9    NA       0.0000   9999     660   0     0    
2019/07/21  06:43:00  BASE  0.12348  272  0.9702   103  -5.3  100   -5.3  0     0     980.9    NA       0.0000   9999     720   0     0    
2019/07/21  06:44:00  BASE  0.78204  244  1.54056  210  -5.3  100   -5.3  0     0     980.9    NA       0.0000   9999     390   0     0    
2019/07/21  06:45:00  BASE  1.28184  204  1.57584  202  -5.3  100   -5.3  0     0     980.9    NA       0.0000   9999     360   0     0    
2019/07/21  06:46:00  BASE  0.8232   189  1.57584  202  -5.3  100   -5.3  0     0     980.9    NA       0.0000   9999     390   0     0    
2019/07/21  06:47:00  BASE  0.19992  196  1.57584  202  -5.3  100   -5.3  0     0     980.9    NA       0.0000   9999     360   0     0    
2019/07/21  06:48:00  BASE  0        169  1.57584  202  -5.3  100   -5.3  0     0     980.9    NA       0.0000   9999     330   0     0    
2019/07/21  06:49:00  BASE  0        109  1.57584  202  -5.3  100   -5.3  0     0     980.9    NA       0.0000   8000     330   0     0    
2019/07/21  06:50:00  BASE  0        99   1.57584  202  -5.3  100   -5.3  0     0     980.8    NA       0.0000   8000     360   0     0    
2019/07/21  06:51:00  BASE  0.07056  141  1.57584  202  -5.3  100   -5.3  0     0     980.9    NA       0.0000   9999     360   0     0    
2019/07/21  06:52:00  BASE  0.58212  208  1.57584  202  -5.3  100   -5.3  0     0     980.9    NA       0.0000   9000     300   0     0    
2019/07/21  06:53:00  BASE  1.27596  227  1.87572  222  -5.3  100   -5.3  0     0     980.9    NA       0.0000   9999     390   0     0    
2019/07/21  06:54:00  BASE  1.74636  229  2.21088  226  -5.3  100   -5.3  0     0     980.9    NA       0.0000   9999     390   0     0    
2019/07/21  06:55:00  BASE  2.05212  224  2.42256  223  -5.3  100   -5.3  0     0     980.9    NA       0.0000   9999     360   0     0    
2019/07/21  06:56:00  BASE  1.911    229  2.42256  223  -5.3  100   -5.3  0     0     980.9    NA       0.0000   9999     260   0     0    
2019/07/21  06:57:00  BASE  1.71696  235  2.42256  223  -5.3  100   -5.3  0     0     980.9    NA       0.0000   9999     230   0     0    
2019/07/21  06:58:00  BASE  1.71696  241  2.42256  223  -5.3  100   -5.3  0     0     980.9    NA       0.0000   9000     260   0     0    
2019/07/21  06:59:00  BASE  1.86396  244  2.42256  223  -5.3  100   -5.3  0     0     980.9    NA       0.0000   9999     260   0     0    
2019/07/21  07:00:00  BASE  2.07564  245  2.42256  223  -5.3  100   -5.3  0     0     980.9    NA       0.0000   9999     260   0     0    
2019/07/21  07:01:00  BASE  2.04036  251  2.42256  223  -5.2  100   -5.2  0     0     980.9    NA       0.0000   9999     330   0     0    
2019/07/21  07:02:00  BASE  2.04624  251  2.42256  245  -5.2  100   -5.2  0     0     980.9    NA       0.0000   9999     330   0     0    
2019/07/21  07:03:00  BASE  2.04624  242  2.42256  245  -5.2  100   -5.2  0     0     980.9    NA       0.0000   9999     560   0     0    
2019/07/21  07:04:00  BASE  1.84044  235  2.42256  245  -5.2  100   -5.2  0     0     980.9    NA       0.0000   9999     520   0     0    
2019/07/21  07:05:00  BASE  1.86396  216  2.42256  245  -5.2  100   -5.2  0     0     980.9    NA       0.0000   9999     390   0     0    
2019/07/21  07:06:00  BASE  2.01096  197  2.42256  245  -5.2  100   -5.2  0     0     980.9    NA       0.0000   8000     360   0     0    
2019/07/21  07:07:00  BASE  2.04036  199  2.42256  245  -5.2  100   -5.2  0     0     980.9    NA       0.0000   6000     300   0     0    
2019/07/21  07:08:00  BASE  1.89336  202  2.42256  245  -5.3  100   -5.3  0     0     980.9    NA       0.0000   8000     330   0     0    
2019/07/21  07:09:00  BASE  1.56408  199  2.42256  245  -5.3  100   -5.3  0     0     980.9    NA       0.0000   9999     490   0     0    
2019/07/21  07:10:00  BASE  1.62288  193  2.42256  245  -5.3  100   -5.3  0     0     980.9    NA       0.0000   9999     330   0     0    
2019/07/21  07:11:00  BASE  1.60524  191  2.42256  245  -5.3  100   -5.3  0     0     980.9    NA       0.0000   9999     330   0     0    
2019/07/21  07:12:00  BASE  1.35828  204  2.32848  197  -5.4  100   -5.4  0     0     980.9    NA       0.0000   9999     520   0     0    
2019/07/21  07:13:00  BASE  1.41708  213  2.32848  197  -5.3  100   -5.3  0     0     980.9    NA       0.0000   9999     590   0     0    
2019/07/21  07:14:00  BASE  1.86984  216  2.42256  211  -5.3  100   -5.3  0     0     980.9    NA       0.0000   9999     620   0     0    
2019/07/21  07:15:00  BASE  1.96392  224  2.42256  211  -5.3  100   -5.3  0     0     980.9    NA       0.0000   9999     620   1210  0    
2019/07/21  07:16:00  BASE  2.12268  221  2.72244  200  -5.3  100   -5.3  0     0     980.9    NA       0.0000   9999     560   1480  0    
2019/07/21  07:17:00  BASE  2.646    214  3.1752   211  -5.3  100   -5.3  0     0     980.9    NA       0.0000   9999     620   0     0    
2019/07/21  07:18:00  BASE  2.8518   211  3.1752   210  -5.3  100   -5.3  0     0     980.9    NA       0.0000   9999     620   0     0    
2019/07/21  07:19:00  BASE  2.92824  204  3.2046   203  -5.3  100   -5.3  0     0     980.9    NA       0.0000   9999     660   0     0    
2019/07/21  07:20:00  BASE  2.8812   198  3.2046   203  -5.3  100   -5.3  0     0     980.9    NA       0.0000   9999     590   1900  0    
2019/07/21  07:21:00  BASE  2.77536  195  3.2046   203  -5.4  100   -5.4  0     0     980.9    NA       0.0000   9999     590   2070  0    
2019/07/21  07:22:00  BASE  2.62836  201  3.2046   203  -5.4  100   -5.4  0     0     980.9    NA       0.0000   9999     0     0     0    
2019/07/21  07:23:00  BASE  2.66364  206  3.2046   203  -5.4  100   -5.4  0     0     980.9    NA       0.0000   9999     0     0     0    
2019/07/21  07:24:00  BASE  2.66364  204  3.2046   203  -5.5  100   -5.5  0     0     980.9    NA       0.0000   9999     1250  0     0    
2019/07/21  07:25:00  BASE  2.47548  207  3.2046   203  -5.5  100   -5.5  0     0     980.9    NA       0.0000   9999     360   0     0    
2019/07/21  07:26:00  BASE  2.38728  210  3.2046   203  -5.5  100   -5.5  0     0     980.9    NA       0.0000   9999     360   0     0    
2019/07/21  07:27:00  BASE  2.22852  212  3.2046   203  -5.5  100   -5.5  0     0     980.9    NA       0.0000   9000     300   0     0    
2019/07/21  07:28:00  BASE  2.12268  211  3.2046   203  -5.5  100   -5.5  0     0     981.0    NA       0.0000   6000     0     0     0    
2019/07/21  07:29:00  BASE  2.31084  205  3.02232  198  -5.5  100   -5.5  0     0     981.0    NA       0.0000   5000     0     0     0    
2019/07/21  07:30:00  BASE  2.34612  203  2.93412  203  -5.5  100   -5.5  0     0     981.0    NA       0.0000   BR       4700  0     0    
2019/07/21  07:31:00  BASE  2.18148  210  2.93412  203  -5.5  100   -5.5  0     0     981.0    NA       0.0000   BR       4500  200   0    
2019/07/21  07:32:00  BASE  1.98156  221  2.93412  203  -5.5  100   -5.5  0     0     981.0    NA       0.0000   BR       4500  230   0    
2019/07/21  07:33:00  BASE  2.44608  223  3.29868  220  -5.5  100   -5.5  0     0     981.0    NA       0.0000   BR       5000  230   0    
2019/07/21  07:34:00  BASE  3.16344  220  3.53976  220  -5.5  100   -5.5  0     0     980.9    NA       0.0000   BR       5000  230   0    
2019/07/21  07:35:00  BASE  3.16344  221  3.53976  220  -5.5  100   -5.5  0     0     980.9    NA       0.0000   BR       4300  0     0    
2019/07/21  07:36:00  BASE  2.95176  226  3.53976  220  -5.5  100   -5.5  0     0     980.9    NA       0.0000   BR       3400  0     0    
2019/07/21  07:37:00  BASE  2.89884  229  3.53976  220  -5.5  100   -5.5  0     0     980.9    NA       0.0000   BR       3400  0     0    
2019/07/21  07:38:00  BASE  3.01056  227  3.53976  220  -5.5  100   -5.5  0     0     980.9    NA       0.0000   BR       4000  0     0    
2019/07/21  07:39:00  BASE  2.94588  227  3.53976  220  -5.5  100   -5.5  0     0     980.9    NA       0.0000   BR       4700  0     0    
2019/07/21  07:40:00  BASE  2.61072  231  3.53976  220  -5.5  100   -5.5  0     0     980.9    NA       0.0000   BR       4900  0     0    
2019/07/21  07:41:00  BASE  2.40492  231  3.53976  220  -5.5  100   -5.5  0     0     980.9    NA       0.0000   BR       5000  0     0    
2019/07/21  07:42:00  BASE  2.3226   231  3.53976  220  -5.5  100   -5.5  0     0     980.9    NA       0.0000   BR       6000  0     0    
2019/07/21  07:43:00  BASE  2.0874   231  3.53976  220  -5.5  100   -5.5  0     0     980.9    NA       0.0000   BR       7000  0     0    
2019/07/21  07:44:00  BASE  1.96392  224  3.41628  227  -5.5  100   -5.5  0     0     980.9    NA       0.0000   BR       7000  200   0    
2019/07/21  07:45:00  BASE  1.99332  226  3.41628  227  -5.5  100   -5.5  0     0     980.9    NA       0.0000   BR       7000  230   0    
2019/07/21  07:46:00  BASE  2.12856  230  3.41628  227  -5.6  100   -5.6  0     0     980.9    NA       0.0000   BR       8000  260   0    
2019/07/21  07:47:00  BASE  2.18148  224  3.41628  227  -5.6  100   -5.6  0     0     980.9    NA       0.0000   BR       9999  260   0    
2019/07/21  07:48:00  BASE  1.96392  227  2.99292  235  -5.6  100   -5.6  0     0     980.9    NA       0.0000   BR       9999  260   0    
2019/07/21  07:49:00  BASE  1.90512  237  2.75184  226  -5.6  100   -5.6  0     0     980.9    NA       0.0000   BR       9999  260   0    
2019/07/21  07:50:00  BASE  1.68168  236  2.63424  228  -5.6  100   -5.6  0     0     980.9    NA       0.0000   BR       9999  260   0    
2019/07/21  07:51:00  BASE  1.53468  236  2.51076  227  -5.6  100   -5.6  0     0     980.9    NA       0.0000   BR       9999  300   0    
2019/07/21  07:52:00  BASE  1.55232  238  2.51076  227  -5.7  100   -5.7  0     0     980.9    NA       0.0000   BR       9999  300   0    
2019/07/21  07:53:00  BASE  1.41708  235  2.51076  227  -5.7  100   -5.7  0     0     981.0    NA       0.0000   9999     300   0     0    
2019/07/21  07:54:00  BASE  1.48764  232  2.51076  227  -5.7  100   -5.7  0     0     981.0    NA       0.0000   9999     300   0     0    
2019/07/21  07:55:00  BASE  1.6758   232  2.51076  227  -5.7  100   -5.7  0     0     981.0    NA       0.0000   7000     300   0     0    
2019/07/21  07:56:00  BASE  1.5876   234  2.29908  250  -5.7  100   -5.7  0     0     981.0    NA       0.0000   9999     360   0     0    
2019/07/21  07:57:00  BASE  1.62876  220  2.29908  250  -5.7  100   -5.7  0     0     981.0    NA       0.0000   9000     360   0     0    
2019/07/21  07:58:00  BASE  1.84044  205  2.29908  250  -5.7  100   -5.7  0     0     981.0    NA       0.0000   5000     260   0     0    
2019/07/21  07:59:00  BASE  2.06388  194  2.72244  178  -5.7  100   -5.7  0     0     981.0    NA       0.0000   BR       5000  260   0    
2019/07/21  08:00:00  BASE  2.16384  185  2.72244  178  -5.7  100   -5.7  0     0     981.0    NA       0.0000   BR       4600  230   0    
2019/07/21  08:01:00  BASE  2.058    182  2.72244  178  -5.7  100   -5.7  0     0     981.0    NA       0.0000   BR       4800  260   0    
2019/07/21  08:02:00  BASE  2.15208  178  2.72244  178  -5.7  100   -5.7  0     0     981.0    NA       0.0000   BR       7000  360   0    
2019/07/21  08:03:00  BASE  2.33436  176  2.72244  178  -5.8  100   -5.8  0     0     981.0    NA       0.0000   BR       9999  490   0    
2019/07/21  08:04:00  BASE  2.41668  179  2.75184  187  -5.8  100   -5.8  0     0     981.0    NA       0.0000   BR       9999  390   0    
2019/07/21  08:05:00  BASE  2.2932   182  2.75184  187  -5.8  100   -5.8  0     0     981.0    NA       0.0000   BR       9999  520   0    
2019/07/21  08:06:00  BASE  2.11092  187  2.75184  187  -5.8  100   -5.8  0     0     981.0    NA       0.0000   BR       9999  620   0    
2019/07/21  08:07:00  BASE  1.76988  199  2.75184  187  -5.8  100   -5.8  0     0     981.0    NA       0.0000   BR       9999  660   0    
2019/07/21  08:08:00  BASE  1.72284  207  2.75184  187  -5.8  100   -5.8  0     0     981.0    NA       0.0000   BR       9999  590   0    
2019/07/21  08:09:00  BASE  1.9404   211  2.75184  187  -5.8  100   -5.8  0     0     981.0    NA       0.0000   BR       9999  620   0    
2019/07/21  08:10:00  BASE  1.74048  214  2.75184  187  -5.8  100   -5.8  0     0     981.0    NA       0.0000   9999     490   0     0    
2019/07/21  08:11:00  BASE  1.48176  218  2.75184  187  -5.8  100   -5.8  0     0     981.0    NA       0.0000   9999     590   0     0    
2019/07/21  08:12:00  BASE  1.24656  224  2.75184  187  -5.8  100   -5.8  0     0     981.0    NA       0.0000   9999     590   0     0    
2019/07/21  08:13:00  BASE  0.92904  235  2.75184  187  -5.8  100   -5.8  0     0     981.0    NA       0.0000   9999     750   0     0    
2019/07/21  08:14:00  BASE  0.8526   240  2.42256  184  -5.8  100   -5.8  0     0     981.0    NA       0.0000   9999     590   0     0    
2019/07/21  08:15:00  BASE  0.68796  233  2.42256  184  -5.8  100   -5.8  0     0     981.0    NA       0.0000   9999     890   1840  0    
2019/07/21  08:16:00  BASE  0.27636  230  2.1756   222  -5.8  100   -5.8  0     0     981.0    NA       0.0000   9999     920   0     0    
2019/07/21  08:17:00  BASE  0.05292  233  2.1756   222  -5.8  100   -5.8  0     0     981.0    NA       0.0000   9999     750   0     0    
2019/07/21  08:18:00  BASE  0.0294   241  2.1756   222  -5.8  100   -5.8  0     0     981.0    NA       0.0000   9999     820   0     0    
2019/07/21  08:19:00  BASE  0        248  1.90512  221  -5.8  100   -5.8  0     0     981.0    NA       0.0000   9999     850   0     0    
2019/07/21  08:20:00  BASE  0        248  1.60524  214  -5.8  100   -5.8  0     0     981.0    NA       0.0000   9999     820   0     0    
2019/07/21  08:21:00  BASE  0        224  1.29948  223  -5.8  100   -5.8  0     0     981.0    NA       0.0000   9999     820   0     0    
2019/07/21  08:22:00  BASE  0        200  0.9702   241  -5.8  100   -5.8  0     0     981.0    NA       0.0000   9999     790   0     0    
2019/07/21  08:23:00  BASE  0        196  0.9702   241  -5.8  100   -5.8  0     0     981.0    NA       0.0000   9999     850   0     0    
2019/07/21  08:24:00  BASE  0        195  0.69384  230  -5.8  100   -5.8  0     0     981.0    NA       0.0000   9999     820   0     0    
2019/07/21  08:25:00  BASE  0        206  0.63504  231  -5.8  100   -5.8  0     0     981.0    NA       0.0000   9999     790   0     0    
2019/07/21  08:26:00  BASE  0.0294   212  0.75852  216  -5.8  100   -5.8  0     0     981.0    NA       0.0000   9999     660   0     0    
2019/07/21  08:27:00  BASE  0.53508  210  1.35828  208  -5.8  100   -5.8  0     0     981.0    NA       0.0000   9999     690   0     0    
2019/07/21  08:28:00  BASE  1.03488  215  1.51116  230  -5.8  100   -5.8  0     0     981.0    NA       0.0000   9999     460   0     0    
2019/07/21  08:29:00  BASE  1.31712  221  1.72284  215  -5.8  100   -5.8  0     0     981.0    NA       0.0000   9999     460   0     0    
2019/07/21  08:30:00  BASE  1.7346   216  2.0874   220  -5.8  100   -5.8  0     0     981.0    NA       0.0000   9999     460   0     0    
2019/07/21  08:31:00  BASE  1.95216  204  2.56956  202  -5.7  100   -5.7  0     0     981.0    NA       0.0000   9999     390   0     0    
2019/07/21  08:32:00  BASE  2.21676  202  2.69304  205  -5.7  100   -5.7  0     0     981.0    NA       0.0000   9999     390   0     0    
2019/07/21  08:33:00  BASE  2.26968  209  2.69304  205  -5.7  100   -5.7  0     0     981.0    NA       0.0000   9999     360   0     0    
2019/07/21  08:34:00  BASE  2.24028  216  2.81064  217  -5.7  100   -5.7  0     0     981.0    NA       0.0000   9999     330   0     0    
2019/07/21  08:35:00  BASE  2.22264  218  2.81064  217  -5.8  100   -5.8  0     0     981.0    NA       0.0000   9999     330   0     0    
2019/07/21  08:36:00  BASE  2.19324  218  2.81064  217  -5.8  100   -5.8  0     0     981.0    NA       0.0000   9999     300   0     0    
2019/07/21  08:37:00  BASE  2.78712  224  3.44568  230  -5.8  100   -5.8  0     0     981.0    NA       0.0000   9999     230   0     0    
2019/07/21  08:38:00  BASE  3.08112  228  3.44568  230  -5.8  100   -5.8  0     0     981.0    NA       0.0000   9999     230   0     0    
2019/07/21  08:39:00  BASE  2.98704  228  3.44568  230  -5.7  100   -5.7  0     0     981.0    NA       0.0000   9999     200   0     0    
2019/07/21  08:40:00  BASE  3.06936  226  3.48096  220  -5.8  100   -5.8  0     0     981.0    NA       0.0000   9999     230   0     0    
2019/07/21  08:41:00  BASE  2.95764  226  3.48096  220  -5.8  100   -5.8  0     0     981.0    NA       0.0000   9999     260   0     0    
2019/07/21  08:42:00  BASE  2.68716  224  3.48096  220  -5.8  100   -5.8  0     0     981.0    NA       0.0000   9999     300   0     0    
2019/07/21  08:43:00  BASE  2.45784  221  3.48096  220  -5.8  100   -5.8  0     0     981.0    NA       0.0000   9999     390   0     0    
2019/07/21  08:44:00  BASE  2.4402   219  3.48096  220  -5.8  100   -5.8  0     0     981.0    NA       0.0000   9999     300   0     0    
2019/07/21  08:45:00  BASE  2.39904  221  3.48096  220  -5.8  100   -5.8  0     0     981.0    NA       0.0000   9999     230   0     0    
2019/07/21  08:46:00  BASE  2.15796  226  3.48096  220  -5.8  100   -5.8  0     0     981.0    NA       0.0000   9999     230   0     0    
2019/07/21  08:47:00  BASE  2.11092  225  3.48096  220  -5.8  100   -5.8  0     0     981.0    NA       0.0000   9999     260   0     0    
2019/07/21  08:48:00  BASE  2.15208  232  3.48096  220  -5.9  100   -5.9  0     0     981.0    NA       0.0000   9999     260   0     0    
2019/07/21  08:49:00  BASE  1.97568  235  3.48096  220  -5.9  100   -5.9  0     0     981.0    NA       0.0000   9999     520   0     0    
2019/07/21  08:50:00  BASE  2.08152  228  3.087    223  -5.9  100   -5.9  0     0     981.0    NA       0.0000   9999     490   0     0    
2019/07/21  08:51:00  BASE  2.50488  224  2.96352  220  -5.9  100   -5.9  0     0     981.0    NA       0.0000   9999     390   0     0    
2019/07/21  08:52:00  BASE  2.45196  219  2.96352  220  -5.9  100   -5.9  0     0     981.0    NA       0.0000   9999     360   0     0    
2019/07/21  08:53:00  BASE  2.19324  219  2.96352  220  -5.8  100   -5.8  0     0     981.0    NA       0.0000   9999     330   0     0    
2019/07/21  08:54:00  BASE  2.03448  220  2.96352  220  -5.8  100   -5.8  0     0     981.0    NA       0.0000   9999     430   0     0    
2019/07/21  08:55:00  BASE  1.764    216  2.96352  220  -5.8  100   -5.8  0     0     981.0    NA       0.0000   9999     490   0     0    
2019/07/21  08:56:00  BASE  1.71108  212  2.96352  220  -5.8  100   -5.8  0     0     981.0    NA       0.0000   9999     360   0     0    
2019/07/21  08:57:00  BASE  1.56996  209  2.96352  220  -5.8  100   -5.8  0     0     981.0    NA       0.0000   9999     560   0     0    
2019/07/21  08:58:00  BASE  1.34652  213  2.96352  220  -5.8  100   -5.8  0     0     981.0    NA       0.0000   9999     660   0     0    
2019/07/21  08:59:00  BASE  1.2936   226  2.96352  220  -5.8  100   -5.8  0     0     981.0    NA       0.0000   9999     620   0     0    
2019/07/21  09:00:00  BASE  1.35828  235  2.96352  220  -5.8  100   -5.8  0     0     981.0    NA       0.0000   9999     660   0     0    
2019/07/21  09:01:00  BASE  1.62288  238  2.63424  224  -5.8  100   -5.8  0     0     981.0    NA       0.0000   9999     560   0     0    
2019/07/21  09:02:00  BASE  1.75812  246  2.38728  209  -5.8  100   -5.8  0     0     981.0    NA       0.0000   9999     490   0     0    
2019/07/21  09:03:00  BASE  1.8816   250  2.38728  209  -5.8  100   -5.8  0     0     981.0    NA       0.0000   9999     430   0     0    
2019/07/21  09:04:00  BASE  2.11092  248  2.38728  209  -5.8  100   -5.8  0     0     981.0    NA       0.0000   9999     490   0     0    
2019/07/21  09:05:00  BASE  2.04036  244  2.35788  249  -5.8  100   -5.8  0     0     981.0    NA       0.0000   9999     490   0     0    
2019/07/21  09:06:00  BASE  1.74048  230  2.35788  249  -5.8  100   -5.8  0     0     981.0    NA       0.0000   9999     390   0     0    
2019/07/21  09:07:00  BASE  1.59936  208  2.35788  249  -5.8  100   -5.8  0     0     981.0    NA       0.0000   9999     390   0     0    
2019/07/21  09:08:00  BASE  1.55232  196  2.35788  249  -5.9  100   -5.9  0     0     981.0    NA       0.0000   9999     430   0     0    
2019/07/21  09:09:00  BASE  1.31124  188  2.35788  249  -5.9  100   -5.9  0     0     981.0    NA       0.0000   9000     300   0     0    
2019/07/21  09:10:00  BASE  0.69384  181  2.35788  249  -5.9  100   -5.9  0     0     981.0    NA       0.0000   3900     0     0     0    
2019/07/21  09:11:00  BASE  0.27048  173  2.35788  249  -5.9  100   -5.9  0     0     981.0    NA       0.0000   BR       3600  230   0    
2019/07/21  09:12:00  BASE  0.42924  159  2.35788  249  -5.9  100   -5.9  0     0     981.0    NA       0.0000   BR       5000  300   0    
2019/07/21  09:13:00  BASE  0.50568  147  2.35788  249  -5.9  100   -5.9  0     0     981.0    NA       0.0000   BR       6000  330   0    
2019/07/21  09:14:00  BASE  0.21168  147  2.21088  247  -5.9  100   -5.9  0     0     981.0    NA       0.0000   BR       9000  330   0    
2019/07/21  09:15:00  BASE  0.05292  174  2.058    242  -5.9  100   -5.9  0     0     981.0    NA       0.0000   BR       9999  330   0    
2019/07/21  09:16:00  BASE  0.08232  178  1.69344  195  -5.9  100   -5.9  0     0     981.0    NA       0.0000   BR       9999  300   0    
2019/07/21  09:17:00  BASE  0.47628  141  1.63464  192  -5.9  100   -5.9  0     0     981.0    NA       0.0000   BR       9000  360   0    
2019/07/21  09:18:00  BASE  0.8232   134  1.29948  180  -5.9  100   -5.9  0     0     980.9    NA       0.0000   BR       9999  490   0    
2019/07/21  09:19:00  BASE  0.74088  143  1.1172   133  -5.9  100   -5.9  0     0     980.9    NA       0.0000   BR       9999  490   0    
2019/07/21  09:20:00  BASE  0.9702   144  1.63464  152  -5.9  100   -5.9  0     0     980.9    NA       0.0000   BR       9999  590   0    
2019/07/21  09:21:00  BASE  1.13484  140  1.63464  152  -5.9  100   -5.9  0     0     980.9    NA       0.0000   BR       9999  590   0    
2019/07/21  09:22:00  BASE  0.93492  144  1.63464  152  -5.9  100   -5.9  0     0     980.9    NA       0.0000   9999     720   0     0    
2019/07/21  09:23:00  BASE  0.54684  145  1.63464  152  -5.9  100   -5.9  0     0     980.9    NA       0.0000   9999     490   0     0    
2019/07/21  09:24:00  BASE  0.43512  132  1.63464  152  -5.9  100   -5.9  0     0     980.9    NA       0.0000   9999     390   0     0    
2019/07/21  09:25:00  BASE  0.29988  139  1.63464  152  -5.9  100   -5.9  0     0     980.9    NA       0.0000   9999     390   0     0    
2019/07/21  09:26:00  BASE  0        126  1.63464  152  -5.9  100   -5.9  0     0     980.9    NA       0.0000   9999     490   0     0    
2019/07/21  09:27:00  BASE  0        103  1.63464  152  -5.9  100   -5.9  0     0     980.9    NA       0.0000   9999     590   0     0    
2019/07/21  09:28:00  BASE  0.13524  126  1.63464  152  -5.9  100   -5.9  0     0     980.9    NA       0.0000   9999     590   0     0    
2019/07/21  09:29:00  BASE  0.13524  136  1.63464  152  -5.9  100   -5.9  0     0     980.9    NA       0.0000   9999     590   0     0    
2019/07/21  09:30:00  BASE  0        106  1.18188  130  -5.9  100   -5.9  0     0     980.9    NA       0.0000   9999     620   0     0    
2019/07/21  09:31:00  BASE  0.0294   86   0.9702   149  -5.9  100   -5.9  0     0     980.9    NA       0.0000   9999     660   0     0    
2019/07/21  09:32:00  BASE  0.0294   101  0.84672  103  -5.9  100   -5.9  0     0     980.9    NA       0.0000   9999     720   0     0    
2019/07/21  09:33:00  BASE  0        115  0.84672  103  -5.9  100   -5.9  0     0     980.9    NA       0.0000   9999     690   0     0    
2019/07/21  09:34:00  BASE  0        117  0.69384  118  -5.9  100   -5.9  0     0     980.9    NA       0.0000   9999     720   0     0    
2019/07/21  09:35:00  BASE  0        106  0.69384  118  -6.0  100   -6.0  0     0     980.9    NA       0.0000   9999     750   0     0    
2019/07/21  09:36:00  BASE  0        78   0.69384  118  -6.0  100   -6.0  0     0     981.0    NA       0.0000   9999     690   0     0    
2019/07/21  09:37:00  BASE  0        48   0.69384  118  -5.9  100   -5.9  0     0     981.0    NA       0.0000   9999     490   0     0    
2019/07/21  09:38:00  BASE  0        31   0.63504  105  -5.9  100   -5.9  0     0     981.0    NA       0.0000   9999     390   0     0    
2019/07/21  09:39:00  BASE  0        26   0.63504  105  -5.9  100   -5.9  0     0     981.0    NA       0.0000   9999     360   0     0    
2019/07/21  09:40:00  BASE  0.147    32   0.78792  45   -5.9  100   -5.9  0     0     981.0    NA       0.0000   9999     390   0     0    
2019/07/21  09:41:00  BASE  0.2352   40   0.78792  45   -5.9  100   -5.9  0     0     981.0    NA       0.0000   9999     360   0     0    
2019/07/21  09:42:00  BASE  0.08232  44   0.78792  45   -5.9  100   -5.9  0     0     981.0    NA       0.0000   9999     430   0     0    
2019/07/21  09:43:00  BASE  0        57   0.78792  45   -5.9  100   -5.9  0     0     981.0    NA       0.0000   9999     430   0     0    
2019/07/21  09:44:00  BASE  0        64   0.78792  45   -5.9  100   -5.9  0     0     981.0    NA       0.0000   9999     490   0     0    
2019/07/21  09:45:00  BASE  0.53508  54   1.63464  44   -5.9  100   -5.9  0     0     981.0    NA       0.0000   9999     560   0     0    
2019/07/21  09:46:00  BASE  1.323    55   1.72284  61   -5.9  100   -5.9  0     0     981.0    NA       0.0000   9999     430   0     0    
2019/07/21  09:47:00  BASE  1.76988  51   2.24028  35   -5.9  100   -5.9  0     0     980.9    NA       0.0000   9999     520   0     0    
2019/07/21  09:48:00  BASE  1.8816   38   2.24028  35   -6.0  100   -6.0  0     0     980.9    NA       0.0000   9999     460   1280  0    
2019/07/21  09:49:00  BASE  1.62288  39   2.24028  35   -6.0  100   -6.0  0     0     981.0    NA       0.0000   9999     430   0     0    
2019/07/21  09:50:00  BASE  1.2936   44   2.24028  35   -6.1  100   -6.1  0     0     981.0    NA       0.0000   9999     430   1310  0    
2019/07/21  09:51:00  BASE  0.9702   47   2.24028  35   -6.1  100   -6.1  0     0     981.0    NA       0.0000   9999     390   0     0    
2019/07/21  09:52:00  BASE  0.60564  40   2.24028  35   -6.1  100   -6.1  0     0     981.0    NA       0.0000   9999     430   0     0    
2019/07/21  09:53:00  BASE  0.36456  39   2.24028  35   -6.1  100   -6.1  0     0     981.0    NA       0.0000   9999     390   0     0    
2019/07/21  09:54:00  BASE  0.588    52   2.24028  35   -6.1  100   -6.1  0     0     981.0    NA       0.0000   9999     430   0     0    
2019/07/21  09:55:00  BASE  0.62328  56   2.24028  35   -6.1  100   -6.1  0     0     981.0    NA       0.0000   9999     430   0     0    
2019/07/21  09:56:00  BASE  0.34104  50   2.24028  35   -6.1  100   -6.1  0     0     981.0    NA       0.0000   9999     430   1670  0    
2019/07/21  09:57:00  BASE  0.35868  51   2.0286   36   -6.1  100   -6.1  0     0     981.0    NA       0.0000   9999     460   1640  0    
2019/07/21  09:58:00  BASE  0.27636  59   1.87572  34   -6.1  100   -6.1  0     0     981.0    NA       0.0000   9999     460   0     0    
2019/07/21  09:59:00  BASE  0.07644  86   1.24068  43   -6.2  100   -6.2  0     0     981.0    NA       0.0000   9999     460   0     0    
2019/07/21  10:00:00  BASE  0        120  1.0878   59   -6.2  100   -6.2  0     0     981.0    NA       0.0000   9999     460   0     0    
2019/07/21  10:01:00  BASE  0        132  1.0878   59   -6.2  100   -6.2  0     0     981.0    NA       0.0000   9999     460   0     0    
2019/07/21  10:02:00  BASE  0        141  1.0878   59   -6.3  100   -6.3  0     0     981.0    NA       0.0000   9999     430   0     0    
2019/07/21  10:03:00  BASE  0        132  1.0878   59   -6.3  100   -6.3  0     0     981.0    NA       0.0000   9999     430   0     0    
2019/07/21  10:04:00  BASE  0.0588   60   0.93492  52   -6.4  100   -6.4  0     0     981.0    NA       0.0000   9999     460   0     0    
2019/07/21  10:05:00  BASE  0.3234   11   0.9702   3    -6.4  100   -6.4  0     0     981.0    NA       0.0000   9999     460   0     0    
2019/07/21  10:06:00  BASE  0.294    25   0.9702   3    -6.4  100   -6.4  0     0     981.0    NA       0.0000   9999     460   0     0    
2019/07/21  10:07:00  BASE  0.0294   29   0.9702   3    -6.4  100   -6.4  0     0     981.0    NA       0.0000   9999     460   0     0    
2019/07/21  10:08:00  BASE  0        24   0.9702   3    -6.4  100   -6.4  0     0     981.0    NA       0.0000   9999     390   0     0    
2019/07/21  10:09:00  BASE  0        18   0.9702   3    -6.3  100   -6.3  0     0     981.0    NA       0.0000   9999     330   0     0    
2019/07/21  10:10:00  BASE  0        26   0.9702   3    -6.4  100   -6.4  0     0     981.0    NA       0.0000   9999     330   0     0    
2019/07/21  10:11:00  BASE  0        80   0.9702   3    -6.4  100   -6.4  0     0     981.0    NA       0.0000   9999     360   0     0    
2019/07/21  10:12:00  BASE  0        138  0.9702   3    -6.3  100   -6.3  0     0     981.0    NA       0.0000   9999     330   0     0    
2019/07/21  10:13:00  BASE  0.08232  129  0.9702   3    -6.4  100   -6.4  0     0     981.0    NA       0.0000   9999     330   0     0    
2019/07/21  10:14:00  BASE  0.4998   92   0.9702   3    -6.4  100   -6.4  0     0     981.0    NA       0.0000   9999     330   0     0    
2019/07/21  10:15:00  BASE  0.95256  69   1.48176  65   -6.4  100   -6.4  0     0     981.0    NA       0.0000   9999     330   0     0    
2019/07/21  10:16:00  BASE  1.18188  62   1.48176  64   -6.4  100   -6.4  0     0     981.0    NA       0.0000   9999     330   0     0    
2019/07/21  10:17:00  BASE  1.2348   59   1.48176  64   -6.4  100   -6.4  0     0     981.0    NA       0.0000   9999     360   0     0    
2019/07/21  10:18:00  BASE  1.19952  52   1.48176  64   -6.3  100   -6.3  0     0     981.0    NA       0.0000   9999     360   0     0    
2019/07/21  10:19:00  BASE  1.28184  50   1.48176  64   -6.3  100   -6.3  0     0     981.0    NA       0.0000   9999     460   0     0    
2019/07/21  10:20:00  BASE  1.33476  50   1.48176  49   -6.3  100   -6.3  0     0     981.0    NA       0.0000   9999     460   0     0    
2019/07/21  10:21:00  BASE  1.2054   52   1.48176  49   -6.3  100   -6.3  0     0     981.0    NA       0.0000   9999     460   0     0    
2019/07/21  10:22:00  BASE  1.22892  58   1.57584  60   -6.3  100   -6.3  0     0     981.0    NA       0.0000   9999     390   0     0    
2019/07/21  10:23:00  BASE  1.30536  57   1.57584  60   -6.3  100   -6.3  0     0     981.0    NA       0.0000   9999     390   0     0    
2019/07/21  10:24:00  BASE  1.2642   57   1.57584  60   -6.4  100   -6.4  0     0     981.0    NA       0.0000   9999     390   0     0    
2019/07/21  10:25:00  BASE  1.33476  60   1.57584  60   -6.4  100   -6.4  0     0     981.0    NA       0.0000   9999     430   0     0    
2019/07/21  10:26:00  BASE  1.24068  64   1.57584  60   -6.4  100   -6.4  0     0     981.0    NA       0.0000   9999     430   0     0    
2019/07/21  10:27:00  BASE  1.14072  73   1.57584  60   -6.4  100   -6.4  0     0     981.0    NA       0.0000   9999     430   0     0    
2019/07/21  10:28:00  BASE  1.14072  80   1.57584  60   -6.4  100   -6.4  0     0     981.0    NA       0.0000   9999     430   0     0    
2019/07/21  10:29:00  BASE  1.11132  78   1.57584  60   -6.4  100   -6.4  0     0     981.0    NA       0.0000   9999     390   0     0    
2019/07/21  10:30:00  BASE  1.18188  68   1.57584  60   -6.4  100   -6.4  0     0     981.0    NA       0.0000   9999     390   0     0    
2019/07/21  10:31:00  BASE  1.27596  56   1.57584  60   -6.4  100   -6.4  0     0     981.0    NA       0.0000   9999     430   0     0    
2019/07/21  10:32:00  BASE  1.21716  58   1.54056  57   -6.3  100   -6.3  0     0     981.0    NA       0.0000   9999     390   0     0    
2019/07/21  10:33:00  BASE  1.12896  63   1.54056  57   -6.3  100   -6.3  0     0     981.0    NA       0.0000   9999     390   0     0    
2019/07/21  10:34:00  BASE  1.00548  64   1.51116  59   -6.3  100   -6.3  0     0     981.0    NA       0.0000   9999     360   0     0    
2019/07/21  10:35:00  BASE  1.029    67   1.48176  46   -6.3  100   -6.3  0     0     981.0    NA       0.0000   9999     330   0     0    
2019/07/21  10:36:00  BASE  1.09368  65   1.48176  46   -6.3  100   -6.3  0     0     981.0    NA       0.0000   9999     330   0     0    
2019/07/21  10:37:00  BASE  1.03488  54   1.48176  46   -6.2  100   -6.2  0     0     981.0    NA       0.0000   9999     360   0     0    
2019/07/21  10:38:00  BASE  0.87024  45   1.48176  46   -6.2  100   -6.2  0     0     981.0    NA       0.0000   9999     330   0     0    
2019/07/21  10:39:00  BASE  0.80556  23   1.48176  46   -6.2  100   -6.2  0     0     981.0    NA       0.0000   9999     330   0     0    
2019/07/21  10:40:00  BASE  0.87612  14   1.48176  46   -6.2  100   -6.2  0     0     981.0    NA       0.0000   9999     260   0     0    
2019/07/21  10:41:00  BASE  0.92904  21   1.29948  75   -6.2  100   -6.2  0     0     981.0    NA       0.0000   9999     260   0     0    
2019/07/21  10:42:00  BASE  1.09956  15   1.42296  6    -6.3  100   -6.3  0     0     981.0    NA       0.0000   9999     230   0     0    
2019/07/21  10:43:00  BASE  1.07604  8    1.42296  8    -6.3  100   -6.3  0     0     981.0    NA       0.0000   9999     200   0     0    
2019/07/21  10:44:00  BASE  0.94668  14   1.42296  8    -6.2  100   -6.2  0     0     981.0    NA       0.0000   9999     230   0     0    
2019/07/21  10:45:00  BASE  1.00548  21   1.42296  8    -6.2  100   -6.2  0     0     980.9    NA       0.0000   9999     230   0     0    
2019/07/21  10:46:00  BASE  1.33476  26   1.78752  36   -6.2  100   -6.2  0     0     980.9    NA       0.0000   9999     300   0     0    
2019/07/21  10:47:00  BASE  1.64052  33   2.0874   39   -6.2  100   -6.2  0     0     980.9    NA       0.0000   9999     330   0     0    
2019/07/21  10:48:00  BASE  1.76988  33   2.0874   39   -6.3  100   -6.3  0     0     980.9    NA       0.0000   9999     300   0     0    
2019/07/21  10:49:00  BASE  1.82868  31   2.1756   25   -6.3  100   -6.3  0     0     980.9    NA       0.0000   9999     260   0     0    
2019/07/21  10:50:00  BASE  1.8522   30   2.1756   25   -6.3  100   -6.3  0     0     980.9    NA       0.0000   9999     230   0     0    
2019/07/21  10:51:00  BASE  1.911    35   2.21088  34   -6.4  100   -6.4  0     0     980.9    NA       0.0000   9999     260   0     0    
2019/07/21  10:52:00  BASE  1.81692  37   2.21088  34   -6.4  100   -6.4  0     0     980.9    NA       0.0000   9999     260   0     0    
2019/07/21  10:53:00  BASE  1.77576  33   2.21088  34   -6.4  100   -6.4  0     0     980.9    NA       0.0000   9999     300   0     0    
2019/07/21  10:54:00  BASE  1.81692  31   2.21088  34   -6.4  100   -6.4  0     0     980.9    NA       0.0000   9999     300   0     0    
2019/07/21  10:55:00  BASE  1.7934   30   2.21088  34   -6.4  100   -6.4  0     0     980.9    NA       0.0000   9999     300   0     0    
2019/07/21  10:56:00  BASE  1.87572  30   2.21088  34   -6.5  100   -6.5  0     0     980.9    NA       0.0000   9999     260   0     0    
2019/07/21  10:57:00  BASE  1.84044  19   2.21088  34   -6.5  100   -6.5  0     0     980.9    NA       0.0000   9999     300   0     0    
2019/07/21  10:58:00  BASE  1.7346   10   2.21088  34   -6.5  100   -6.5  0     0     980.9    NA       0.0000   9999     300   0     0    
2019/07/21  10:59:00  BASE  1.71696  16   2.21088  34   -6.5  100   -6.5  0     0     980.9    NA       0.0000   9999     300   0     0    
2019/07/21  11:00:00  BASE  1.71696  18   2.21088  34   -6.5  100   -6.5  0     0     980.9    NA       0.0000   9999     260   0     0    
2019/07/21  11:01:00  BASE  1.66992  16   2.1462   30   -6.5  100   -6.5  0     0     980.9    NA       0.0000   9999     260   0     0    
2019/07/21  11:02:00  BASE  1.66404  24   2.21088  23   -6.4  100   -6.4  0     0     980.9    NA       0.0000   9999     260   0     0    
2019/07/21  11:03:00  BASE  1.69344  28   2.21088  23   -6.4  100   -6.4  0     0     980.9    NA       0.0000   9999     200   0     0    
2019/07/21  11:04:00  BASE  1.78752  26   2.21088  23   -6.4  100   -6.4  0     0     980.9    NA       0.0000   9999     230   0     0    
2019/07/21  11:05:00  BASE  1.95804  28   2.24028  37   -6.5  100   -6.5  0     0     980.9    NA       0.0000   9999     200   0     0    
2019/07/21  11:06:00  BASE  1.97568  27   2.24028  37   -6.5  100   -6.5  0     0     980.8    NA       0.0000   9999     230   0     0    
2019/07/21  11:07:00  BASE  2.06976  26   2.48136  25   -6.6  100   -6.6  0     0     980.8    NA       0.0000   9999     230   0     0    
2019/07/21  11:08:00  BASE  2.28732  28   2.63424  31   -6.6  100   -6.6  0     0     980.8    NA       0.0000   9999     260   0     0    
2019/07/21  11:09:00  BASE  2.27556  27   2.63424  31   -6.6  100   -6.6  0     0     980.8    NA       0.0000   9999     300   0     0    
2019/07/21  11:10:00  BASE  2.28732  26   2.69304  32   -6.6  100   -6.6  0     0     980.8    NA       0.0000   9999     300   0     0    
2019/07/21  11:11:00  BASE  2.34612  30   2.75184  25   -6.7  100   -6.7  0     0     980.8    NA       0.0000   9999     200   0     0    
2019/07/21  11:12:00  BASE  2.12856  33   2.75184  25   -6.7  100   -6.7  0     0     980.8    NA       0.0000   9999     200   0     0    
2019/07/21  11:13:00  BASE  1.93452  35   2.75184  25   -6.7  100   -6.7  0     0     980.8    NA       0.0000   9999     200   0     0    
2019/07/21  11:14:00  BASE  1.99332  31   2.75184  25   -6.7  100   -6.7  0     0     980.8    NA       0.0000   9999     200   0     0    
2019/07/21  11:15:00  BASE  1.84632  30   2.75184  25   -6.7  100   -6.7  0     0     980.8    NA       0.0000   9999     200   0     0    
2019/07/21  11:16:00  BASE  1.5876   30   2.75184  25   -6.7  100   -6.7  0     0     980.8    NA       0.0000   9999     200   0     0    
2019/07/21  11:17:00  BASE  1.57584  33   2.75184  25   -6.7  100   -6.7  0     0     980.8    NA       0.0000   9999     200   0     0    
2019/07/21  11:18:00  BASE  1.71108  37   2.75184  25   -6.6  100   -6.6  0     0     980.8    NA       0.0000   9999     0     0     0    
2019/07/21  11:19:00  BASE  1.7934   43   2.75184  25   -6.6  100   -6.6  0     0     980.8    NA       0.0000   9999     0     0     0    
2019/07/21  11:20:00  BASE  1.68168  47   2.75184  25   -6.6  100   -6.6  0     0     980.8    NA       0.0000   9999     0     0     0    
2019/07/21  11:21:00  BASE  1.64052  44   2.38728  20   -6.6  100   -6.6  0     0     980.8    NA       0.0000   9999     0     0     0    
2019/07/21  11:22:00  BASE  1.6464   42   2.29908  34   -6.6  100   -6.6  0     0     980.8    NA       0.0000   9999     0     0     0    
2019/07/21  11:23:00  BASE  1.48764  45   2.29908  34   -6.6  100   -6.6  0     0     980.8    NA       0.0000   8000     0     0     0    
2019/07/21  11:24:00  BASE  1.47588  46   2.21088  36   -6.6  100   -6.6  0     0     980.8    NA       0.0000   6000     0     0     0    
2019/07/21  11:25:00  BASE  1.6464   44   2.0286   37   -6.6  100   -6.6  0     0     980.8    NA       0.0000   7000     0     0     0    
2019/07/21  11:26:00  BASE  1.65228  45   2.0286   37   -6.6  100   -6.6  0     0     980.9    NA       0.0000   BR       6000  0     0    
2019/07/21  11:27:00  BASE  1.62288  44   2.0286   37   -6.6  100   -6.6  0     0     980.9    NA       0.0000   BR       4800  0     0    
2019/07/21  11:28:00  BASE  1.65228  44   1.96392  37   -6.6  100   -6.6  0     0     980.9    NA       0.0000   BR       4900  0     0    
2019/07/21  11:29:00  BASE  1.75224  43   2.0874   40   -6.6  100   -6.6  0     0     980.9    NA       0.0000   BR       5000  0     0    
2019/07/21  11:30:00  BASE  1.78752  40   2.0874   40   -6.6  100   -6.6  0     0     980.9    NA       0.0000   BR       4100  0     0    
2019/07/21  11:31:00  BASE  1.7052   43   2.0874   40   -6.6  100   -6.6  0     0     980.9    NA       0.0000   BR       3600  0     0    
2019/07/21  11:32:00  BASE  1.68168  47   2.0874   40   -6.6  100   -6.6  0     0     980.9    NA       0.0000   BR       3200  0     0    
2019/07/21  11:33:00  BASE  1.51116  49   2.0874   40   -6.7  100   -6.7  0     0     980.9    NA       0.0000   BR       3000  0     0    
2019/07/21  11:34:00  BASE  1.48764  46   2.0874   40   -6.7  100   -6.7  0     0     980.9    NA       0.0000   BR       3200  0     0    
2019/07/21  11:35:00  BASE  1.64052  43   2.0874   40   -6.7  100   -6.7  0     0     980.8    NA       0.0000   BR       4300  0     0    
2019/07/21  11:36:00  BASE  1.7052   46   2.21088  44   -6.7  100   -6.7  0     0     980.8    NA       0.0000   BR       3700  0     0    
2019/07/21  11:37:00  BASE  1.71696  45   2.21088  44   -6.7  100   -6.7  0     0     980.8    NA       0.0000   BR       2900  0     0    
2019/07/21  11:38:00  BASE  1.69344  42   2.21088  44   -6.7  100   -6.7  0     0     980.9    NA       0.0000   BR       3200  0     0    
2019/07/21  11:39:00  BASE  1.62288  42   2.21088  44   -6.7  100   -6.7  0     0     980.9    NA       0.0000   BR       3800  0     0    
2019/07/21  11:40:00  BASE  1.39944  44   2.21088  44   -6.7  100   -6.7  0     0     980.9    NA       0.0000   BR       3500  0     0    
2019/07/21  11:41:00  BASE  1.25244  43   2.21088  44   -6.7  100   -6.7  0     0     980.9    NA       0.0000   BR       2400  0     0    
2019/07/21  11:42:00  BASE  1.28772  37   2.21088  44   -6.7  100   -6.7  0     0     980.9    NA       0.0000   BR       2800  0     0    
2019/07/21  11:43:00  BASE  1.29948  35   2.21088  44   -6.7  100   -6.7  0     0     980.8    NA       0.0000   BR       4100  0     0    
2019/07/21  11:44:00  BASE  1.27008  33   2.21088  44   -6.7  100   -6.7  0     0     980.9    NA       0.0000   BR       4100  0     0    
2019/07/21  11:45:00  BASE  1.24068  34   2.21088  44   -6.7  100   -6.7  0     0     980.9    NA       0.0000   BR       4200  0     0    
2019/07/21  11:46:00  BASE  1.19952  39   2.0286   45   -6.7  100   -6.7  0     0     980.9    NA       0.0000   BR       3400  0     0    
2019/07/21  11:47:00  BASE  1.19364  38   1.87572  37   -6.7  100   -6.7  0     0     980.9    NA       0.0000   BR       2700  0     0    
2019/07/21  11:48:00  BASE  1.12896  34   1.72284  40   -6.7  100   -6.7  0     0     980.9    NA       0.0000   BR       2700  0     0    
2019/07/21  11:49:00  BASE  1.06428  34   1.45236  31   -6.7  100   -6.7  0     0     980.9    NA       0.0000   BR       3100  0     0    
2019/07/21  11:50:00  BASE  1.0584   31   1.45236  31   -6.7  100   -6.7  0     0     980.9    NA       0.0000   BR       3800  0     0    
2019/07/21  11:51:00  BASE  0.99372  33   1.45236  31   -6.7  100   -6.7  0     0     980.9    NA       0.0000   BR       3800  0     0    
2019/07/21  11:52:00  BASE  0.96432  40   1.45236  31   -6.7  100   -6.7  0     0     980.9    NA       0.0000   BR       3400  0     0    
2019/07/21  11:53:00  BASE  0.98196  44   1.39356  33   -6.7  100   -6.7  0     0     980.9    NA       0.0000   BR       2600  0     0    
2019/07/21  11:54:00  BASE  0.91728  47   1.35828  44   -6.7  100   -6.7  0     0     980.9    NA       0.0000   BR       2000  0     0    
2019/07/21  11:55:00  BASE  0.5586   48   1.35828  44   -6.7  100   -6.7  0     0     980.9    NA       0.0000   BR       1800  0     0    
2019/07/21  11:56:00  BASE  0.28812  42   1.29948  35   -6.7  100   -6.7  0     0     980.9    NA       0.0000   BR       1500  0     0    
2019/07/21  11:57:00  BASE  0.1764   31   1.27008  54   -6.7  100   -6.7  0     0     980.9    NA       0.0000   BR       1600  0     0    
2019/07/21  11:58:00  BASE  0.0294   30   1.27008  54   -6.7  100   -6.7  0     0     980.8    NA       0.0000   BR       1700  0     0    
2019/07/21  11:59:00  BASE  0.33516  38   1.27008  54   -6.7  100   -6.7  0     0     980.8    NA       0.0000   BR       1600  0     0    
2019/07/21  12:00:00  BASE  0.66444  43   1.27008  54   -6.7  100   -6.7  0     0     980.8    NA       0.0000   BR       1500  0     0    
2019/07/21  12:01:00  BASE  0.62328  42   1.27008  54   -6.7  100   -6.7  0     0     980.8    NA       0.0000   BR       1400  0     0    
2019/07/21  12:02:00  BASE  0.8526   44   1.29948  39   -6.7  100   -6.7  0     0     980.8    NA       0.0000   BR       1500  0     0    
2019/07/21  12:03:00  BASE  1.31124  43   1.69344  31   -6.7  100   -6.7  0     0     980.8    NA       0.0000   BR       1700  0     0    
2019/07/21  12:04:00  BASE  1.46412  37   1.69344  31   -6.7  100   -6.7  0     0     980.8    NA       0.0000   BR       2400  0     0    
2019/07/21  12:05:00  BASE  1.39356  30   1.69344  31   -6.7  100   -6.7  0     0     980.8    NA       0.0000   BR       3600  0     0    
2019/07/21  12:06:00  BASE  1.2936   23   1.69344  31   -6.8  100   -6.8  0     0     980.8    NA       0.0000   BR       3600  0     0    
2019/07/21  12:07:00  BASE  1.1466   24   1.69344  31   -6.8  100   -6.8  0     0     980.8    NA       0.0000   BR       3600  0     0    
2019/07/21  12:08:00  BASE  0.92904  34   1.69344  31   -6.8  100   -6.8  0     0     980.9    NA       0.0000   BR       2900  0     0    
2019/07/21  12:09:00  BASE  0.93492  35   1.69344  31   -6.8  100   -6.8  0     0     980.9    NA       0.0000   BR       2700  0     0    
2019/07/21  12:10:00  BASE  1.0878   35   1.69344  31   -6.8  100   -6.8  0     0     980.9    NA       0.0000   BR       2400  0     0    
2019/07/21  12:11:00  BASE  1.08192  41   1.69344  31   -6.8  100   -6.8  0     0     980.9    NA       0.0000   BR       2500  0     0    
2019/07/21  12:12:00  BASE  1.12308  41   1.69344  31   -6.8  100   -6.8  0     0     980.9    NA       0.0000   BR       2400  0     0    
2019/07/21  12:13:00  BASE  1.14072  44   1.63464  36   -6.8  100   -6.8  0     0     980.9    NA       0.0000   BR       3500  0     0    
2019/07/21  12:14:00  BASE  1.07016  57   1.54056  28   -6.8  100   -6.8  0     0     980.9    NA       0.0000   BR       2500  0     0    
2019/07/21  12:15:00  BASE  1.176    52   1.60524  39   -6.8  100   -6.8  0     0     980.9    NA       0.0000   BR       2600  0     0    
2019/07/21  12:16:00  BASE  1.25244  44   1.60524  39   -6.8  100   -6.8  0     0     980.9    NA       0.0000   BR       3700  0     0    
2019/07/21  12:17:00  BASE  1.22892  47   1.60524  39   -6.8  100   -6.8  0     0     980.9    NA       0.0000   BR       3400  0     0    
2019/07/21  12:18:00  BASE  1.29948  40   1.60524  39   -6.8  100   -6.8  0     0     980.9    NA       0.0000   BR       5000  0     0    
2019/07/21  12:19:00  BASE  1.28184  39   1.60524  39   -6.8  100   -6.8  0     0     980.9    NA       0.0000   BR       6000  0     0    
2019/07/21  12:20:00  BASE  1.24068  43   1.60524  39   -6.8  100   -6.8  0     0     980.9    NA       0.0000   BR       3700  0     0    
2019/07/21  12:21:00  BASE  1.27008  49   1.60524  39   -6.8  100   -6.8  0     0     980.9    NA       0.0000   BR       2500  0     0    
2019/07/21  12:22:00  BASE  1.21716  55   1.60524  39   -6.8  100   -6.8  0     0     980.9    NA       0.0000   BR       1800  0     0    
2019/07/21  12:23:00  BASE  1.176    59   1.60524  39   -6.8  100   -6.8  0     0     981.0    NA       0.0000   BR       1600  0     0    
2019/07/21  12:24:00  BASE  1.34652  66   1.60524  39   -6.8  100   -6.8  0     0     981.0    NA       0.0000   BR       1800  0     0    
2019/07/21  12:25:00  BASE  1.57584  65   1.81692  62   -6.8  100   -6.8  0     0     981.0    NA       0.0000   BR       2300  0     0    
2019/07/21  12:26:00  BASE  1.5876   63   1.81692  62   -6.9  100   -6.9  0     0     981.0    NA       0.0000   BR       2400  0     0    
2019/07/21  12:27:00  BASE  1.5582   63   1.81692  62   -6.9  100   -6.9  0     0     981.0    NA       0.0000   BR       2300  0     0    
2019/07/21  12:28:00  BASE  1.4994   59   1.81692  62   -6.9  100   -6.9  0     0     981.0    NA       0.0000   BR       2100  0     0    
2019/07/21  12:29:00  BASE  1.37592  58   1.81692  62   -6.9  100   -6.9  0     0     981.0    NA       0.0000   BR       1800  0     0    
2019/07/21  12:30:00  BASE  1.29948  57   1.81692  62   -7.0  100   -7.0  0     0     980.9    NA       0.0000   BR       1600  0     0    
2019/07/21  12:31:00  BASE  1.22304  52   1.81692  62   -7.0  100   -7.0  0     0     980.9    NA       0.0000   BR       1800  0     0    
2019/07/21  12:32:00  BASE  1.21128  46   1.81692  62   -7.0  100   -7.0  0     0     980.9    NA       0.0000   BR       2000  0     0    
2019/07/21  12:33:00  BASE  1.28184  43   1.81692  62   -7.0  100   -7.0  0     0     980.9    NA       0.0000   BR       2000  0     0    
2019/07/21  12:34:00  BASE  1.39944  42   1.81692  62   -7.0  100   -7.0  0     0     980.9    NA       0.0000   BR       2700  0     0    
2019/07/21  12:35:00  BASE  1.49352  37   1.78752  16   -7.0  100   -7.0  0     0     980.9    NA       0.0000   BR       4400  0     0    
2019/07/21  12:36:00  BASE  1.62288  35   1.9992   30   -7.0  100   -7.0  0     0     980.9    NA       0.0000   BR       6000  0     0    
2019/07/21  12:37:00  BASE  1.75812  31   1.9992   30   -7.0  100   -7.0  0     0     980.9    NA       0.0000   BR       9000  200   0    
2019/07/21  12:38:00  BASE  1.78164  28   1.9992   30   -7.0  100   -7.0  0     0     980.9    NA       0.0000   BR       9999  0     0    
2019/07/21  12:39:00  BASE  1.71108  28   1.9992   30   -7.0  100   -7.0  0     0     981.0    NA       0.0000   BR       9999  0     0    
2019/07/21  12:40:00  BASE  1.66404  25   1.9992   30   -7.0  100   -7.0  0     0     981.0    NA       0.0000   BR       9999  160   0    
2019/07/21  12:41:00  BASE  1.71696  22   1.9992   30   -7.1  100   -7.1  0     0     981.0    NA       0.0000   BR       9999  0     0    
2019/07/21  12:42:00  BASE  1.86984  21   2.0874   19   -7.1  100   -7.1  0     0     981.0    NA       0.0000   BR       9999  0     0    
2019/07/21  12:43:00  BASE  1.86396  22   2.0874   19   -7.1  100   -7.1  0     0     981.0    NA       0.0000   BR       9999  0     0    
2019/07/21  12:44:00  BASE  1.71108  24   2.0874   19   -7.1  100   -7.1  0     0     981.0    NA       0.0000   9999     0     0     0    
2019/07/21  12:45:00  BASE  1.62876  23   2.0874   19   -7.2  100   -7.2  0     0     981.0    NA       0.0000   9999     0     0     0    
2019/07/21  12:46:00  BASE  1.3818   23   2.0874   19   -7.2  100   -7.2  0     0     981.0    NA       0.0000   9999     0     0     0    
2019/07/21  12:47:00  BASE  1.25244  24   2.0874   19   -7.2  100   -7.2  0     0     981.0    NA       0.0000   9999     0     0     0    
2019/07/21  12:48:00  BASE  1.37592  20   2.0874   19   -7.2  100   -7.2  0     0     981.0    NA       0.0000   9999     0     0     0    
2019/07/21  12:49:00  BASE  1.31124  11   2.0874   19   -7.2  100   -7.2  0     0     981.0    NA       0.0000   9999     0     0     0    
2019/07/21  12:50:00  BASE  1.19364  4    2.0874   19   -7.2  100   -7.2  0     0     981.1    NA       0.0000   9999     0     0     0    
2019/07/21  12:51:00  BASE  1.13484  8    2.0874   19   -7.2  100   -7.2  0     0     981.2    NA       0.0000   9999     0     0     0    
2019/07/21  12:52:00  BASE  1.0878   10   1.9992   22   -7.2  100   -7.2  0     0     981.2    NA       0.0000   9000     690   0     0    
2019/07/21  12:53:00  BASE  1.11132  14   1.9992   22   -7.2  100   -7.2  0     0     981.2    NA       0.0000   9000     560   0     0    
2019/07/21  12:54:00  BASE  1.16424  16   1.69344  26   -7.2  100   -7.2  0     0     981.2    NA       0.0000   9999     590   0     0    
2019/07/21  12:55:00  BASE  1.3524   17   1.75224  26   -7.3  100   -7.3  0     0     981.2    NA       0.0000   9999     560   0     0    
2019/07/21  12:56:00  BASE  1.51116  21   1.75224  26   -7.3  100   -7.3  0     0     981.2    NA       0.0000   9999     490   0     0    
2019/07/21  12:57:00  BASE  1.51116  23   1.75224  26   -7.3  100   -7.3  0     0     981.2    NA       0.0000   9999     460   0     0    
2019/07/21  12:58:00  BASE  1.47588  24   1.75224  26   -7.4  100   -7.4  1     0     981.2    NA       0.0000   9999     520   0     0    
2019/07/21  12:59:00  BASE  1.37004  28   1.75224  26   -7.4  100   -7.4  1     0     981.2    NA       0.0000   9999     460   0     0    
2019/07/21  13:00:00  BASE  1.2348   28   1.75224  26   -7.4  100   -7.4  1     0     981.2    NA       0.0000   9999     390   0     0    
2019/07/21  13:01:00  BASE  1.18188  23   1.75224  26   -7.5  100   -7.5  1     0     981.2    NA       0.0000   9999     460   0     0    
2019/07/21  13:02:00  BASE  1.18188  25   1.75224  26   -7.5  100   -7.5  1     0     981.2    NA       0.0000   9999     460   0     0    
2019/07/21  13:03:00  BASE  1.22892  27   1.75224  26   -7.5  100   -7.5  1     0     981.2    NA       0.0000   9999     430   1250  0    
2019/07/21  13:04:00  BASE  1.13484  26   1.75224  26   -7.4  100   -7.4  1     0     981.2    NA       0.0000   9999     430   0     0    
2019/07/21  13:05:00  BASE  1.15836  28   1.69344  28   -7.4  100   -7.4  1     0     981.2    NA       0.0000   9999     430   1120  0    
2019/07/21  13:06:00  BASE  1.42296  28   1.63464  15   -7.4  100   -7.4  1     0     981.2    NA       0.0000   9999     460   0     0    
2019/07/21  13:07:00  BASE  1.3524   30   1.60524  30   -7.4  100   -7.4  1     0     981.2    NA       0.0000   9999     460   1610  0    
2019/07/21  13:08:00  BASE  1.30536  33   1.60524  30   -7.4  100   -7.4  1     0     981.2    NA       0.0000   9999     520   0     0    
2019/07/21  13:09:00  BASE  1.323    34   1.60524  30   -7.4  100   -7.4  2     0     981.2    NA       0.0000   9999     620   0     0    
2019/07/21  13:10:00  BASE  1.19364  33   1.60524  30   -7.4  100   -7.4  2     0     981.2    NA       0.0000   9999     590   0     0    
2019/07/21  13:11:00  BASE  1.2054   31   1.60524  30   -7.4  100   -7.4  2     0     981.2    NA       0.0000   9999     590   0     0    
2019/07/21  13:12:00  BASE  1.323    29   1.63464  26   -7.4  100   -7.4  2     0     981.2    NA       0.0000   9999     490   0     0    
2019/07/21  13:13:00  BASE  1.47     27   1.69344  20   -7.4  100   -7.4  2     0     981.2    NA       0.0000   9999     490   920   0    
2019/07/21  13:14:00  BASE  1.42884  26   1.69344  20   -7.4  100   -7.4  2     0     981.2    NA       0.0000   9999     490   950   0    
2019/07/21  13:15:00  BASE  1.34064  25   1.69344  20   -7.3  100   -7.3  2     0     981.2    NA       0.0000   9999     520   1540  0    
2019/07/21  13:16:00  BASE  1.37004  27   1.69344  20   -7.4  100   -7.4  2     0     981.2    NA       0.0000   9999     490   1480  0    
2019/07/21  13:17:00  BASE  1.42296  28   1.69344  20   -7.4  100   -7.4  2     0     981.2    NA       0.0000   9999     490   920   0    
2019/07/21  13:18:00  BASE  1.48764  28   1.69344  20   -7.4  100   -7.4  3     0     981.2    NA       0.0000   9999     490   890   0    
2019/07/21  13:19:00  BASE  1.52292  31   1.69344  20   -7.4  100   -7.4  3     0     981.2    NA       0.0000   9999     520   920   0    
2019/07/21  13:20:00  BASE  1.50528  29   1.69344  20   -7.4  100   -7.4  3     0     981.2    NA       0.0000   9999     560   0     0    
2019/07/21  13:21:00  BASE  1.38768  30   1.69344  20   -7.4  100   -7.4  3     0     981.2    NA       0.0000   9999     520   950   0    
2019/07/21  13:22:00  BASE  1.43472  27   1.93452  14   -7.3  100   -7.3  4     0     981.2    NA       0.0000   9999     560   0     0    
2019/07/21  13:23:00  BASE  1.55232  22   1.93452  14   -7.3  100   -7.3  4     0     981.2    NA       0.0000   9999     620   0     0    
2019/07/21  13:24:00  BASE  1.49352  25   1.93452  14   -7.3  100   -7.3  4     0     981.2    NA       0.0000   9999     660   0     0    
2019/07/21  13:25:00  BASE  1.47     17   1.93452  14   -7.3  100   -7.3  4     0     981.2    NA       0.0000   9999     660   0     0    
2019/07/21  13:26:00  BASE  1.41708  2    1.93452  14   -7.3  100   -7.3  4     0     981.2    NA       0.0000   9999     720   0     0    
2019/07/21  13:27:00  BASE  1.30536  8    1.93452  14   -7.3  100   -7.3  4     0     981.2    NA       0.0000   9999     750   1210  0    
2019/07/21  13:28:00  BASE  1.33476  18   1.93452  14   -7.2  100   -7.2  4     0     981.2    NA       0.0000   9999     690   1280  0    
2019/07/21  13:29:00  BASE  1.40532  25   1.93452  14   -7.2  100   -7.2  5     0     981.2    NA       0.0000   9999     690   1250  0    
2019/07/21  13:30:00  BASE  1.47     25   1.93452  14   -7.2  100   -7.2  5     0     981.2    NA       0.0000   9999     850   0     0    
2019/07/21  13:31:00  BASE  1.61112  19   1.93452  14   -7.2  100   -7.2  5     0     981.2    NA       0.0000   9999     1280  0     0    
2019/07/21  13:32:00  BASE  1.66404  13   1.90512  21   -7.2  100   -7.2  5     0     981.2    NA       0.0000   9999     1250  0     0    
2019/07/21  13:33:00  BASE  1.74636  15   1.9992   16   -7.2  100   -7.2  5     0     981.2    NA       0.0000   9999     1250  0     0    
2019/07/21  13:34:00  BASE  1.80516  18   2.0874   18   -7.2  100   -7.2  5     0     981.1    NA       0.0000   9999     1250  0     0    
2019/07/21  13:35:00  BASE  1.72284  18   2.0874   18   -7.2  100   -7.2  5     0     981.0    NA       0.0000   9999     1210  0     0    
2019/07/21  13:36:00  BASE  1.7346   21   2.0874   18   -7.2  100   -7.2  5     0     981.0    NA       0.0000   9999     1250  0     0    
2019/07/21  13:37:00  BASE  1.66404  26   2.0874   18   -7.2  100   -7.2  6     0     981.0    NA       0.0000   9999     1350  0     0    
2019/07/21  13:38:00  BASE  1.59348  33   2.0874   18   -7.2  100   -7.2  6     0     981.0    NA       0.0000   9999     1440  0     0    
2019/07/21  13:39:00  BASE  1.71696  30   2.0874   18   -7.3  100   -7.3  6     0     981.0    NA       0.0000   9999     1480  0     0    
2019/07/21  13:40:01  BASE  1.8228   29   2.0874   26   -7.3  100   -7.3  6     0     981.0    NA       0.0000   9999     1570  0     0    
2019/07/21  13:41:01  BASE  1.84632  31   2.0874   26   -7.3  100   -7.3  6     0     981.0    NA       0.0000   9999     750   1510  0    
2019/07/21  13:42:01  BASE  1.81692  31   2.0874   26   -7.3  100   -7.3  7     0     981.0    NA       0.0000   9999     720   1480  0    
2019/07/21  13:43:01  BASE  1.764    26   2.29908  29   -7.3  100   -7.3  7     0     981.0    NA       0.0000   9999     620   1440  0    
2019/07/21  13:44:01  BASE  1.60524  25   2.29908  29   -7.3  100   -7.3  7     0     981.0    NA       0.0000   9999     560   1410  0    
2019/07/21  13:45:01  BASE  1.48176  23   2.29908  29   -7.3  100   -7.3  7     0     981.0    NA       0.0000   9999     560   1440  0    
2019/07/21  13:46:01  BASE  1.81692  19   2.45196  21   -7.3  100   -7.3  8     0     981.0    NA       0.0000   9999     520   1380  0    
2019/07/21  13:47:01  BASE  1.98156  17   2.45196  21   -7.3  100   -7.3  8     0     981.0    NA       0.0000   9999     490   1410  0    
2019/07/21  13:48:01  BASE  1.7934   12   2.45196  21   -7.3  100   -7.3  8     0     981.0    NA       0.0000   9999     660   1380  0    
2019/07/21  13:49:01  BASE  1.84632  13   2.45196  21   -7.2  100   -7.2  9     0     981.0    NA       0.0000   9999     430   0     0    
2019/07/21  13:50:01  BASE  1.71108  21   2.45196  21   -7.2  100   -7.2  9     0     981.0    NA       0.0000   9999     330   0     0    
2019/07/21  13:51:01  BASE  1.63464  30   2.45196  21   -7.2  100   -7.2  9     0     981.0    NA       0.0000   9999     560   0     0    
2019/07/21  13:52:01  BASE  1.92864  32   2.45196  21   -7.2  100   -7.2  10    0     981.0    NA       0.0000   9999     520   0     0    
2019/07/21  13:53:01  BASE  2.22852  27   2.69304  18   -7.3  100   -7.3  10    0     981.0    NA       0.0000   9999     520   1770  0    
2019/07/21  13:54:01  BASE  2.15796  22   2.69304  18   -7.3  100   -7.3  11    0     981.0    NA       0.0000   9999     430   0     0    
2019/07/21  13:55:01  BASE  1.59936  19   2.69304  18   -7.3  100   -7.3  11    0     981.0    NA       0.0000   9999     230   0     0    
2019/07/21  13:56:01  BASE  1.60524  14   2.69304  18   -7.2  100   -7.2  12    0     981.0    NA       0.0000   9999     330   0     0    
2019/07/21  13:57:01  BASE  2.16384  2    2.75184  3    -7.2  100   -7.2  12    0     981.0    NA       0.0000   9999     360   0     0    
2019/07/21  13:58:01  BASE  2.2932   358  2.75184  3    -7.1  100   -7.1  12    0     981.0    NA       0.0000   9999     360   0     0    
2019/07/21  13:59:01  BASE  2.28144  10   2.75184  3    -7.0  100   -7.0  13    0     981.0    NA       0.0000   9999     230   0     0    
2019/07/21  14:00:01  BASE  2.27556  15   2.75184  3    -7.0  100   -7.0  14    0     981.0    NA       0.0000   9999     260   0     0    
2019/07/21  14:01:01  BASE  2.25792  15   2.75184  17   -6.9  100   -6.9  14    0     981.0    NA       0.0000   9999     330   0     0    
2019/07/21  14:02:01  BASE  2.45784  14   2.93412  14   -6.9  100   -6.9  14    0     981.0    NA       0.0000   9999     460   1840  0    
2019/07/21  14:03:01  BASE  2.5872   14   2.93412  14   -7.0  100   -7.0  14    0     981.0    NA       0.0000   9999     260   0     0    
2019/07/21  14:04:01  BASE  2.58132  17   2.93412  14   -7.0  100   -7.0  15    0     981.0    NA       0.0000   9999     260   0     0    
2019/07/21  14:05:01  BASE  2.58132  20   2.93412  14   -7.1  100   -7.1  15    0     980.9    NA       0.0000   9999     230   0     0    
2019/07/21  14:06:01  BASE  2.48724  23   2.93412  14   -7.2  100   -7.2  15    0     980.9    NA       0.0000   9999     260   0     0    
2019/07/21  14:07:01  BASE  2.44608  26   2.93412  14   -7.2  100   -7.2  15    0     980.9    NA       0.0000   9999     260   1870  0    
2019/07/21  14:08:01  BASE  2.499    28   2.93412  14   -7.3  100   -7.3  15    0     980.9    NA       0.0000   9999     360   1900  0    
2019/07/21  14:09:01  BASE  2.4696   32   2.93412  14   -7.4  100   -7.4  15    0     980.9    NA       0.0000   9999     330   1870  0    
2019/07/21  14:10:01  BASE  2.41668  33   2.93412  14   -7.4  100   -7.4  16    0     980.9    NA       0.0000   9999     1900  0     0    
2019/07/21  14:11:01  BASE  2.36964  31   2.93412  14   -7.5  100   -7.5  16    0     980.9    NA       0.0000   9999     720   1840  0    
2019/07/21  14:12:01  BASE  2.24616  31   2.81064  30   -7.6  100   -7.6  16    0     980.9    NA       0.0000   9999     590   1900  0    
2019/07/21  14:13:01  BASE  2.22264  26   2.81064  30   -7.6  100   -7.6  16    0     980.8    NA       0.0000   9999     660   0     0    
2019/07/21  14:14:01  BASE  2.25204  26   2.81064  30   -7.5  100   -7.5  16    0     980.8    NA       0.0000   9999     560   0     0    
2019/07/21  14:15:01  BASE  2.1462   28   2.81064  30   -7.5  100   -7.5  16    0     980.8    NA       0.0000   9999     430   0     0    
2019/07/21  14:16:01  BASE  2.06976  15   2.81064  30   -7.4  100   -7.4  16    0     980.8    NA       0.0000   9999     390   0     0    
2019/07/21  14:17:01  BASE  1.98156  355  2.78124  24   -7.3  100   -7.3  16    0     980.8    NA       0.0000   9999     330   0     0    
2019/07/21  14:18:01  BASE  1.8228   358  2.78124  24   -7.2  100   -7.2  16    0     980.8    NA       0.0000   9999     300   0     0    
2019/07/21  14:19:01  BASE  1.96392  13   2.78124  24   -7.2  100   -7.2  17    0     980.8    NA       0.0000   9999     1840  0     0    
2019/07/21  14:20:01  BASE  2.12268  20   2.78124  24   -7.2  100   -7.2  17    0     980.7    NA       0.0000   9999     1800  0     0    
2019/07/21  14:21:01  BASE  1.9992   23   2.48136  4    -7.2  100   -7.2  17    0     980.7    NA       0.0000   9999     560   0     0    
2019/07/21  14:22:01  BASE  1.95804  29   2.48136  4    -7.2  100   -7.2  17    0     980.7    NA       0.0000   9999     620   0     0    
2019/07/21  14:23:01  BASE  2.14032  38   2.48136  43   -7.3  100   -7.3  17    0     980.7    NA       0.0000   9999     660   0     0    
2019/07/21  14:24:01  BASE  2.2344   38   2.48136  43   -7.3  100   -7.3  17    0     980.7    NA       0.0000   9999     0     0     0    
2019/07/21  14:25:01  BASE  2.2344   33   2.51076  34   -7.4  100   -7.4  17    0     980.7    NA       0.0000   9999     0     0     0    
2019/07/21  14:26:01  BASE  2.32848  30   2.75184  21   -7.5  100   -7.5  18    0     980.7    NA       0.0000   9999     720   0     0    
2019/07/21  14:27:01  BASE  2.34024  28   2.75184  21   -7.5  100   -7.5  18    0     980.7    NA       0.0000   9999     0     0     0    
2019/07/21  14:28:01  BASE  2.27556  31   2.75184  37   -7.5  100   -7.5  19    0     980.8    NA       0.0000   9999     0     0     0    
2019/07/21  14:29:01  BASE  2.1756   33   2.75184  37   -7.5  100   -7.5  20    0     980.8    NA       0.0000   9999     0     0     0    
2019/07/21  14:30:01  BASE  2.16384  27   2.75184  37   -7.5  100   -7.5  20    0     980.8    NA       0.0000   9999     0     0     0    
2019/07/21  14:31:01  BASE  1.9992   18   2.75184  37   -7.5  100   -7.5  21    0     980.9    NA       0.0000   9999     0     0     0    
2019/07/21  14:32:01  BASE  2.18148  13   2.75184  37   -7.5  100   -7.5  22    0     980.9    NA       0.0000   9999     0     0     0    
2019/07/21  14:33:01  BASE  2.46372  11   2.75184  37   -7.5  100   -7.5  22    0     980.9    NA       0.0000   9999     0     0     0    
2019/07/21  14:34:01  BASE  2.21676  13   2.75184  37   -7.5  100   -7.5  23    0     980.9    NA       0.0000   9999     2000  0     0    
2019/07/21  14:35:01  BASE  1.8228   15   2.75184  37   -7.4  100   -7.4  23    0     980.9    NA       0.0000   9999     790   2000  0    
2019/07/21  14:36:01  BASE  1.7934   12   2.75184  37   -7.4  100   -7.4  23    0     980.9    NA       0.0000   9999     750   2030  0    
2019/07/21  14:37:01  BASE  1.9698   11   2.75184  37   -7.4  100   -7.4  23    0     980.9    NA       0.0000   9999     850   2070  0    
2019/07/21  14:38:01  BASE  1.90512  12   2.63424  8    -7.4  100   -7.4  23    0     980.9    NA       0.0000   9999     0     0     0    
2019/07/21  14:39:01  BASE  1.8228   15   2.63424  8    -7.4  100   -7.4  23    0     980.9    NA       0.0000   9999     0     0     0    
2019/07/21  14:40:01  BASE  1.75224  19   2.63424  8    -7.4  100   -7.4  23    0     980.9    NA       0.0000   9999     950   0     0    
2019/07/21  14:41:01  BASE  1.75812  16   2.63424  8    -7.5  100   -7.5  23    0     980.9    NA       0.0000   9999     720   0     0    
2019/07/21  14:42:01  BASE  1.8522   9    2.63424  8    -7.5  100   -7.5  22    0     980.9    NA       0.0000   9999     660   0     0    
2019/07/21  14:43:01  BASE  1.9404   8    2.48136  2    -7.4  100   -7.4  22    0     980.9    NA       0.0000   9999     720   0     0    
2019/07/21  14:44:01  BASE  2.09328  11   2.48136  2    -7.4  100   -7.4  22    0     980.9    NA       0.0000   9999     720   0     0    
2019/07/21  14:45:01  BASE  2.18148  13   2.48136  2    -7.4  100   -7.4  21    0     980.9    NA       0.0000   9999     850   0     0    
2019/07/21  14:46:01  BASE  2.01684  18   2.48136  2    -7.3  100   -7.3  21    0     980.9    NA       0.0000   9999     790   0     0    
2019/07/21  14:47:01  BASE  1.911    16   2.81064  2    -7.3  100   -7.3  21    0     980.9    NA       0.0000   9999     0     0     0    
2019/07/21  14:48:01  BASE  2.0874   7    2.81064  353  -7.3  100   -7.3  21    0     980.9    NA       0.0000   9999     0     0     0    
2019/07/21  14:49:01  BASE  2.12268  1    2.81064  353  -7.2  100   -7.2  21    0     981.0    NA       0.0000   9999     790   0     0    
2019/07/21  14:50:01  BASE  2.04624  360  2.81064  353  -7.2  100   -7.2  22    0     981.0    NA       0.0000   9999     660   0     0    
2019/07/21  14:51:01  BASE  2.1462   357  2.81064  353  -7.1  100   -7.1  22    0     981.0    NA       0.0000   9999     560   0     0    
2019/07/21  14:52:01  BASE  2.21676  0    2.81064  353  -7.1  100   -7.1  22    0     981.0    NA       0.0000   9999     390   0     0    
2019/07/21  14:53:01  BASE  2.205    4    2.81064  353  -7.0  100   -7.0  23    0     981.0    NA       0.0000   9999     430   0     0    
2019/07/21  14:54:01  BASE  2.1756   1    2.81064  353  -7.0  100   -7.0  23    0     981.0    NA       0.0000   9999     490   0     0    
2019/07/21  14:55:01  BASE  2.18148  351  2.81064  353  -7.0  100   -7.0  23    0     981.0    NA       0.0000   9999     520   0     0    
2019/07/21  14:56:01  BASE  2.18148  342  2.81064  353  -7.0  100   -7.0  23    0     981.0    NA       0.0000   9999     460   0     0    
2019/07/21  14:57:01  BASE  2.16384  342  2.81064  353  -6.9  100   -6.9  24    0     981.0    NA       0.0000   9999     430   0     0    
2019/07/21  14:58:01  BASE  2.05212  348  2.42256  331  -6.9  100   -6.9  25    0     981.0    NA       0.0000   9999     260   0     0    
2019/07/21  14:59:01  BASE  1.8816   354  2.42256  331  -6.8  100   -6.8  24    0     981.0    NA       0.0000   9999     200   0     0    
2019/07/21  15:00:01  BASE  1.92864  354  2.42256  331  -6.8  100   -6.8  24    0     981.0    NA       0.0000   9999     430   0     0    
2019/07/21  15:01:01  BASE  2.08152  354  2.42256  331  -6.9  100   -6.9  24    0     981.0    NA       0.0000   9999     520   0     0    
2019/07/21  15:02:01  BASE  1.96392  359  2.42256  331  -6.9  100   -6.9  24    0     981.0    NA       0.0000   9999     520   0     0    
2019/07/21  15:03:01  BASE  1.99332  0    2.42256  2    -6.9  100   -6.9  24    0     981.0    NA       0.0000   9999     620   0     0    
2019/07/21  15:04:01  BASE  2.12268  0    2.42256  2    -6.9  100   -6.9  24    0     981.0    NA       0.0000   9999     720   0     0    
2019/07/21  15:05:01  BASE  1.97568  11   2.42256  2    -7.0  100   -7.0  24    0     981.0    NA       0.0000   9999     750   0     0    
2019/07/21  15:06:01  BASE  2.02272  19   2.42256  2    -7.0  100   -7.0  25    0     981.0    NA       0.0000   9999     750   0     0    
2019/07/21  15:07:01  BASE  2.08152  20   2.42256  2    -7.1  100   -7.1  25    0     981.0    NA       0.0000   9999     620   0     0    
2019/07/21  15:08:01  BASE  1.95216  27   2.42256  2    -7.1  100   -7.1  26    0     981.0    NA       0.0000   9999     690   0     0    
2019/07/21  15:09:01  BASE  1.8522   32   2.42256  2    -7.2  100   -7.2  27    0     981.0    NA       0.0000   9999     790   0     0    
2019/07/21  15:10:01  BASE  1.9698   32   2.42256  2    -7.2  100   -7.2  28    0     981.0    NA       0.0000   9999     850   0     0    
2019/07/21  15:11:01  BASE  2.09916  24   2.42256  2    -7.2  100   -7.2  29    0     981.0    NA       0.0000   9999     820   0     0    
2019/07/21  15:12:01  BASE  2.07564  20   2.42256  2    -7.2  100   -7.2  29    0     981.0    NA       0.0000   9999     790   0     0    
2019/07/21  15:13:01  BASE  2.12856  23   2.38728  16   -7.2  100   -7.2  30    0     981.0    NA       0.0000   9999     660   0     0    
2019/07/21  15:14:01  BASE  2.1756   24   2.38728  16   -7.2  100   -7.2  30    0     981.0    NA       0.0000   9999     590   0     0    
2019/07/21  15:15:01  BASE  2.22264  24   2.45196  19   -7.2  100   -7.2  29    0     981.0    NA       0.0000   9999     620   0     0    
2019/07/21  15:16:01  BASE  2.24028  26   2.48136  23   -7.2  100   -7.2  29    0     981.0    NA       0.0000   9999     620   0     0    
2019/07/21  15:17:00  BASE  2.35788  25   2.66364  24   -7.2  100   -7.2  29    0     981.0    NA       0.0000   9999     520   0     0    
2019/07/21  15:18:01  BASE  2.44608  20   2.75184  16   -7.2  100   -7.2  29    0     981.0    NA       0.0000   9999     560   0     0    
2019/07/21  15:19:01  BASE  2.33436  19   2.75184  16   -7.2  100   -7.2  29    0     981.0    NA       0.0000   9999     590   0     0    
2019/07/21  15:20:01  BASE  2.25204  19   2.75184  16   -7.2  100   -7.2  30    0     981.0    NA       0.0000   9999     620   0     0    
2019/07/21  15:21:01  BASE  2.46372  15   2.93412  2    -7.2  100   -7.2  30    0     981.0    NA       0.0000   9999     690   1180  0    
2019/07/21  15:22:00  BASE  2.71656  7    2.93412  2    -7.2  100   -7.2  31    0     981.0    NA       0.0000   9999     620   0     0    
2019/07/21  15:23:00  BASE  2.54604  2    2.93412  2    -7.2  100   -7.2  32    0     981.0    NA       0.0000   9999     620   0     0    
2019/07/21  15:24:01  BASE  2.45784  357  2.93412  2    -7.1  100   -7.1  33    0     981.0    NA       0.0000   9999     560   0     0    
2019/07/21  15:25:01  BASE  2.56956  353  2.93412  2    -7.1  100   -7.1  35    0     981.0    NA       0.0000   9999     390   5120  0    
2019/07/21  15:26:01  BASE  2.499    354  2.93412  2    -7.0  100   -7.0  38    0     981.0    NA       0.0000   9999     260   5090  0    
2019/07/21  15:27:00  BASE  2.30496  358  2.93412  2    -7.0  100   -7.0  39    0     981.0    NA       0.0000   9999     260   0     0    
2019/07/21  15:28:00  BASE  2.34024  1    2.93412  2    -6.9  100   -6.9  39    0     981.0    NA       0.0000   9999     330   0     0    
2019/07/21  15:29:00  BASE  2.33436  356  2.93412  2    -6.9  100   -6.9  39    0     981.0    NA       0.0000   9999     300   0     0    
2019/07/21  15:30:01  BASE  2.04624  350  2.93412  2    -6.9  100   -6.9  39    0     981.0    NA       0.0000   9999     430   0     0    
2019/07/21  15:31:00  BASE  2.0286   353  2.87532  8    -6.9  100   -6.9  40    0     981.0    NA       0.0000   9999     430   0     0    
2019/07/21  15:32:00  BASE  2.03448  356  2.78124  6    -6.9  100   -6.9  44    0     981.0    NA       0.0000   9999     0     0     0    
2019/07/21  15:33:00  BASE  1.96392  351  2.78124  6    -7.0  100   -7.0  49    0     981.0    NA       0.0000   9999     5280  0     0    
2019/07/21  15:34:00  BASE  1.86396  352  2.78124  6    -7.0  100   -7.0  55    0     981.0    NA       0.0000   9999     5320  0     0    
2019/07/21  15:35:00  BASE  1.9698   358  2.78124  6    -7.0  100   -7.0  53    0     981.0    NA       0.0000   9999     430   5380  0    
2019/07/21  15:36:00  BASE  2.21088  356  2.78124  6    -7.0  100   -7.0  55    0     981.0    NA       0.0000   9999     490   5280  0    
2019/07/21  15:37:00  BASE  2.18736  355  2.78124  6    -7.0  100   -7.0  59    0     981.0    NA       0.0000   9999     490   5250  0    
2019/07/21  15:38:01  BASE  2.08152  359  2.56956  354  -7.0  100   -7.0  61    0     981.0    NA       0.0000   9999     300   5220  0    
2019/07/21  15:39:01  BASE  1.92276  2    2.56956  354  -7.0  100   -7.0  58    0     981.0    NA       0.0000   9999     230   0     0    
2019/07/21  15:40:01  BASE  1.81692  2    2.56956  354  -7.0  100   -7.0  58    0     981.0    NA       0.0000   9999     430   5350  0    
2019/07/21  15:41:01  BASE  1.69344  2    2.56956  354  -6.9  100   -6.9  59    0     981.0    NA       0.0000   9999     690   5180  0    
2019/07/21  15:42:01  BASE  1.77576  9    2.56956  354  -6.9  100   -6.9  55    0     981.0    NA       0.0000   9999     5180  0     0    
2019/07/21  15:43:01  BASE  2.12268  22   2.56956  354  -7.0  100   -7.0  51    0     981.0    NA       0.0000   9999     620   5180  0    
2019/07/21  15:44:00  BASE  2.352    32   2.63424  41   -7.0  100   -7.0  44    0     981.0    NA       0.0000   9999     590   5350  0    
2019/07/21  15:45:00  BASE  2.34024  35   2.78124  41   -7.2  100   -7.2  41    0     981.0    NA       0.0000   9999     5280  0     0    
2019/07/21  15:46:00  BASE  2.31672  35   2.78124  31   -7.3  100   -7.3  41    0     981.0    NA       0.0000   9999     720   5350  0    
2019/07/21  15:47:00  BASE  2.4402   35   2.78124  31   -7.4  100   -7.4  41    0     981.0    NA       0.0000   9999     720   5380  0    
2019/07/21  15:48:00  BASE  2.46372  31   2.78124  31   -7.5  100   -7.5  44    0     981.0    NA       0.0000   9999     5280  0     0    
2019/07/21  15:49:00  BASE  2.4402   23   2.81064  16   -7.5  100   -7.5  52    0     980.9    NA       0.0000   9999     5320  0     0    
2019/07/21  15:50:00  BASE  2.51076  24   2.84592  32   -7.5  100   -7.5  51    0     980.9    NA       0.0000   9999     5280  0     0    
2019/07/21  15:51:00  BASE  2.42256  27   2.84592  32   -7.5  100   -7.5  53    0     980.9    NA       0.0000   9999     5180  0     0    
2019/07/21  15:52:00  BASE  2.37552  21   2.84592  32   -7.5  100   -7.5  53    0     980.9    NA       0.0000   9999     5220  0     0    
2019/07/21  15:53:00  BASE  2.3226   13   2.84592  32   -7.4  100   -7.4  56    0     980.9    NA       0.0000   9999     5150  0     0    
2019/07/21  15:54:00  BASE  2.15208  13   2.84592  32   -7.4  100   -7.4  59    0     980.9    NA       0.0000   9999     5180  0     0    
2019/07/21  15:55:00  BASE  2.058    17   2.84592  32   -7.3  100   -7.3  71    0     980.9    NA       0.0000   9999     5150  0     0    
2019/07/21  15:56:00  BASE  1.9698   21   2.84592  32   -7.2  100   -7.2  76    0     980.8    NA       0.0000   9999     5090  0     0    
2019/07/21  15:57:00  BASE  1.98156  30   2.84592  32   -7.2  100   -7.2  78    0     980.8    NA       0.0000   9999     5090  0     0    
2019/07/21  15:58:00  BASE  2.2344   37   2.84592  32   -7.1  100   -7.1  80    0     980.8    NA       0.0000   9999     5050  0     0    
2019/07/21  15:59:00  BASE  2.352    35   2.84592  32   -7.2  100   -7.2  82    0     980.8    NA       0.0000   9999     4920  0     0    
2019/07/21  16:00:00  BASE  2.21676  37   2.63424  32   -7.2  100   -7.2  85    0     980.8    NA       0.0000   9999     5020  0     0    
2019/07/21  16:01:00  BASE  2.14032  42   2.63424  32   -7.3  100   -7.3  87    0     980.8    NA       0.0000   9999     4920  0     0    
2019/07/21  16:02:00  BASE  2.09916  43   2.63424  32   -7.3  100   -7.3  89    0     980.8    NA       0.0000   9999     4950  0     0    
2019/07/21  16:03:00  BASE  2.03448  44   2.63424  32   -7.3  100   -7.3  90    0     980.7    NA       0.0000   9999     4920  0     0    
2019/07/21  16:04:00  BASE  2.03448  45   2.63424  32   -7.3  100   -7.3  91    0     980.7    NA       0.0000   9999     4890  0     0    
2019/07/21  16:05:00  BASE  1.9992   42   2.63424  32   -7.3  100   -7.3  91    0     980.7    NA       0.0000   9999     4950  0     0    
2019/07/21  16:06:00  BASE  1.94628  40   2.63424  32   -7.2  100   -7.2  92    0     980.7    NA       0.0000   9999     4820  0     0    
2019/07/21  16:07:00  BASE  2.05212  41   2.63424  32   -7.2  100   -7.2  92    0     980.7    NA       0.0000   9999     4920  0     0    
2019/07/21  16:08:00  BASE  2.22852  43   2.54016  40   -7.2  100   -7.2  93    0     980.7    NA       0.0000   9999     4790  0     0    
2019/07/21  16:09:00  BASE  2.33436  45   2.54016  43   -7.2  100   -7.2  93    0     980.7    NA       0.0000   9999     4920  0     0    
2019/07/21  16:10:00  BASE  2.22852  45   2.54016  42   -7.2  100   -7.2  93    0     980.7    NA       0.0000   9999     4890  0     0    
2019/07/21  16:11:00  BASE  2.06388  46   2.54016  42   -7.2  100   -7.2  93    0     980.6    NA       0.0000   9999     4890  0     0    
2019/07/21  16:12:00  BASE  1.94628  43   2.54016  42   -7.2  100   -7.2  93    0     980.6    NA       0.0000   9999     4820  0     0    
2019/07/21  16:13:00  BASE  1.95804  39   2.54016  42   -7.3  100   -7.3  94    0     980.6    NA       0.0000   9999     4820  0     0    
2019/07/21  16:14:00  BASE  2.05212  39   2.54016  42   -7.2  100   -7.2  94    0     980.6    NA       0.0000   9999     4760  0     0    
2019/07/21  16:15:00  BASE  2.03448  37   2.54016  42   -7.2  100   -7.2  91    0     980.6    NA       0.0000   9999     4790  0     0    
2019/07/21  16:16:00  BASE  2.04624  34   2.54016  42   -7.2  100   -7.2  83    0     980.6    NA       0.0000   9999     4790  0     0    
2019/07/21  16:17:00  BASE  2.10504  33   2.54016  42   -7.1  100   -7.1  91    0     980.6    NA       0.0000   9999     4760  0     0    
2019/07/21  16:18:00  BASE  2.07564  33   2.54016  42   -7.1  100   -7.1  95    0     980.6    NA       0.0000   9999     4790  0     0    
2019/07/21  16:19:00  BASE  2.06388  30   2.54016  42   -7.0  100   -7.0  94    0     980.6    NA       0.0000   9999     4720  0     0    
2019/07/21  16:20:00  BASE  2.11092  28   2.32848  38   -7.0  100   -7.0  93    0     980.6    NA       0.0000   9999     4690  0     0    
2019/07/21  16:21:00  BASE  2.15208  28   2.35788  28   -6.9  100   -6.9  91    0     980.6    NA       0.0000   9999     4720  0     0    
2019/07/21  16:22:00  BASE  2.06388  26   2.35788  28   -6.9  100   -6.9  90    0     980.6    NA       0.0000   9999     4720  0     0    
2019/07/21  16:23:00  BASE  2.00508  28   2.42256  29   -6.9  100   -6.9  88    0     980.6    NA       0.0000   9999     4790  0     0    
2019/07/21  16:24:00  BASE  2.11092  29   2.54016  25   -6.9  100   -6.9  87    0     980.6    NA       0.0000   9999     4660  0     0    
2019/07/21  16:25:00  BASE  2.19912  25   2.56956  26   -6.8  100   -6.8  86    0     980.6    NA       0.0000   9999     4660  0     0    
2019/07/21  16:26:00  BASE  2.18736  21   2.56956  26   -6.8  100   -6.8  84    0     980.5    NA       0.0000   9999     4690  0     0    
2019/07/21  16:27:00  BASE  2.22264  19   2.56956  26   -6.8  100   -6.8  83    0     980.5    NA       0.0000   9999     4660  0     0    
2019/07/21  16:28:00  BASE  2.2344   21   2.56956  26   -6.8  100   -6.8  82    0     980.4    NA       0.0000   9999     4690  0     0    
2019/07/21  16:29:00  BASE  2.01684  22   2.56956  26   -6.8  100   -6.8  81    0     980.4    NA       0.0000   9999     4720  0     0    
2019/07/21  16:30:00  BASE  1.9698   20   2.56956  26   -6.8  100   -6.8  80    0     980.4    NA       0.0000   9999     4690  0     0    
2019/07/21  16:31:00  BASE  2.01096  19   2.56956  26   -6.8  100   -6.8  79    0     980.4    NA       0.0000   9999     4690  0     0    
2019/07/21  16:32:00  BASE  1.95216  21   2.56956  26   -6.8  100   -6.8  78    0     980.4    NA       0.0000   9999     4690  0     0    
2019/07/21  16:33:01  BASE  2.05212  17   2.56956  26   -6.8  100   -6.8  76    0     980.4    NA       0.0000   9999     4820  0     0    
2019/07/21  16:34:01  BASE  2.04624  14   2.56956  26   -6.8  100   -6.8  76    0     980.4    NA       0.0000   9999     4720  0     0    
2019/07/21  16:35:01  BASE  2.08152  19   2.54016  11   -6.8  100   -6.8  75    0     980.4    NA       0.0000   9999     0     0     0    
2019/07/21  16:36:01  BASE  2.13444  12   2.54016  11   -6.8  100   -6.8  75    0     980.4    NA       0.0000   9999     0     0     0    
2019/07/21  16:37:01  BASE  1.94628  12   2.54016  11   -6.8  100   -6.8  75    0     980.4    NA       0.0000   9999     0     0     0    
2019/07/21  16:38:01  BASE  1.764    13   2.54016  11   -6.8  100   -6.8  75    0     980.4    NA       0.0000   9999     0     0     0    
2019/07/21  16:39:01  BASE  1.65228  5    2.54016  11   -6.8  100   -6.8  75    0     980.4    NA       0.0000   9999     0     0     0    
2019/07/21  16:40:01  BASE  1.68756  3    2.54016  11   -6.8  100   -6.8  75    0     980.4    NA       0.0000   9999     0     0     0    
2019/07/21  16:41:01  BASE  1.78752  358  2.54016  11   -6.8  100   -6.8  75    0     980.4    NA       0.0000   9999     0     0     0    
2019/07/21  16:42:01  BASE  1.82868  358  2.54016  11   -6.7  100   -6.7  74    0     980.4    NA       0.0000   9999     0     0     0    
2019/07/21  16:43:01  BASE  1.911    357  2.54016  11   -6.7  100   -6.7  71    0     980.4    NA       0.0000   9999     0     0     0    
2019/07/21  16:44:01  BASE  2.04036  357  2.54016  11   -6.7  100   -6.7  72    0     980.4    NA       0.0000   9999     0     0     0    
2019/07/21  16:45:01  BASE  1.95216  359  2.29908  346  -6.7  100   -6.7  69    0     980.4    NA       0.0000   9999     5250  0     0    
2019/07/21  16:46:01  BASE  1.89336  350  2.29908  346  -6.7  100   -6.7  50    0     980.4    NA       0.0000   9999     5220  0     0    
2019/07/21  16:47:01  BASE  1.95216  343  2.29908  346  -6.7  100   -6.7  44    0     980.4    NA       0.0000   9999     5180  0     0    
2019/07/21  16:48:01  BASE  1.82868  345  2.29908  346  -6.7  100   -6.7  42    0     980.4    NA       0.0000   9999     5150  0     0    
2019/07/21  16:49:01  BASE  1.81104  349  2.29908  346  -6.7  100   -6.7  41    0     980.4    NA       0.0000   9999     5150  0     0    
2019/07/21  16:50:01  BASE  2.0286   356  2.35788  147  -6.7  100   -6.7  41    0     980.4    NA       0.0000   9999     5090  0     0    
2019/07/21  16:51:01  BASE  2.14032  356  2.35788  147  -6.7  100   -6.7  41    0     980.4    NA       0.0000   9999     5180  0     0    
2019/07/21  16:52:01  BASE  2.1462   356  2.38728  360  -6.7  100   -6.7  41    0     980.4    NA       0.0000   9999     5180  0     0    
2019/07/21  16:53:01  BASE  2.11092  8    2.38728  360  -6.7  100   -6.7  41    0     980.4    NA       0.0000   9999     5180  0     0    
2019/07/21  16:54:01  BASE  2.05212  13   2.38728  360  -6.7  100   -6.7  42    0     980.4    NA       0.0000   9999     5150  0     0    
2019/07/21  16:55:01  BASE  2.06388  7    2.38728  360  -6.8  100   -6.8  42    0     980.4    NA       0.0000   9999     5090  0     0    
2019/07/21  16:56:01  BASE  2.0286   5    2.38728  360  -6.8  100   -6.8  42    0     980.4    NA       0.0000   9999     5020  0     0    
2019/07/21  16:57:01  BASE  1.92864  360  2.38728  360  -6.8  100   -6.8  43    0     980.4    NA       0.0000   9999     4890  0     0    
2019/07/21  16:58:01  BASE  1.71108  353  2.38728  360  -6.8  100   -6.8  44    0     980.4    NA       0.0000   9999     4890  0     0    
2019/07/21  16:59:01  BASE  1.62876  1    2.38728  360  -6.8  100   -6.8  45    0     980.4    NA       0.0000   9999     5090  0     0    
2019/07/21  17:00:01  BASE  1.59348  9    2.38728  360  -6.7  100   -6.7  46    0     980.4    NA       0.0000   9999     4950  0     0    
2019/07/21  17:01:01  BASE  1.51116  2    2.38728  360  -6.8  100   -6.8  48    0     980.4    NA       0.0000   9999     4990  0     0    
2019/07/21  17:02:01  BASE  1.57584  3    2.29908  16   -6.8  100   -6.8  47    0     980.4    NA       0.0000   9999     5090  0     0    
2019/07/21  17:03:01  BASE  1.65816  5    2.26968  8    -6.8  100   -6.8  49    0     980.4    NA       0.0000   9999     4990  0     0    
2019/07/21  17:04:01  BASE  1.64052  4    2.26968  8    -6.8  100   -6.8  53    0     980.4    NA       0.0000   9999     5090  0     0    
2019/07/21  17:05:01  BASE  1.54056  5    2.21088  7    -6.8  100   -6.8  50    0     980.4    NA       0.0000   9999     0     0     0    
2019/07/21  17:06:01  BASE  1.45824  11   2.0874   354  -6.8  100   -6.8  50    0     980.4    NA       0.0000   9999     0     0     0    
2019/07/21  17:07:01  BASE  1.57584  13   1.90512  17   -6.8  100   -6.8  46    0     980.4    NA       0.0000   9999     4990  0     0    
2019/07/21  17:08:01  BASE  1.60524  10   1.90512  17   -6.8  100   -6.8  47    0     980.4    NA       0.0000   9999     4890  0     0    
2019/07/21  17:09:01  BASE  1.42884  12   1.87572  353  -6.8  100   -6.8  48    0     980.4    NA       0.0000   9999     4790  0     0    
2019/07/21  17:10:01  BASE  1.59936  6    2.0874   360  -6.8  100   -6.8  55    0     980.4    NA       0.0000   9999     4990  0     0    
2019/07/21  17:11:01  BASE  1.71696  353  2.0874   360  -6.9  100   -6.9  51    0     980.4    NA       0.0000   9999     4920  0     0    
2019/07/21  17:12:01  BASE  1.65228  355  2.0874   360  -6.9  100   -6.9  49    0     980.4    NA       0.0000   9999     5120  0     0    
2019/07/21  17:13:01  BASE  1.65228  9    2.0874   360  -6.9  100   -6.9  44    0     980.4    NA       0.0000   9999     0     0     0    
2019/07/21  17:14:01  BASE  1.61112  14   2.0874   360  -6.9  100   -6.9  41    0     980.4    NA       0.0000   9999     0     0     0    
2019/07/21  17:15:01  BASE  1.69932  7    2.1462   7    -6.8  100   -6.8  37    0     980.4    NA       0.0000   9999     0     0     0    
2019/07/21  17:16:01  BASE  1.7346   2    2.24028  7    -6.9  100   -6.9  36    0     980.4    NA       0.0000   9999     5120  0     0    
2019/07/21  17:17:01  BASE  1.75812  358  2.24028  7    -6.9  100   -6.9  35    0     980.4    NA       0.0000   9999     5150  0     0    
2019/07/21  17:18:01  BASE  1.72284  355  2.24028  7    -6.9  100   -6.9  35    0     980.4    NA       0.0000   9999     4890  0     0    
2019/07/21  17:19:01  BASE  1.42884  360  2.24028  7    -6.9  100   -6.9  36    0     980.4    NA       0.0000   9999     5150  0     0    
2019/07/21  17:20:01  BASE  1.2054   8    2.24028  7    -6.9  100   -6.9  36    0     980.4    NA       0.0000   9999     5020  0     0    
2019/07/21  17:21:01  BASE  1.19952  13   2.24028  7    -6.9  100   -6.9  36    0     980.4    NA       0.0000   9999     5120  0     0    
2019/07/21  17:22:01  BASE  1.31712  11   2.24028  7    -6.9  100   -6.9  36    0     980.4    NA       0.0000   9999     4860  0     0    
2019/07/21  17:23:01  BASE  1.47     12   2.24028  7    -6.9  100   -6.9  37    0     980.4    NA       0.0000   9999     4860  0     0    
2019/07/21  17:24:01  BASE  1.59348  8    2.24028  7    -6.9  100   -6.9  38    0     980.4    NA       0.0000   9999     4820  0     0    
2019/07/21  17:25:01  BASE  1.52292  4    2.24028  7    -6.9  100   -6.9  38    0     980.4    NA       0.0000   9999     4820  0     0    
2019/07/21  17:26:01  BASE  1.47588  7    2.1462   346  -6.9  100   -6.9  39    0     980.4    NA       0.0000   9999     4920  0     0    
2019/07/21  17:27:01  BASE  1.43472  17   1.96392  2    -6.9  100   -6.9  39    0     980.4    NA       0.0000   9999     4890  0     0    
2019/07/21  17:28:01  BASE  1.27596  28   1.96392  2    -6.8  100   -6.8  40    0     980.4    NA       0.0000   9999     4860  0     0    
2019/07/21  17:29:01  BASE  1.21128  24   1.96392  2    -6.9  100   -6.9  40    0     980.4    NA       0.0000   9999     4790  0     0    
2019/07/21  17:30:01  BASE  1.1466   19   1.96392  2    -6.8  100   -6.8  40    0     980.4    NA       0.0000   9999     4790  0     0    
2019/07/21  17:31:01  BASE  1.22892  24   1.96392  2    -6.8  100   -6.8  40    0     980.4    NA       0.0000   9999     4760  0     0    
2019/07/21  17:32:01  BASE  1.2642   36   1.96392  2    -6.8  100   -6.8  40    0     980.4    NA       0.0000   9999     4690  0     0    
2019/07/21  17:33:01  BASE  1.18188  39   1.96392  2    -6.9  100   -6.9  40    0     980.4    NA       0.0000   9999     4590  0     0    
2019/07/21  17:34:01  BASE  1.11132  26   1.78752  16   -6.9  100   -6.9  41    0     980.3    NA       0.0000   9999     4630  0     0    
2019/07/21  17:35:01  BASE  0.94668  19   1.78752  16   -7.0  100   -7.0  41    0     980.3    NA       0.0000   9999     4530  0     0    
2019/07/21  17:36:01  BASE  0.78792  33   1.63464  15   -7.0  100   -7.0  41    0     980.3    NA       0.0000   9999     4660  0     0    
2019/07/21  17:37:01  BASE  0.8526   50   1.54056  24   -7.0  100   -7.0  40    0     980.3    NA       0.0000   9999     4660  0     0    
2019/07/21  17:38:01  BASE  1.01724  55   1.54056  24   -7.0  100   -7.0  40    0     980.3    NA       0.0000   9999     4560  0     0    
2019/07/21  17:39:01  BASE  0.98196  65   1.54056  24   -7.0  100   -7.0  40    0     980.3    NA       0.0000   9999     4590  0     0    
2019/07/21  17:40:01  BASE  0.93492  78   1.54056  24   -7.0  100   -7.0  40    0     980.3    NA       0.0000   9999     4590  0     0    
2019/07/21  17:41:01  BASE  0.89376  74   1.39356  42   -6.9  100   -6.9  39    0     980.3    NA       0.0000   9999     4660  0     0    
2019/07/21  17:42:01  BASE  0.50568  57   1.39356  42   -6.9  100   -6.9  38    0     980.3    NA       0.0000   9999     4560  0     0    
2019/07/21  17:43:01  BASE  0.07644  48   1.24068  45   -6.9  100   -6.9  37    0     980.3    NA       0.0000   9999     4530  0     0    
2019/07/21  17:44:01  BASE  0        46   1.24068  45   -6.9  100   -6.9  36    0     980.3    NA       0.0000   9999     4630  0     0    
2019/07/21  17:45:01  BASE  0        31   1.24068  45   -6.9  100   -6.9  34    0     980.3    NA       0.0000   9999     4460  0     0    
2019/07/21  17:46:01  BASE  0        17   1.24068  45   -6.8  100   -6.8  33    0     980.3    NA       0.0000   9999     4530  0     0    
2019/07/21  17:47:01  BASE  0        1    1.24068  45   -6.8  100   -6.8  32    0     980.3    NA       0.0000   9999     4590  0     0    
2019/07/21  17:48:01  BASE  0        344  1.18188  83   -6.8  100   -6.8  31    0     980.3    NA       0.0000   9999     4490  0     0    
2019/07/21  17:49:01  BASE  0        344  1.18188  83   -6.7  100   -6.7  30    0     980.3    NA       0.0000   9999     4530  0     0    
2019/07/21  17:50:01  BASE  0        348  1.0878   73   -6.7  100   -6.7  29    0     980.3    NA       0.0000   9999     4590  0     0    
2019/07/21  17:51:01  BASE  0        342  0.66444  50   -6.7  100   -6.7  28    0     980.3    NA       0.0000   9999     4590  0     0    
2019/07/21  17:52:01  BASE  0        333  0        M    -6.7  100   -6.7  28    0     980.3    NA       0.0000   9999     0     0     0    
2019/07/21  17:53:01  BASE  0        338  0        M    -6.7  100   -6.7  27    0     980.3    NA       0.0000   9999     0     0     0    
2019/07/21  17:54:01  BASE  0        347  0        M    -6.7  100   -6.7  26    0     980.3    NA       0.0000   9999     4630  0     0    
2019/07/21  17:55:01  BASE  0        343  0        M    -6.7  100   -6.7  26    0     980.3    NA       0.0000   9999     5320  0     0    
2019/07/21  17:56:01  BASE  0        327  0        M    -6.7  100   -6.7  25    0     980.3    NA       0.0000   9999     0     0     0    
2019/07/21  17:57:01  BASE  0        324  0        M    -6.7  100   -6.7  25    0     980.3    NA       0.0000   9999     4820  0     0    
2019/07/21  17:58:01  BASE  0.07644  333  0.63504  341  -6.7  100   -6.7  25    0     980.2    NA       0.0000   9999     4560  0     0    
2019/07/21  17:59:01  BASE  0.18228  333  0.63504  310  -6.7  100   -6.7  24    0     980.2    NA       0.0000   9999     4590  0     0    
2019/07/21  18:00:01  BASE  0.3822   343  0.81732  8    -6.7  100   -6.7  24    0     980.2    NA       0.0000   9999     4560  0     0    
2019/07/21  18:01:01  BASE  0.35868  359  0.81732  8    -6.7  100   -6.7  24    0     980.2    NA       0.0000   9999     4560  0     0    
2019/07/21  18:02:01  BASE  0.44688  355  0.9996   344  -6.7  100   -6.7  24    0     980.3    NA       0.0000   9999     4560  5320  0    
2019/07/21  18:03:01  BASE  0.7938   347  0.9996   343  -6.7  100   -6.7  23    0     980.3    NA       0.0000   9999     4630  5320  0    
2019/07/21  18:04:00  BASE  0.77616  342  0.9996   343  -6.7  100   -6.7  23    0     980.3    NA       0.0000   9999     4660  5320  0    
2019/07/21  18:05:00  BASE  0.88788  327  1.24068  318  -6.7  100   -6.7  23    0     980.2    NA       0.0000   9999     4660  5320  0    
2019/07/21  18:06:01  BASE  1.08192  323  1.29948  324  -6.7  100   -6.7  23    0     980.2    NA       0.0000   9999     4690  5350  0    
2019/07/21  18:07:00  BASE  1.24068  339  1.69344  4    -6.7  100   -6.7  23    0     980.3    NA       0.0000   9999     4660  5380  0    
2019/07/21  18:08:01  BASE  1.51116  350  1.75224  351  -6.7  100   -6.7  23    0     980.3    NA       0.0000   9999     4590  0     0    
2019/07/21  18:09:00  BASE  1.58172  352  1.75224  351  -6.8  100   -6.8  23    0     980.2    NA       0.0000   9999     4630  0     0    
2019/07/21  18:10:01  BASE  1.46412  358  1.75224  351  -6.7  100   -6.7  24    0     980.2    NA       0.0000   9999     4690  5480  0    
2019/07/21  18:11:01  BASE  1.37004  359  1.75224  351  -6.7  100   -6.7  24    0     980.3    NA       0.0000   9999     4530  5540  0    
2019/07/21  18:12:00  BASE  1.2936   352  1.75224  351  -6.7  100   -6.7  24    0     980.3    NA       0.0000   9999     4590  0     0    
2019/07/21  18:13:00  BASE  1.34064  339  1.75224  351  -6.7  100   -6.7  24    0     980.3    NA       0.0000   9999     4430  0     0    
2019/07/21  18:14:01  BASE  1.34652  333  1.75224  351  -6.7  100   -6.7  23    0     980.3    NA       0.0000   9999     4360  0     0    
2019/07/21  18:15:00  BASE  1.21128  342  1.75224  351  -6.6  100   -6.6  22    0     980.3    NA       0.0000   9999     4230  0     0    
2019/07/21  18:16:00  BASE  1.37592  353  1.75224  351  -6.6  100   -6.6  22    0     980.2    NA       0.0000   9999     4360  0     0    
2019/07/21  18:17:00  BASE  1.59348  6    1.90512  20   -6.6  100   -6.6  21    0     980.2    NA       0.0000   9999     4460  0     0    
2019/07/21  18:18:00  BASE  1.45236  17   1.90512  20   -6.7  100   -6.7  20    0     980.2    NA       0.0000   9999     4360  0     0    
2019/07/21  18:19:00  BASE  1.34064  22   1.90512  20   -6.7  100   -6.7  20    0     980.2    NA       0.0000   9999     4300  0     0    
2019/07/21  18:20:00  BASE  1.34064  34   1.90512  20   -6.8  100   -6.8  19    0     980.2    NA       0.0000   9999     4460  0     0    
2019/07/21  18:21:00  BASE  1.27596  42   1.90512  20   -6.8  100   -6.8  19    0     980.2    NA       0.0000   9999     4330  0     0    
2019/07/21  18:22:00  BASE  1.2348   41   1.90512  20   -6.8  100   -6.8  18    0     980.3    NA       0.0000   9999     4430  0     0    
2019/07/21  18:23:00  BASE  1.1172   23   1.90512  20   -6.8  100   -6.8  18    0     980.3    NA       0.0000   9999     4400  0     0    
2019/07/21  18:24:00  BASE  1.06428  8    1.90512  20   -6.8  100   -6.8  17    0     980.3    NA       0.0000   9999     4200  0     0    
2019/07/21  18:25:00  BASE  1.18188  10   1.90512  20   -6.7  100   -6.7  17    0     980.3    NA       0.0000   9999     4270  0     0    
2019/07/21  18:26:00  BASE  1.30536  13   1.90512  20   -6.7  100   -6.7  16    0     980.3    NA       0.0000   9999     4360  0     0    
2019/07/21  18:27:00  BASE  1.37004  18   1.63464  33   -6.7  100   -6.7  15    0     980.3    NA       0.0000   9999     4300  0     0    
2019/07/21  18:28:00  BASE  1.45236  18   1.75224  14   -6.7  100   -6.7  15    0     980.3    NA       0.0000   9999     4330  0     0    
2019/07/21  18:29:00  BASE  1.7346   20   2.1756   8    -6.7  100   -6.7  14    0     980.3    NA       0.0000   9999     4300  0     0    
2019/07/21  18:30:00  BASE  1.71108  20   2.1756   8    -6.7  100   -6.7  13    0     980.3    NA       0.0000   9999     4270  0     0    
2019/07/21  18:31:00  BASE  1.5582   23   2.1756   8    -6.7  100   -6.7  13    0     980.3    NA       0.0000   9999     4300  0     0    
2019/07/21  18:32:00  BASE  1.60524  26   2.1756   8    -6.7  100   -6.7  12    0     980.3    NA       0.0000   9999     4270  0     0    
2019/07/21  18:33:00  BASE  1.48764  24   2.1756   8    -6.7  100   -6.7  12    0     980.3    NA       0.0000   9999     4330  0     0    
2019/07/21  18:34:00  BASE  1.46412  24   2.1756   8    -6.7  100   -6.7  12    0     980.3    NA       0.0000   9999     4300  0     0    
2019/07/21  18:35:01  BASE  1.34652  24   2.1756   8    -6.6  100   -6.6  12    0     980.3    NA       0.0000   9999     4100  0     0    
2019/07/21  18:36:00  BASE  1.2936   25   2.1756   8    -6.6  100   -6.6  12    0     980.3    NA       0.0000   9999     4170  0     0    
2019/07/21  18:37:00  BASE  1.45236  26   2.1756   8    -6.6  100   -6.6  11    0     980.3    NA       0.0000   9999     4300  0     0    
2019/07/21  18:38:00  BASE  1.44648  25   2.1756   8    -6.6  100   -6.6  11    0     980.3    NA       0.0000   9999     4230  0     0    
2019/07/21  18:39:00  BASE  1.31124  29   1.96392  360  -6.6  100   -6.6  11    0     980.2    NA       0.0000   9999     4300  0     0    
2019/07/21  18:40:00  BASE  1.39356  39   1.87572  24   -6.6  100   -6.6  10    0     980.2    NA       0.0000   9999     4230  0     0    
2019/07/21  18:41:00  BASE  1.47     45   1.87572  24   -6.6  100   -6.6  10    0     980.2    NA       0.0000   9999     4130  0     0    
2019/07/21  18:42:00  BASE  1.35828  39   1.75224  25   -6.6  100   -6.6  10    0     980.2    NA       0.0000   9999     4200  0     0    
2019/07/21  18:43:00  BASE  1.35828  39   1.72284  44   -6.6  100   -6.6  9     0     980.2    NA       0.0000   9999     4230  0     0    
2019/07/21  18:44:01  BASE  1.42884  42   1.72284  44   -6.6  100   -6.6  9     0     980.2    NA       0.0000   9999     4300  0     0    
2019/07/21  18:45:00  BASE  1.48764  40   1.72284  44   -6.7  100   -6.7  9     0     980.2    NA       0.0000   9999     4270  0     0    
2019/07/21  18:46:00  BASE  1.61112  40   1.81692  36   -6.7  100   -6.7  8     0     980.2    NA       0.0000   9999     4270  0     0    
2019/07/21  18:47:00  BASE  1.69344  44   1.81692  52   -6.7  100   -6.7  8     0     980.2    NA       0.0000   9999     4270  0     0    
2019/07/21  18:48:00  BASE  1.78752  46   1.9992   45   -6.7  100   -6.7  8     0     980.2    NA       0.0000   9999     4330  0     0    
2019/07/21  18:49:00  BASE  1.81692  44   1.9992   45   -6.7  100   -6.7  8     0     980.2    NA       0.0000   9999     4330  0     0    
2019/07/21  18:50:00  BASE  1.81104  44   1.9992   45   -6.7  100   -6.7  7     0     980.2    NA       0.0000   9999     4330  0     0    
2019/07/21  18:51:00  BASE  1.7934   42   1.9992   45   -6.7  100   -6.7  7     0     980.2    NA       0.0000   9999     4270  0     0    
2019/07/21  18:52:00  BASE  1.71108  45   1.9992   45   -6.7  100   -6.7  7     0     980.2    NA       0.0000   9999     4360  0     0    
2019/07/21  18:53:00  BASE  1.617    45   1.9992   45   -6.6  100   -6.6  7     0     980.2    NA       0.0000   9999     4360  0     0    
2019/07/21  18:54:00  BASE  1.45824  45   1.9992   45   -6.6  100   -6.6  7     0     980.2    NA       0.0000   9999     4330  0     0    
2019/07/21  18:55:00  BASE  1.42884  45   1.9992   45   -6.5  100   -6.5  6     0     980.2    NA       0.0000   9999     4330  0     0    
2019/07/21  18:56:00  BASE  1.37592  36   1.9992   45   -6.5  100   -6.5  6     0     980.2    NA       0.0000   9999     4300  0     0    
2019/07/21  18:57:00  BASE  1.17012  32   1.9992   45   -6.5  100   -6.5  6     0     980.2    NA       0.0000   9999     2560  4230  0    
2019/07/21  18:58:00  BASE  1.19364  27   1.96392  42   -6.4  100   -6.4  6     0     980.2    NA       0.0000   9999     2530  4270  0    
2019/07/21  18:59:00  BASE  1.28772  22   1.96392  42   -6.4  100   -6.4  5     0     980.2    NA       0.0000   9999     2490  4300  0    
2019/07/21  19:00:00  BASE  1.32888  24   1.96392  42   -6.4  100   -6.4  5     0     980.2    NA       0.0000   9999     2530  4360  0    
2019/07/21  19:01:00  BASE  1.45236  27   1.87572  35   -6.4  100   -6.4  5     0     980.2    NA       0.0000   9999     2460  4360  0    
2019/07/21  19:02:00  BASE  1.42296  26   1.87572  35   -6.4  100   -6.4  5     0     980.2    NA       0.0000   9999     2460  4400  0    
2019/07/21  19:03:00  BASE  1.34652  19   1.87572  35   -6.4  100   -6.4  5     0     980.2    NA       0.0000   9999     2460  4400  0    
2019/07/21  19:04:00  BASE  1.32888  14   1.87572  35   -6.3  100   -6.3  4     0     980.2    NA       0.0000   9999     2430  4400  0    
2019/07/21  19:05:00  BASE  1.28184  359  1.87572  35   -6.3  100   -6.3  4     0     980.2    NA       0.0000   9999     2400  4400  0    
2019/07/21  19:06:00  BASE  1.28772  346  1.87572  35   -6.2  100   -6.2  4     0     980.2    NA       0.0000   9999     2330  4400  0    
2019/07/21  19:07:00  BASE  1.30536  348  1.87572  35   -6.2  100   -6.2  4     0     980.2    NA       0.0000   9999     2170  4400  0    
2019/07/21  19:08:00  BASE  1.21716  353  1.87572  35   -6.2  100   -6.2  4     0     980.2    NA       0.0000   9999     2030  4400  0    
2019/07/21  19:09:00  BASE  1.09368  1    1.87572  35   -6.2  100   -6.2  4     0     980.2    NA       0.0000   9999     2000  4430  0    
2019/07/21  19:10:00  BASE  1.09368  10   1.87572  35   -6.1  100   -6.1  3     0     980.2    NA       0.0000   9999     2000  4430  0    
2019/07/21  19:11:00  BASE  0.98196  355  1.75224  23   -6.1  100   -6.1  3     0     980.2    NA       0.0000   9999     1940  4430  0    
2019/07/21  19:12:00  BASE  0.93492  339  1.75224  23   -6.1  100   -6.1  3     0     980.1    NA       0.0000   9999     2030  4400  0    
2019/07/21  19:13:00  BASE  1.07016  343  1.72284  16   -6.2  100   -6.2  3     0     980.1    NA       0.0000   9999     2130  4430  0    
2019/07/21  19:14:00  BASE  0.99372  343  1.48176  211  -6.1  100   -6.1  3     0     980.1    NA       0.0000   9999     4430  0     0    
2019/07/21  19:15:00  BASE  0.90552  343  1.48176  211  -6.1  100   -6.1  3     0     980.1    NA       0.0000   9999     1840  4460  0    
2019/07/21  19:16:00  BASE  0.95256  343  1.48176  211  -6.1  100   -6.1  3     0     980.1    NA       0.0000   9999     4460  0     0    
2019/07/21  19:17:00  BASE  0.9702   346  1.48176  211  -6.1  100   -6.1  3     0     980.0    NA       0.0000   9999     4460  0     0    
2019/07/21  19:18:00  BASE  0.93492  357  1.42296  19   -6.1  100   -6.1  2     0     980.0    NA       0.0000   9999     4490  0     0    
2019/07/21  19:19:00  BASE  1.00548  6    1.42296  19   -6.1  100   -6.1  2     0     980.0    NA       0.0000   9999     4490  0     0    
2019/07/21  19:20:00  BASE  1.08192  13   1.54056  25   -6.1  100   -6.1  2     0     980.0    NA       0.0000   9999     1800  4530  0    
2019/07/21  19:21:00  BASE  1.25244  23   1.60524  26   -6.1  100   -6.1  2     0     979.9    NA       0.0000   9999     4490  0     0    
2019/07/21  19:22:00  BASE  1.49352  22   1.90512  20   -6.0  100   -6.0  2     0     979.9    NA       0.0000   9999     4490  0     0    
2019/07/21  19:23:00  BASE  1.4406   12   1.90512  20   -6.0  100   -6.0  2     0     979.9    NA       0.0000   9999     4430  0     0    
2019/07/21  19:24:00  BASE  1.45824  8    1.90512  20   -6.0  100   -6.0  2     0     979.9    NA       0.0000   9999     4430  0     0    
2019/07/21  19:25:00  BASE  1.4112   18   1.90512  20   -6.0  100   -6.0  2     0     979.9    NA       0.0000   9999     4430  0     0    
2019/07/21  19:26:00  BASE  1.22892  32   1.90512  20   -5.9  100   -5.9  2     0     979.9    NA       0.0000   9999     4430  0     0    
2019/07/21  19:27:00  BASE  1.176    38   1.90512  20   -5.9  100   -5.9  1     0     979.9    NA       0.0000   9999     4430  0     0    
2019/07/21  19:28:00  BASE  1.30536  38   1.90512  20   -5.9  100   -5.9  1     0     979.9    NA       0.0000   9999     4430  0     0    
2019/07/21  19:29:00  BASE  1.34064  29   1.90512  20   -5.9  100   -5.9  1     0     979.9    NA       0.0000   9999     4400  0     0    
2019/07/21  19:30:00  BASE  1.04076  19   1.90512  20   -5.8  100   -5.8  1     0     979.9    NA       0.0000   9999     4360  0     0    
2019/07/21  19:31:00  BASE  0.882    19   1.90512  20   -5.8  100   -5.8  1     0     979.9    NA       0.0000   9999     4360  0     0    
2019/07/21  19:32:00  BASE  0.89964  12   1.81692  7    -5.8  100   -5.8  1     0     979.9    NA       0.0000   9999     2530  4360  0    
2019/07/21  19:33:00  BASE  0.98196  3    1.81692  7    -5.8  100   -5.8  1     0     979.8    NA       0.0000   9999     4330  0     0    
2019/07/21  19:34:00  BASE  0.99372  10   1.75224  31   -5.7  100   -5.7  1     0     979.9    NA       0.0000   9999     4270  0     0    
2019/07/21  19:35:00  BASE  1.14072  21   1.75224  31   -5.7  100   -5.7  1     0     979.8    NA       0.0000   9999     4300  0     0    
2019/07/21  19:36:00  BASE  1.39944  29   1.75224  31   -5.7  100   -5.8  1     0     979.8    NA       0.0000   9999     4330  0     0    
2019/07/21  19:37:00  BASE  1.5582   30   1.75224  33   -5.7  99    -5.8  1     0     979.8    NA       0.0000   9999     4400  0     0    
2019/07/21  19:38:00  BASE  1.53468  30   1.75224  33   -5.7  99    -5.8  1     0     979.8    NA       0.0000   9999     4400  0     0    
2019/07/21  19:39:00  BASE  1.37592  34   1.75224  33   -5.7  99    -5.9  1     0     979.8    NA       0.0000   9999     4400  0     0    
2019/07/21  19:40:00  BASE  1.25244  35   1.75224  33   -5.7  99    -5.9  1     0     979.8    NA       0.0000   9999     2490  4360  0    
2019/07/21  19:41:00  BASE  1.11132  27   1.75224  33   -5.7  99    -5.9  1     0     979.8    NA       0.0000   9999     4360  0     0    
2019/07/21  19:42:00  BASE  0.9702   21   1.75224  33   -5.7  99    -5.8  1     0     979.8    NA       0.0000   9999     4330  0     0    
2019/07/21  19:43:00  BASE  1.16424  32   1.75224  33   -5.6  98    -5.8  1     0     979.8    NA       0.0000   9999     2530  4330  0    
2019/07/21  19:44:00  BASE  1.37004  44   1.81692  53   -5.6  98    -5.9  1     0     979.8    NA       0.0000   9999     2490  4360  0    
2019/07/21  19:45:00  BASE  1.18776  46   1.81692  53   -5.6  98    -5.9  1     0     979.8    NA       0.0000   9999     2460  4400  0    
2019/07/21  19:46:00  BASE  0.9996   39   1.81692  53   -5.5  97    -5.9  1     0     979.9    NA       0.0000   9999     2490  4400  0    
2019/07/21  19:47:00  BASE  0.63504  34   1.81692  53   -5.5  97    -6.0  1     0     979.9    NA       0.0000   9999     2490  4430  0    
2019/07/21  19:48:00  BASE  0.588    44   1.81692  53   -5.5  96    -6.0  1     0     979.9    NA       0.0000   9999     4430  0     0    
2019/07/21  19:49:00  BASE  0.80556  69   1.81692  53   -5.5  96    -6.1  0     0     979.9    NA       0.0000   9999     2430  4400  0    
2019/07/21  19:50:00  BASE  0.82908  81   1.81692  53   -5.5  96    -6.1  0     0     979.9    NA       0.0000   9999     4400  0     0    
2019/07/21  19:51:00  BASE  0.81732  81   1.81692  53   -5.6  95    -6.2  0     0     979.9    NA       0.0000   9999     2460  4360  0    
2019/07/21  19:52:00  BASE  0.78204  84   1.81692  53   -5.6  95    -6.2  0     0     979.9    NA       0.0000   9999     2460  4330  0    
2019/07/21  19:53:00  BASE  0.84672  83   1.81692  53   -5.6  95    -6.2  0     0     979.9    NA       0.0000   9999     4400  0     0    
2019/07/21  19:54:00  BASE  0.81732  81   1.29948  30   -5.6  96    -6.2  0     0     979.9    NA       0.0000   9999     4430  0     0    
2019/07/21  19:55:00  BASE  0.69384  85   1.0878   31   -5.5  96    -6.1  0     0     979.9    NA       0.0000   9999     2330  4460  0    
2019/07/21  19:56:00  BASE  0.39396  76   1.029    84   -5.5  96    -6.1  0     0     979.9    NA       0.0000   9999     2400  4490  0    
2019/07/21  19:57:00  BASE  0.07644  72   1.029    84   -5.4  95    -6.1  0     0     979.9    NA       0.0000   9999     2400  4490  0    
2019/07/21  19:58:00  BASE  0.02352  79   1.029    84   -5.4  95    -6.1  0     0     979.9    NA       0.0000   9999     2330  4460  0    
2019/07/21  19:59:00  BASE  0.02352  70   1.029    84   -5.4  95    -6.2  0     0     979.9    NA       0.0000   9999     2330  3670  4430 
2019/07/21  20:00:00  BASE  0        64   1.029    84   -5.4  94    -6.2  0     0     979.9    NA       0.0000   9999     3670  4400  5840 
2019/07/21  20:01:00  BASE  0        61   1.029    84   -5.4  94    -6.2  0     0     979.9    NA       0.0000   9999     3710  4330  5770 
2019/07/21  20:02:00  BASE  0        55   1.029    84   -5.4  94    -6.2  0     0     979.9    NA       0.0000   9999     3670  4300  0    
2019/07/21  20:03:00  BASE  0        48   0.90552  78   -5.4  94    -6.2  0     0     979.9    NA       0.0000   9999     3770  4300  0    
2019/07/21  20:04:00  BASE  0        43   0.75852  87   -5.3  94    -6.2  0     0     979.9    NA       0.0000   9999     4230  0     0    
2019/07/21  20:05:00  BASE  0        38   0.63504  54   -5.3  93    -6.2  0     0     979.9    NA       0.0000   9999     3740  4270  0    
2019/07/21  20:06:00  BASE  0        37   0.60564  66   -5.3  93    -6.2  0     0     979.9    NA       0.0000   9999     3670  4270  0    
2019/07/21  20:07:00  BASE  0        39   0.60564  66   -5.3  93    -6.2  0     0     979.9    NA       0.0000   9999     3670  4130  0    
2019/07/21  20:08:00  BASE  0.0882   50   0.78792  68   -5.2  93    -6.2  0     0     979.9    NA       0.0000   9999     3670  4170  0    
2019/07/21  20:09:00  BASE  0.0882   54   0.78792  68   -5.2  92    -6.2  0     0     979.9    NA       0.0000   9999     3670  4130  0    
2019/07/21  20:10:00  BASE  0        47   0.78792  68   -5.2  92    -6.3  0     0     979.9    NA       0.0000   9999     3640  4130  0    
2019/07/21  20:11:00  BASE  0        43   0.78792  68   -5.2  92    -6.3  0     0     979.9    NA       0.0000   9999     3580  4130  4950 
2019/07/21  20:12:00  BASE  0        41   0.78792  68   -5.2  92    -6.2  0     0     980.0    NA       0.0000   9999     4170  4920  0    
2019/07/21  20:13:00  BASE  0        41   0.78792  68   -5.1  92    -6.3  0     0     980.1    NA       0.0000   9999     3670  4170  4950 
2019/07/21  20:14:00  BASE  0        41   0.78792  68   -5.1  92    -6.3  0     0     980.1    NA       0.0000   9999     2200  3710  4170 
2019/07/21  20:15:00  BASE  0        41   0.78792  68   -5.1  91    -6.3  0     0     980.1    NA       0.0000   9999     2430  4100  4950 
2019/07/21  20:16:01  BASE  0        41   0.78792  68   -5.1  91    -6.3  0     0     980.1    NA       0.0000   9999     2330  4130  4950 
2019/07/21  20:17:01  BASE  0        28   0.78792  68   -5.1  91    -6.4  0     0     980.1    NA       0.0000   9999     2360  3740  4170 
2019/07/21  20:18:01  BASE  0        329  0        M    -5.2  91    -6.4  0     0     980.1    NA       0.0000   9999     2360  4130  0    
2019/07/21  20:19:01  BASE  0.29988  287  0.84672  279  -5.2  91    -6.4  0     0     980.1    NA       0.0000   9999     2300  4070  0    
2019/07/21  20:20:01  BASE  0.77616  281  1.0584   279  -5.2  91    -6.4  0     0     980.1    NA       0.0000   9999     2200  4070  0    
2019/07/21  20:21:01  BASE  1.01724  278  1.1466   272  -5.2  91    -6.4  0     0     980.1    NA       0.0000   9999     4200  4890  0    
2019/07/21  20:22:01  BASE  1.04076  278  1.1466   272  -5.2  91    -6.5  0     0     980.1    NA       0.0000   9999     2030  4170  0    
2019/07/21  20:23:01  BASE  0.94668  276  1.1466   272  -5.3  91    -6.5  0     0     980.1    NA       0.0000   9999     2230  4070  0    
2019/07/21  20:24:01  BASE  0.87612  277  1.1466   272  -5.3  91    -6.5  0     0     980.1    NA       0.0000   9999     2130  4040  0    
2019/07/21  20:25:01  BASE  0.87612  283  1.1466   272  -5.3  91    -6.5  0     0     980.1    NA       0.0000   9999     2130  4040  0    
2019/07/21  20:26:01  BASE  0.93492  290  1.1466   291  -5.3  91    -6.5  0     0     980.1    NA       0.0000   9999     1940  4040  0    
2019/07/21  20:27:01  BASE  0.9996   299  1.1466   291  -5.3  92    -6.4  0     0     980.1    NA       0.0000   9999     1940  4070  0    
2019/07/21  20:28:01  BASE  0.86436  301  1.1466   291  -5.2  92    -6.4  0     0     980.1    NA       0.0000   9999     2230  3670  0    
2019/07/21  20:29:01  BASE  0.54096  299  1.1466   291  -5.2  92    -6.3  0     0     980.1    NA       0.0000   9999     3670  4130  0    
2019/07/21  20:30:01  BASE  0.5292   305  1.1466   291  -5.2  92    -6.2  0     0     980.1    NA       0.0000   9999     5150  0     0    
2019/07/21  20:31:01  BASE  0.6762   317  1.1466   291  -5.1  92    -6.2  0     0     980.1    NA       0.0000   9999     5090  0     0    
2019/07/21  20:32:01  BASE  0.75852  328  1.1466   291  -5.1  93    -6.1  0     0     980.1    NA       0.0000   9999     2260  3670  0    
2019/07/21  20:33:01  BASE  1.02312  332  1.63464  325  -5.1  93    -6.1  0     0     980.1    NA       0.0000   9999     2200  3710  0    
2019/07/21  20:34:01  BASE  1.43472  330  1.72284  332  -5.1  93    -6.1  0     0     980.1    NA       0.0000   9999     2200  4100  0    
2019/07/21  20:35:01  BASE  1.59348  328  1.72284  332  -5.1  93    -6.1  0     0     980.1    NA       0.0000   9999     2230  4100  0    
2019/07/21  20:36:01  BASE  1.33476  329  1.72284  332  -5.1  93    -6.1  0     0     980.1    NA       0.0000   9999     2030  5120  0    
2019/07/21  20:37:01  BASE  1.01136  333  1.72284  332  -5.1  93    -6.1  0     0     980.1    NA       0.0000   9999     2000  5220  0    
2019/07/21  20:38:01  BASE  0.95256  330  1.72284  332  -5.1  93    -6.1  0     0     980.1    NA       0.0000   9999     1970  5150  0    
2019/07/21  20:39:01  BASE  0.97608  327  1.72284  332  -5.1  93    -6.1  0     0     980.1    NA       0.0000   9999     1940  5320  0    
2019/07/21  20:40:01  BASE  0.98784  334  1.72284  332  -5.1  92    -6.1  0     0     980.1    NA       0.0000   9999     1940  5350  0    
2019/07/21  20:41:01  BASE  1.10544  341  1.72284  332  -5.1  92    -6.1  0     0     980.1    NA       0.0000   9999     2030  5380  0    
2019/07/21  20:42:01  BASE  1.15836  342  1.72284  332  -5.1  92    -6.2  0     0     980.1    NA       0.0000   9999     5090  0     0    
2019/07/21  20:43:01  BASE  0.99372  340  1.72284  332  -5.1  92    -6.2  0     0     980.2    NA       0.0000   9999     2130  5120  0    
2019/07/21  20:44:01  BASE  0.81732  341  1.63464  327  -5.1  92    -6.2  0     0     980.2    NA       0.0000   9999     2070  5320  0    
2019/07/21  20:45:01  BASE  0.81732  341  1.35828  344  -5.1  92    -6.2  0     0     980.1    NA       0.0000   9999     1640  5380  0    
2019/07/21  20:46:01  BASE  1.04664  343  1.35828  344  -5.0  92    -6.1  0     0     980.1    NA       0.0000   9999     1670  5450  0    
2019/07/21  20:47:01  BASE  1.28184  350  1.54056  348  -5.0  92    -6.1  0     0     980.1    NA       0.0000   9999     1740  5350  0    
2019/07/21  20:48:01  BASE  1.29948  359  1.54056  1    -5.0  92    -6.1  0     0     980.1    NA       0.0000   9999     1740  5410  0    
2019/07/21  20:49:01  BASE  1.30536  18   1.54056  1    -5.0  93    -6.0  0     0     980.1    NA       0.0000   9999     1640  5410  0    
2019/07/21  20:50:01  BASE  1.31712  28   1.54056  1    -5.1  93    -6.0  0     0     980.1    NA       0.0000   9999     1800  3710  5450 
2019/07/21  20:51:00  BASE  1.18188  27   1.54056  1    -5.1  93    -6.0  0     0     980.1    NA       0.0000   9999     1870  3640  5450 
2019/07/21  20:52:01  BASE  1.01136  25   1.54056  1    -5.1  93    -6.0  0     0     980.1    NA       0.0000   9999     1900  3710  5350 
2019/07/21  20:53:00  BASE  0.78204  33   1.54056  1    -5.1  93    -6.1  0     0     980.1    NA       0.0000   9999     1900  2430  3710 
2019/07/21  20:54:01  BASE  0.6762   44   1.54056  1    -5.1  93    -6.1  0     0     980.0    NA       0.0000   9999     1900  3740  5510 
2019/07/21  20:55:00  BASE  0.62916  48   1.54056  1    -5.1  93    -6.1  0     0     980.0    NA       0.0000   9999     1800  3670  5450 
2019/07/21  20:56:00  BASE  0.69972  53   1.54056  1    -5.1  93    -6.1  0     0     980.0    NA       0.0000   9999     1840  2490  3670 
2019/07/21  20:57:00  BASE  1.06428  60   1.54056  1    -5.1  93    -6.1  0     0     980.0    NA       0.0000   9999     1900  3740  5450 
2019/07/21  20:58:00  BASE  1.25832  64   1.48176  64   -5.1  93    -6.1  0     0     980.0    NA       0.0000   9999     1840  2490  3710 
2019/07/21  20:59:00  BASE  1.35828  63   1.51116  64   -5.1  93    -6.1  0     0     980.0    NA       0.0000   9999     1870  3710  5410 
2019/07/21  21:00:00  BASE  1.37592  63   1.51116  64   -5.2  93    -6.1  0     0     980.1    NA       0.0000   9999     2330  3710  5410 
2019/07/21  21:01:00  BASE  1.21128  59   1.51116  64   -5.2  93    -6.1  0     0     980.1    NA       0.0000   9999     2300  3740  0    
2019/07/21  21:02:00  BASE  1.09956  59   1.51116  64   -5.2  93    -6.2  0     0     980.1    NA       0.0000   9999     2200  3770  0    
2019/07/21  21:03:00  BASE  1.05252  63   1.51116  64   -5.2  93    -6.2  0     0     980.1    NA       0.0000   9999     2100  3770  0    
2019/07/21  21:04:00  BASE  0.94668  64   1.51116  64   -5.2  93    -6.1  0     0     980.1    NA       0.0000   9999     2030  3770  0    
2019/07/21  21:05:00  BASE  0.9114   62   1.51116  64   -5.2  93    -6.1  0     0     980.1    NA       0.0000   9999     2130  3770  0    
2019/07/21  21:06:00  BASE  0.92316  59   1.51116  64   -5.1  94    -6.0  0     0     980.1    NA       0.0000   9999     2200  3770  0    
2019/07/21  21:07:00  BASE  0.6762   57   1.51116  64   -5.1  94    -5.9  0     0     980.1    NA       0.0000   9999     2170  3770  0    
2019/07/21  21:08:01  BASE  0.24696  50   1.51116  64   -5.1  94    -5.9  0     0     980.1    NA       0.0000   9999     2170  3770  0    
2019/07/21  21:09:01  BASE  0.05292  44   1.39356  60   -5.1  94    -5.9  0     0     980.1    NA       0.0000   9000     3770  0     0    
2019/07/21  21:10:00  BASE  0.02352  40   1.18188  56   -5.1  94    -5.9  0     0     980.1    NA       0.0000   9999     3740  0     0    
2019/07/21  21:11:00  BASE  0        38   1.1466   63   -5.1  94    -5.9  0     0     980.1    NA       0.0000   9999     3770  0     0    
2019/07/21  21:12:01  BASE  0        37   1.1466   63   -5.1  94    -5.8  0     0     980.1    NA       0.0000   9999     3810  0     0    
2019/07/21  21:13:00  BASE  0        40   1.1466   63   -5.0  95    -5.8  0     0     980.1    NA       0.0000   9999     3840  0     0    
2019/07/21  21:14:00  BASE  0        46   1.029    56   -5.0  95    -5.8  0     0     980.1    NA       0.0000   9999     3810  0     0    
2019/07/21  21:15:00  BASE  0        45   0.9996   60   -5.0  95    -5.7  0     0     980.1    NA       0.0000   9999     3810  0     0    
2019/07/21  21:16:00  BASE  0        36   0.84672  55   -5.0  94    -5.8  0     0     980.1    NA       0.0000   9999     1840  3770  0    
2019/07/21  21:17:00  BASE  0        11   0.60564  42   -5.0  94    -5.8  0     0     980.1    NA       0.0000   9999     1740  3740  0    
2019/07/21  21:18:00  BASE  0        348  0.60564  42   -5.0  94    -5.8  0     0     980.1    NA       0.0000   9999     3770  5680  0    
2019/07/21  21:19:00  BASE  0        345  0        M    -5.0  94    -5.8  0     0     980.1    NA       0.0000   9999     2330  3810  0    
2019/07/21  21:20:00  BASE  0        339  0        M    -5.0  94    -5.8  0     0     980.1    NA       0.0000   9999     2300  3840  0    
2019/07/21  21:21:00  BASE  0        334  0        M    -4.9  94    -5.8  0     0     980.2    NA       0.0000   9999     2300  3810  0    
2019/07/21  21:22:00  BASE  0        337  0        M    -4.9  94    -5.7  0     0     980.2    NA       0.0000   9999     3770  0     0    
2019/07/21  21:23:00  BASE  0        338  0        M    -4.9  94    -5.7  0     0     980.2    NA       0.0000   9999     2430  3810  0    
2019/07/21  21:24:00  BASE  0        348  0        M    -4.9  94    -5.7  0     0     980.2    NA       0.0000   9999     2430  3870  0    
2019/07/21  21:25:00  BASE  0        360  0        M    -4.9  94    -5.7  0     0     980.2    NA       0.0000   9999     3870  0     0    
2019/07/21  21:26:00  BASE  0        1    0        M    -4.9  94    -5.7  0     0     980.2    NA       0.0000   9999     2490  3870  0    
2019/07/21  21:27:00  BASE  0        0    0        M    -4.9  94    -5.7  0     0     980.2    NA       0.0000   9999     2430  3840  0    
2019/07/21  21:28:00  BASE  0        0    0        M    -4.9  94    -5.7  0     0     980.2    NA       0.0000   9999     2400  3840  0    
2019/07/21  21:29:00  BASE  0        0    0        M    -4.9  94    -5.7  0     0     980.2    NA       0.0000   9999     2130  3840  0    
2019/07/21  21:30:00  BASE  0        0    0        M    -4.9  94    -5.7  0     0     980.2    NA       0.0000   9999     2130  3810  0    
2019/07/21  21:31:00  BASE  0        1    0        M    -4.9  94    -5.7  0     0     980.2    NA       0.0000   9999     3840  0     0    
2019/07/21  21:32:00  BASE  0        3    0        M    -4.9  94    -5.7  0     0     980.2    NA       0.0000   9999     2170  3840  0    
2019/07/21  21:33:00  BASE  0        13   0        M    -4.8  94    -5.7  0     0     980.2    NA       0.0000   9999     2170  3810  0    
2019/07/21  21:34:00  BASE  0        19   0        M    -4.8  94    -5.6  0     0     980.2    NA       0.0000   9999     2170  3810  0    
2019/07/21  21:35:00  BASE  0        1    0        M    -4.8  94    -5.6  0     0     980.2    NA       0.0000   9999     2230  3810  0    
2019/07/21  21:36:00  BASE  0.10584  350  0.69384  342  -4.8  94    -5.6  0     0     980.1    NA       0.0000   9999     2200  3770  0    
2019/07/21  21:37:00  BASE  0.37044  354  0.9702   346  -4.8  94    -5.6  0     0     980.1    NA       0.0000   9999     2230  3810  0    
2019/07/21  21:38:00  BASE  0.2646   1    0.9702   346  -4.8  94    -5.6  0     0     980.1    NA       0.0000   9999     2260  3840  0    
2019/07/21  21:39:00  BASE  0.12348  2    0.9702   346  -4.8  94    -5.6  0     0     980.1    NA       0.0000   9999     2230  3840  0    
2019/07/21  21:40:01  BASE  0.12348  15   0.9702   346  -4.8  95    -5.6  0     0     980.1    NA       0.0000   9999     2260  3770  0    
2019/07/21  21:41:00  BASE  0        47   0.9702   346  -4.8  95    -5.5  0     0     980.1    NA       0.0000   9999     2330  3710  0    
2019/07/21  21:42:00  BASE  0        53   0.9702   346  -4.8  95    -5.5  0     0     980.1    NA       0.0000   9999     2330  3740  0    
2019/07/21  21:43:00  BASE  0        51   0.9702   346  -4.8  95    -5.5  0     0     980.1    NA       0.0000   9999     3810  6070  0    
2019/07/21  21:44:00  BASE  0.21168  55   0.9702   346  -4.8  95    -5.5  0     0     980.0    NA       0.0000   9999     2360  3540  6170 
2019/07/21  21:45:00  BASE  0.6468   53   0.9996   40   -4.8  95    -5.5  0     0     980.0    NA       0.0000   9999     2400  3510  0    
2019/07/21  21:46:00  BASE  0.43512  40   0.9996   40   -4.8  95    -5.4  0     0     979.9    NA       0.0000   9999     2400  3540  0    
2019/07/21  21:47:00  BASE  0        34   0.9996   40   -4.8  95    -5.4  0     0     979.9    NA       0.0000   9999     2330  3580  0    
2019/07/21  21:48:00  BASE  0.0882   38   0.9996   40   -4.8  95    -5.4  0     0     979.9    NA       0.0000   9999     2400  3540  0    
2019/07/21  21:49:00  BASE  0.48804  23   1.57584  9    -4.7  95    -5.4  0     0     979.9    NA       0.0000   9999     3540  0     0    
2019/07/21  21:50:00  BASE  1.2348   358  1.96392  347  -4.7  95    -5.4  0     0     979.9    NA       0.0000   9999     2460  3640  6140 
2019/07/21  21:51:00  BASE  1.83456  349  2.29908  350  -4.7  96    -5.3  0     0     979.9    NA       0.0000   9999     3610  0     0    
2019/07/21  21:52:00  BASE  2.16384  349  3.26928  354  -4.7  96    -5.3  0     0     979.9    NA       0.0000   9999     3640  6140  0    
2019/07/21  21:53:00  BASE  2.74596  355  3.32808  2    -4.7  96    -5.2  0     0     979.9    NA       0.0000   9999     3640  5940  0    
2019/07/21  21:54:01  BASE  3.02232  2    3.32808  2    -4.6  96    -5.2  0     0     979.9    NA       0.0000   9999     3540  0     0    
2019/07/21  21:55:00  BASE  3.00468  356  3.32808  353  -4.6  96    -5.1  0     0     979.9    NA       0.0000   9999     2760  0     0    
2019/07/21  21:56:00  BASE  2.89296  346  3.32808  353  -4.6  96    -5.1  0     0     979.9    NA       0.0000   9999     3580  5940  0    
2019/07/21  21:57:00  BASE  2.7048   350  3.32808  353  -4.5  96    -5.0  0     0     979.9    NA       0.0000   9999     3540  0     0    
2019/07/21  21:58:00  BASE  2.9694   358  3.44568  354  -4.5  97    -5.0  0     0     979.8    NA       0.0000   9999     3540  0     0    
2019/07/21  21:59:00  BASE  3.28692  359  3.53976  242  -4.5  97    -4.9  0     0     979.8    NA       0.0000   9999     3480  0     0    
2019/07/21  22:00:00  BASE  3.2046   359  3.53976  242  -4.5  97    -4.9  0     0     979.8    NA       0.0000   9999     3480  0     0    
2019/07/21  22:01:00  BASE  2.74596  357  3.53976  242  -4.5  97    -4.9  0     0     979.8    NA       0.0000   9999     3480  0     0    
2019/07/21  22:02:00  BASE  2.36964  2    3.53976  242  -4.5  97    -4.9  0     0     979.8    NA       0.0000   9999     3540  0     0    
2019/07/21  22:03:00  BASE  2.55192  10   3.53976  242  -4.5  97    -4.9  0     0     979.8    NA       0.0000   9999     3580  0     0    
2019/07/21  22:04:00  BASE  2.9106   8    3.53976  242  -4.5  97    -4.9  0     0     979.8    NA       0.0000   9999     3510  0     0    
2019/07/21  22:05:00  BASE  2.9106   9    3.53976  242  -4.5  97    -4.9  0     0     979.8    NA       0.0000   9999     3450  0     0    
2019/07/21  22:06:00  BASE  2.8224   7    3.53976  242  -4.5  97    -4.9  0     0     979.8    NA       0.0000   9999     3480  0     0    
2019/07/21  22:07:00  BASE  3.12228  3    3.62796  1    -4.5  97    -4.9  0     0     979.8    NA       0.0000   9999     3480  5770  0    
2019/07/21  22:08:00  BASE  3.45744  2    3.72204  4    -4.5  97    -4.8  0     0     979.8    NA       0.0000   9999     3510  0     0    
2019/07/21  22:09:00  BASE  3.32808  1    3.72204  4    -4.5  97    -4.8  0     0     979.8    NA       0.0000   9999     3510  0     0    
2019/07/21  22:10:00  BASE  3.18696  353  3.72204  4    -4.5  98    -4.8  0     0     979.8    NA       0.0000   9999     3580  0     0    
2019/07/21  22:11:00  BASE  3.29868  347  3.72204  4    -4.5  98    -4.8  0     0     979.8    NA       0.0000   9999     3510  0     0    
2019/07/21  22:12:00  BASE  3.087    349  3.72204  4    -4.5  98    -4.7  0     0     979.8    NA       0.0000   9999     3510  0     0    
2019/07/21  22:13:00  BASE  2.75184  354  3.72204  4    -4.5  98    -4.7  0     0     979.8    NA       0.0000   9999     3540  0     0    
2019/07/21  22:14:00  BASE  2.72832  357  3.72204  4    -4.4  98    -4.7  0     0     979.8    NA       0.0000   9999     3510  0     0    
2019/07/21  22:15:00  BASE  3.01056  2    3.72204  4    -4.4  98    -4.7  0     0     979.8    NA       0.0000   9999     1940  3480  0    
2019/07/21  22:16:00  BASE  3.22812  2    3.72204  4    -4.4  98    -4.7  0     0     979.8    NA       0.0000   9999     1900  3510  0    
2019/07/21  22:17:00  BASE  2.85768  1    3.72204  4    -4.4  98    -4.7  0     0     979.8    NA       0.0000   9999     1900  3510  0    
2019/07/21  22:18:00  BASE  2.62836  8    3.62796  355  -4.4  98    -4.7  0     0     979.8    NA       0.0000   9999     1900  3540  0    
2019/07/21  22:19:00  BASE  2.78124  15   3.62796  355  -4.4  98    -4.7  0     0     979.8    NA       0.0000   9999     2660  3480  0    
2019/07/21  22:20:00  BASE  2.64012  17   3.62796  355  -4.4  98    -4.7  0     0     979.8    NA       0.0000   9999     2690  3410  0    
2019/07/21  22:21:00  BASE  2.59896  22   3.59856  3    -4.4  98    -4.7  0     0     979.8    NA       0.0000   9999     2330  2760  3450 
2019/07/21  22:22:00  BASE  2.79888  28   3.59856  3    -4.4  98    -4.7  0     0     979.8    NA       0.0000   9999     2330  2720  3450 
2019/07/21  22:23:00  BASE  3.0282   24   3.65736  7    -4.5  99    -4.7  0     0     979.8    NA       0.0000   9999     2360  3480  0    
2019/07/21  22:24:00  BASE  3.13404  20   3.65736  7    -4.5  99    -4.7  0     0     979.8    NA       0.0000   9999     2360  3450  0    
2019/07/21  22:25:00  BASE  3.06936  19   3.65736  7    -4.5  99    -4.7  0     0     979.8    NA       0.0000   9999     2360  3450  0    
2019/07/21  22:26:00  BASE  2.97528  24   3.65736  7    -4.5  99    -4.7  0     0     979.8    NA       0.0000   9999     2360  3310  0    
2019/07/21  22:27:00  BASE  2.9106   29   3.65736  7    -4.5  99    -4.7  0     0     979.8    NA       0.0000   9999     2400  3310  0    
2019/07/21  22:28:00  BASE  3.12816  27   3.65736  7    -4.5  99    -4.6  0     0     979.8    NA       0.0000   9999     2430  3350  0    
2019/07/21  22:29:00  BASE  3.41628  25   3.65736  27   -4.5  99    -4.6  0     0     979.8    NA       0.0000   9999     2460  3280  0    
2019/07/21  22:30:00  BASE  3.37512  23   3.65736  27   -4.5  100   -4.6  0     0     979.8    NA       0.0000   9999     2490  3410  0    
2019/07/21  22:31:00  BASE  3.22224  22   3.65736  27   -4.5  100   -4.5  0     0     979.8    NA       0.0000   9999     2490  3080  0    
2019/07/21  22:32:00  BASE  3.09876  21   3.65736  27   -4.5  100   -4.5  0     0     979.8    NA       0.0000   9999     2530  3180  0    
2019/07/21  22:33:00  BASE  2.94588  15   3.65736  27   -4.5  100   -4.5  0     0     979.8    NA       0.0000   9999     2530  3380  0    
2019/07/21  22:34:00  BASE  2.80476  14   3.65736  27   -4.5  100   -4.5  0     0     979.8    NA       0.0000   9999     2530  3120  0    
2019/07/21  22:35:00  BASE  2.74008  14   3.65736  27   -4.5  100   -4.5  0     0     979.8    NA       0.0000   9999     1840  2490  3080 
2019/07/21  22:36:00  BASE  2.60484  15   3.65736  27   -4.5  100   -4.5  0     0     979.8    NA       0.0000   9999     2490  3510  0    
2019/07/21  22:37:00  BASE  2.76948  13   3.65736  27   -4.5  100   -4.5  0     0     979.8    NA       0.0000   9999     2490  3410  0    
2019/07/21  22:38:00  BASE  3.04584  10   3.65736  27   -4.4  100   -4.4  0     0     979.8    NA       0.0000   9999     2490  0     0    
2019/07/21  22:39:00  BASE  2.93412  6    3.53976  26   -4.4  100   -4.4  0     0     979.8    NA       0.0000   9999     2430  0     0    
2019/07/21  22:40:00  BASE  2.82828  4    3.48096  21   -4.3  100   -4.3  0     0     979.8    NA       0.0000   9999     2400  2790  0    
2019/07/21  22:41:00  BASE  2.8812   6    3.41628  5    -4.3  100   -4.3  0     0     979.8    NA       0.0000   9999     1770  2360  3120 
2019/07/21  22:42:00  BASE  3.01644  3    3.48096  6    -4.2  100   -4.2  0     0     979.8    NA       0.0000   9999     1770  2400  0    
2019/07/21  22:43:00  BASE  3.087    6    3.48096  6    -4.2  100   -4.2  0     0     979.8    NA       0.0000   9999     2400  3120  0    
2019/07/21  22:44:00  BASE  3.1458   10   3.48096  6    -4.2  100   -4.2  0     0     979.8    NA       0.0000   9999     1800  2330  3150 
2019/07/21  22:45:00  BASE  3.08112  13   3.48096  6    -4.2  100   -4.2  0     0     979.8    NA       0.0000   9999     1840  2400  3180 
2019/07/21  22:46:00  BASE  3.13404  18   3.69264  26   -4.2  100   -4.2  0     0     979.8    NA       0.0000   9999     1770  2360  3150 
2019/07/21  22:47:00  BASE  3.528    18   4.05132  11   -4.2  100   -4.2  0     0     979.8    NA       0.0000   9999     2300  3220  0    
2019/07/21  22:48:00  BASE  3.60444  18   4.05132  11   -4.2  100   -4.2  0     0     979.8    NA       0.0000   9999     1740  2300  3220 
2019/07/21  22:49:00  BASE  3.59268  18   4.1454   22   -4.2  100   -4.2  0     0     979.7    NA       0.0000   9999     1610  2330  3220 
2019/07/21  22:50:00  BASE  3.81024  16   4.1454   1    -4.2  100   -4.2  0     0     979.7    NA       0.0000   9999     1610  2260  3080 
2019/07/21  22:51:00  BASE  3.86904  11   4.41588  360  -4.2  100   -4.2  0     0     979.7    NA       0.0000   9999     1670  2230  3020 
2019/07/21  22:52:00  BASE  3.77496  5    4.41588  360  -4.2  100   -4.2  0     0     979.7    NA       0.0000   9999     1670  2300  3080 
2019/07/21  22:53:00  BASE  3.50448  3    4.41588  360  -4.2  100   -4.2  0     0     979.7    NA       0.0000   9999     1670  2330  3080 
2019/07/21  22:54:00  BASE  3.28104  7    4.41588  360  -4.2  100   -4.2  0     0     979.7    NA       0.0000   9999     1740  2260  3050 
2019/07/21  22:55:00  BASE  3.36924  7    4.41588  360  -4.2  100   -4.2  0     0     979.7    NA       0.0000   9999     2070  3120  0    
2019/07/21  22:56:00  BASE  3.4104   357  4.41588  360  -4.2  100   -4.2  0     0     979.7    NA       0.0000   9999     1870  2330  3220 
2019/07/21  22:57:00  BASE  3.234    357  4.41588  360  -4.2  100   -4.2  0     0     979.7    NA       0.0000   9999     1800  2400  3280 
2019/07/21  22:58:00  BASE  3.13404  5    4.41588  360  -4.2  100   -4.2  0     0     979.7    NA       0.0000   9999     1770  3150  0    
2019/07/21  22:59:00  BASE  3.10464  8    4.41588  360  -4.1  100   -4.1  0     0     979.7    NA       0.0000   9999     1540  3410  0    
2019/07/21  23:00:00  BASE  3.2046   9    4.41588  360  -4.1  100   -4.1  0     0     979.7    NA       0.0000   9999     1540  3250  0    
2019/07/21  23:01:00  BASE  3.25164  8    3.93372  5    -4.1  100   -4.1  0     0     979.7    NA       0.0000   9999     1570  3280  0    
2019/07/21  23:02:00  BASE  3.0576   0    3.86904  2    -4.1  100   -4.1  0     0     979.7    NA       0.0000   9999     1610  3280  0    
2019/07/21  23:03:00  BASE  2.8518   359  3.86904  2    -4.1  100   -4.1  0     0     979.7    NA       0.0000   9999     1570  3380  0    
2019/07/21  23:04:00  BASE  2.92824  0    3.86904  2    -4.1  100   -4.1  0     0     979.7    NA       0.0000   9999     1280  0     0    
2019/07/21  23:05:00  BASE  3.10464  356  3.62796  9    -4.1  100   -4.1  0     0     979.7    NA       0.0000   9999     1210  0     0    
2019/07/21  23:06:00  BASE  3.03408  350  3.62796  9    -4.2  100   -4.2  0     0     979.8    NA       0.0000   9999     1050  1800  0    
2019/07/21  23:07:00  BASE  3.09876  344  3.62796  9    -4.2  100   -4.2  0     0     979.8    NA       0.0000   9999     1120  0     0    
2019/07/21  23:08:00  BASE  3.35748  346  3.86904  3    -4.1  100   -4.1  0     0     979.8    NA       0.0000   9999     1250  0     0    
2019/07/21  23:09:00  BASE  3.32808  348  3.86904  3    -4.2  100   -4.2  0     0     979.8    NA       0.0000   9999     820   0     0    
2019/07/21  23:10:00  BASE  3.26928  347  3.86904  3    -4.2  100   -4.2  0     0     979.8    NA       0.0000   9999     1080  3350  0    
2019/07/21  23:11:00  BASE  3.21636  350  3.86904  3    -4.2  99    -4.2  0     0     979.8    NA       0.0000   9999     1050  0     0    
2019/07/21  23:12:00  BASE  2.88708  354  3.86904  3    -4.2  99    -4.3  0     0     979.8    NA       0.0000   9999     950   0     0    
2019/07/21  23:13:00  BASE  2.793    0    3.86904  3    -4.2  99    -4.3  0     0     979.8    NA       0.0000   9999     980   0     0    
2019/07/21  23:14:00  BASE  2.95764  5    3.86904  3    -4.2  99    -4.3  0     0     979.8    NA       0.0000   9999     820   2360  0    
2019/07/21  23:15:00  BASE  3.087    6    3.86904  3    -4.2  99    -4.3  0     0     979.8    NA       0.0000   9999     850   2360  0    
2019/07/21  23:16:00  BASE  3.25164  2    3.86904  3    -4.2  99    -4.3  0     0     979.8    NA       0.0000   9999     820   3020  0    
2019/07/21  23:17:00  BASE  3.09288  357  3.86904  3    -4.2  99    -4.3  0     0     979.8    NA       0.0000   9999     750   3020  0    
2019/07/21  23:18:00  BASE  2.68128  359  3.69264  355  -4.2  99    -4.3  0     0     979.8    NA       0.0000   9999     750   3080  0    
2019/07/21  23:19:00  BASE  2.74596  1    3.69264  355  -4.2  99    -4.3  0     0     979.8    NA       0.0000   9999     750   3050  0    
2019/07/21  23:20:00  BASE  2.98116  2    3.51036  2    -4.2  99    -4.3  0     0     979.8    NA       0.0000   9999     790   0     0    
2019/07/21  23:21:00  BASE  2.8812   3    3.51036  2    -4.2  99    -4.3  0     0     979.8    NA       0.0000   9999     720   0     0    
2019/07/21  23:22:00  BASE  2.98704  6    3.62796  10   -4.2  100   -4.2  0     0     979.8    NA       0.0000   9999     1480  2430  0    
2019/07/21  23:23:00  BASE  3.40452  12   4.08072  10   -4.2  100   -4.2  0     0     979.8    NA       0.0000   9999     1510  3080  0    
2019/07/21  23:24:00  BASE  3.71028  15   4.2042   8    -4.2  100   -4.2  0     0     979.8    NA       0.0000   9999     1610  3080  0    
2019/07/21  23:25:00  BASE  3.7632   13   4.2042   8    -4.2  100   -4.2  0     0     979.8    NA       0.0000   9999     1670  0     0    
2019/07/21  23:26:00  BASE  3.7926   10   4.2042   8    -4.2  100   -4.2  0     0     979.8    NA       0.0000   9999     1870  3080  0    
2019/07/21  23:27:00  BASE  3.9984   11   4.41588  14   -4.2  100   -4.2  0     0     979.7    NA       0.0000   9999     2000  2950  0    
2019/07/21  23:28:00  BASE  4.05132  13   4.41588  14   -4.1  100   -4.1  0     0     979.7    NA       0.0000   9999     2170  2890  0    
2019/07/21  23:29:00  BASE  3.90432  12   4.41588  14   -4.2  100   -4.2  0     0     979.7    NA       0.0000   9999     2300  0     0    
2019/07/21  23:30:00  BASE  3.675    11   4.41588  14   -4.2  100   -4.2  0     0     979.7    NA       0.0000   9999     2990  0     0    
2019/07/21  23:31:00  BASE  3.53388  10   4.41588  14   -4.2  100   -4.2  0     0     979.7    NA       0.0000   9999     2990  0     0    
2019/07/21  23:32:01  BASE  3.52212  8    4.41588  14   -4.2  100   -4.2  0     0     979.7    NA       0.0000   9999     1350  3080  0    
2019/07/21  23:33:00  BASE  3.35748  7    4.41588  14   -4.2  100   -4.2  0     0     979.7    NA       0.0000   9999     1280  2030  0    
2019/07/21  23:34:00  BASE  3.234    8    4.41588  14   -4.2  100   -4.2  0     0     979.7    NA       0.0000   9999     1210  2070  0    
2019/07/21  23:35:00  BASE  3.2634   7    4.41588  14   -4.2  100   -4.2  0     0     979.7    NA       0.0000   9999     1150  2100  0    
2019/07/21  23:36:00  BASE  3.46332  5    4.41588  14   -4.2  100   -4.2  0     0     979.7    NA       0.0000   9999     1120  2170  0    
2019/07/21  23:37:00  BASE  3.59856  4    4.1454   14   -4.2  100   -4.2  0     0     979.7    NA       0.0000   9999     1180  0     0    
2019/07/21  23:38:00  BASE  3.381    3    4.116    11   -4.2  100   -4.2  0     0     979.7    NA       0.0000   9999     1120  0     0    
2019/07/21  23:39:00  BASE  3.1752   0    3.90432  11   -4.2  100   -4.2  0     0     979.7    NA       0.0000   9999     1120  0     0    
2019/07/21  23:40:00  BASE  2.98704  357  3.90432  11   -4.3  100   -4.3  0     0     979.7    NA       0.0000   9999     1080  0     0    
2019/07/21  23:41:00  BASE  2.72244  360  3.81024  6    -4.3  100   -4.3  0     0     979.7    NA       0.0000   9999     1050  0     0    
2019/07/21  23:42:00  BASE  2.82828  4    3.78084  3    -4.3  100   -4.3  0     0     979.7    NA       0.0000   9999     1080  0     0    
2019/07/21  23:43:00  BASE  3.25164  5    3.78084  3    -4.3  100   -4.3  0     0     979.7    NA       0.0000   9999     1080  0     0    
2019/07/21  23:44:00  BASE  3.2928   7    3.78084  3    -4.3  100   -4.3  0     0     979.7    NA       0.0000   9999     950   0     0    
2019/07/21  23:45:00  BASE  2.95176  11   3.78084  3    -4.3  100   -4.3  0     0     979.7    NA       0.0000   9999     1020  0     0    
2019/07/21  23:46:00  BASE  2.75772  17   3.75144  5    -4.3  100   -4.3  0     0     979.7    NA       0.0000   9999     890   0     0    
2019/07/21  23:47:00  BASE  2.59308  20   3.75144  5    -4.3  100   -4.3  0     0     979.7    NA       0.0000   9999     850   0     0    
2019/07/21  23:48:00  BASE  2.56956  17   3.75144  5    -4.3  100   -4.3  0     0     979.7    NA       0.0000   9999     820   2070  0    
2019/07/21  23:49:00  BASE  2.92236  17   3.75144  5    -4.3  100   -4.3  0     0     979.7    NA       0.0000   9999     720   1540  0    
2019/07/21  23:50:00  BASE  3.03996  22   3.75144  5    -4.3  100   -4.3  0     0     979.8    NA       0.0000   9999     720   0     0    
2019/07/21  23:51:00  BASE  3.07524  22   3.75144  5    -4.3  100   -4.3  0     0     979.7    NA       0.0000   9999     890   0     0    
2019/07/21  23:52:00  BASE  3.09288  23   3.75144  5    -4.3  100   -4.3  0     0     979.7    NA       0.0000   9999     950   0     0    
2019/07/21  23:53:00  BASE  3.01056  25   3.56916  18   -4.3  100   -4.3  0     0     979.7    NA       0.0000   9999     980   0     0    
2019/07/21  23:54:00  BASE  2.94     22   3.56916  18   -4.3  100   -4.3  0     0     979.7    NA       0.0000   9999     850   0     0    
2019/07/21  23:55:00  BASE  3.04584  19   3.78084  17   -4.4  100   -4.4  0     0     979.7    NA       0.0000   9999     790   0     0    
2019/07/21  23:56:00  BASE  3.02232  16   3.78084  17   -4.4  100   -4.4  0     0     979.7    NA       0.0000   9999     750   0     0    
2019/07/21  23:57:00  BASE  2.69892  12   3.78084  17   -4.3  100   -4.3  0     0     979.7    NA       0.0000   9999     620   0     0    
2019/07/21  23:58:00  BASE  2.71656  8    3.78084  17   -4.3  100   -4.3  0     0     979.7    NA       0.0000   9999     660   0     0    
2019/07/21  23:59:00  BASE  2.74596  8    3.78084  17   -4.3  100   -4.3  0     0     979.7    NA       0.0000   9999     690   0     0